GFSSW_con_mucape_000.txt.gz
CAPE
21 45 98 99 96 70 55 58 63 63 53 33 14 19 36 34 22 18 10 1 1 0 0 3 0 0 0 0 0 0 0 0 0 0 0 0 0 0 0 0 0 0 4 4 0
22 69 127 131 124 96 87 65 50 40 47 27 7 18 40 39 13 19 2 0 126 219 0 15 0 0 0 0 0 0 0 0 0 0 0 0 0 0 0 0 0 0 0 0 0
64 89 118 143 153 167 137 104 75 51 22 20 24 55 82 72 37 2 38 32 309 221 22 20 2 0 0 0 0 0 0 0 0 0 0 0 0 0 0 0 0 0 0 0 0
93 194 250 263 191 248 213 148 110 115 79 89 107 158 130 69 0 0 44 90 325 149 35 30 16 0 0 0 0 0 0 0 0 0 0 0 0 0 0 0 0 0 0 0 0
122 80 104 166 179 155 203 169 113 122 124 92 191 246 103 83 0 38 104 230 106 124 41 33 9 0 0 0 0 0 0 0 0 0 0 0 0 0 0 0 0 0 0 0 0
90 163 153 123 84 101 140 64 85 185 203 243 169 249 80 0 0 62 70 84 14 59 26 40 9 3 0 0 0 0 0 0 0 0 0 0 0 0 0 0 0 0 0 0 0
126 95 63 89 99 63 30 17 122 203 201 206 185 181 113 4 0 79 125 85 49 39 12 29 4 18 1 0 0 0 0 0 0 0 0 0 0 0 0 0 0 0 0 0 0
85 57 44 50 35 35 26 56 162 180 183 139 96 151 27 1 178 137 76 141 33 17 12 25 18 14 0 0 0 0 0 0 0 0 0 0 0 0 0 0 0 0 0 0 0
43 38 0 11 42 47 31 84 106 139 145 55 15 48 0 54 149 139 171 65 28 37 35 10 15 0 0 0 0 0 0 0 0 0 0 0 0 0 0 0 0 0 0 0 0
1 1 6 23 90 76 74 125 93 65 7 1 5 0 3 1 106 93 143 89 16 40 7 43 8 0 0 0 0 0 0 0 0 0 0 0 0 0 0 0 0 0 0 0 0
58 21 17 68 45 53 67 76 0 0 0 4 0 0 0 158 164 222 140 78 60 23 60 55 0 0 0 0 0 0 0 0 0 0 0 0 0 0 0 0 0 0 0 0 0
0 14 18 40 50 76 66 0 0 0 54 0 49 34 9 60 70 159 100 54 53 76 6 0 0 0 0 0 0 0 0 0 0 0 0 0 0 0 0 0 0 0 0 0 0
3 3 1 3 33 37 0 0 0 0 0 69 73 16 32 22 25 82 75 51 31 62 8 0 0 0 0 0 0 0 0 0 0 0 0 0 0 0 0 0 0 0 0 0 0
9 13 1 4 0 0 0 0 4 0 0 0 0 0 0 0 10 58 35 4 1 30 1 0 0 0 0 0 0 0 0 0 0 0 0 0 0 0 0 0 0 0 0 0 0
3 20 3 0 0 0 0 3 1 5 0 0 0 40 21 0 0 17 6 0 43 1 0 0 0 0 0 0 0 0 0 0 0 0 0 0 0 0 0 0 0 0 0 0 0
8 1 0 1 0 0 2 2 2 0 0 0 0 0 0 0 0 0 0 0 0 0 0 0 0 0 0 0 0 0 0 0 0 0 0 0 0 0 0 0 0 0 0 0 0
3 0 4 3 0 1 1 0 0 0 0 0 0 0 0 0 0 0 0 0 0 0 0 0 0 0 0 0 0 0 0 0 0 0 0 0 0 0 0 0 0 0 0 0 0
0 3 0 1 0 0 3 0 0 0 0 0 0 0 0 0 0 0 0 0 0 0 0 0 0 0 0 0 0 0 0 0 0 0 0 0 0 0 0 0 0 0 0 0 0
0 0 1 0 0 0 24 0 0 0 0 0 0 0 0 0 0 0 14 0 0 0 0 0 0 0 0 0 0 0 0 0 0 0 0 0 0 0 0 0 0 0 0 0 0
0 0 0 0 0 6 21 0 0 0 3 0 0 0 0 0 0 8 15 2 0 0 0 0 0 0 0 0 0 0 0 0 0 0 0 0 0 0 0 0 0 0 0 0 0
0 0 0 0 0 19 0 0 0 0 0 0 0 0 0 0 0 2 0 0 0 0 0 0 0 0 0 0 0 0 0 0 0 0 0 0 0 0 0 0 0 0 0 0 0
0 0 2 2 0 0 0 0 0 1 0 0 0 0 0 0 0 0 0 0 0 0 0 0 0 0 0 0 0 0 0 0 0 0 0 0 0 0 0 0 0 0 0 0 0
0 0 0 0 0 0 0 0 0 0 0 0 0 0 0 0 0 0 0 0 0 0 0 0 0 0 0 0 0 0 0 0 0 0 0 0 0 0 0 0 0 0 0 0 0
0 0 0 0 0 0 0 0 0 0 0 0 0 0 0 0 0 0 0 0 0 0 0 0 0 0 0 0 0 0 0 0 0 0 0 0 0 0 0 0 0 0 0 0 0
0 0 0 0 0 0 0 0 0 0 0 0 0 0 0 0 0 0 0 0 0 0 0 0 0 0 0 0 0 0 0 0 0 0 0 0 0 0 0 0 0 0 0 0 0
0 0 0 0 0 0 0 0 0 0 0 0 0 0 0 0 0 0 0 0 0 0 0 0 0 0 0 0 0 0 0 0 0 0 0 0 0 0 0 0 0 0 0 0 0
0 0 0 0 0 0 0 0 0 0 0 0 0 0 0 0 0 0 0 0 0 0 0 0 0 0 0 0 0 0 0 0 0 0 0 0 0 0 0 0 0 0 0 0 0

GFSSW_con_mucape_003.txt.gz
CAPE
11 28 32 59 50 54 47 63 42 40 60 56 36 10 16 26 28 23 0 1 0 0 0 0 0 0 0 0 0 0 0 0 0 0 0 0 0 0 0 0 0 0 0 0 11
6 38 52 66 127 106 90 74 70 62 51 48 24 1 6 54 20 0 0 0 94 198 0 0 0 0 0 0 0 0 0 0 0 0 0 0 0 0 0 0 0 0 0 0 0
5 4 65 98 136 136 131 109 99 82 51 33 25 2 35 66 0 0 0 1 87 296 5 2 30 9 0 0 0 0 0 0 0 0 0 0 0 0 0 0 0 0 0 2 0
42 0 12 63 152 245 224 205 113 82 37 3 4 23 104 55 0 0 0 0 82 182 91 32 15 0 0 0 0 0 0 0 0 0 0 0 0 0 0 0 0 0 0 0 0
58 11 1 38 123 253 237 270 226 100 60 28 21 96 66 0 0 5 0 6 56 128 74 19 27 12 0 0 0 0 0 0 0 0 0 0 0 0 0 0 0 0 0 0 0
57 44 59 106 126 101 114 245 217 91 59 69 88 138 46 0 0 14 17 0 46 86 74 45 44 7 0 0 0 0 0 0 0 0 0 0 0 0 0 0 0 0 0 0 0
69 59 58 60 121 209 210 181 143 100 169 190 205 101 35 0 0 24 14 58 60 83 46 26 30 11 0 0 0 0 0 0 0 0 0 0 0 0 0 0 0 0 0 0 0
52 38 21 49 116 159 184 172 173 252 213 202 198 80 7 0 0 27 26 29 90 79 78 94 44 36 16 3 0 0 0 0 0 0 0 0 0 0 0 0 0 0 0 0 0
0 4 0 0 6 53 76 94 224 255 213 167 89 56 17 12 2 41 13 71 65 66 36 75 39 25 18 0 0 0 0 0 0 0 0 0 0 0 0 0 0 0 0 0 0
12 53 17 9 43 104 61 147 72 72 118 53 24 72 1 1 16 39 52 78 32 36 62 41 71 6 24 4 0 0 0 0 0 0 0 0 0 0 0 0 0 0 0 0 0
60 64 61 57 70 81 71 95 0 0 11 0 0 0 1 10 25 82 91 117 76 75 44 13 22 0 3 0 0 0 0 0 0 0 0 0 0 0 0 0 0 0 0 0 0
0 0 27 15 88 97 68 29 35 0 0 0 0 6 79 103 64 64 126 72 36 19 25 8 4 4 0 0 0 0 0 0 0 0 0 0 0 0 0 0 0 0 0 0 0
4 5 0 2 26 89 60 28 2 10 12 42 0 72 100 69 105 59 87 62 41 52 44 0 2 0 8 0 0 0 0 0 0 0 0 0 0 0 0 0 0 0 0 0 0
2 0 0 0 0 21 62 3 1 0 0 0 0 2 91 0 35 16 9 45 81 86 75 24 8 3 0 0 0 0 0 0 0 0 0 0 0 0 0 0 0 0 0 0 0
12 12 5 18 0 0 0 0 0 1 0 0 0 25 63 0 0 1 20 46 92 48 6 13 0 0 0 0 0 0 0 0 0 0 0 0 0 0 0 0 0 0 0 0 0
6 3 9 0 0 0 1 0 0 0 0 0 0 5 0 0 1 0 17 3 67 9 5 0 0 0 0 0 0 0 0 0 0 0 0 0 0 0 0 0 0 0 0 0 0
5 5 6 5 0 3 0 0 0 0 0 0 0 0 0 0 11 8 0 19 0 2 3 0 0 0 0 0 0 0 0 0 0 0 0 0 0 0 0 0 0 0 0 0 0
4 1 0 0 3 9 4 5 0 0 0 0 0 0 0 0 0 0 0 0 0 0 0 0 0 0 0 0 0 0 0 0 0 0 0 0 0 0 0 0 0 0 0 0 0
0 0 1 0 0 9 0 0 0 0 0 0 0 0 0 0 0 0 0 1 0 0 0 0 0 0 0 0 0 0 0 0 0 0 0 0 0 0 0 0 0 0 0 0 0
0 0 0 0 0 38 0 0 0 0 0 0 0 0 0 1 0 0 0 18 1 0 0 0 0 0 0 0 0 0 0 0 0 0 0 0 0 0 0 0 0 0 0 0 0
0 0 2 2 7 15 0 2 0 0 0 0 0 0 0 0 0 0 0 2 4 11 10 4 0 0 0 0 0 0 0 0 0 0 0 0 0 0 0 0 0 0 0 0 0
0 0 18 5 3 0 0 0 0 0 0 0 0 0 0 0 0 0 0 3 0 7 1 4 0 0 0 0 0 0 0 0 0 0 0 0 0 0 0 0 0 0 0 0 0
0 4 20 6 0 0 0 0 0 0 0 0 0 0 0 0 0 10 6 8 0 0 0 0 0 0 0 0 0 0 0 0 0 0 0 0 0 0 0 0 0 0 0 0 0
0 0 0 0 0 0 0 0 0 0 0 0 0 0 0 0 3 8 0 0 0 0 0 0 0 0 0 0 0 0 0 0 0 0 0 0 0 0 0 0 0 0 0 0 0
0 0 0 0 0 0 0 0 0 0 0 0 0 0 0 0 0 0 0 0 0 0 0 0 0 0 0 0 0 0 0 0 0 0 0 0 0 0 0 0 0 0 0 0 0
0 0 0 0 0 0 0 0 0 0 0 0 0 0 0 0 0 0 0 0 0 0 0 0 0 0 0 0 0 0 0 0 0 0 0 0 0 0 0 0 0 0 0 0 0
0 0 0 0 0 0 0 0 0 0 0 0 0 1 0 0 0 0 0 0 0 0 0 0 0 0 0 0 0 0 0 0 0 0 0 0 0 0 0 0 0 0 0 0 0

GFSSW_con_mucape_006.txt.gz
CAPE
4 8 10 16 21 50 62 51 65 65 76 56 46 26 22 9 24 29 0 0 0 54 103 0 0 0 0 0 0 0 0 0 0 0 0 0 0 0 0 0 0 0 0 0 0
1 4 13 29 38 80 96 74 71 82 90 88 65 36 33 37 4 0 0 0 0 245 8 0 0 0 0 0 0 0 0 0 0 0 0 0 0 0 0 0 0 0 0 0 0
3 2 1 17 60 61 106 99 91 87 99 100 68 43 61 48 0 0 0 0 0 163 108 0 4 15 0 0 0 0 0 0 0 0 0 0 0 0 0 0 0 0 0 0 0
1 0 0 17 56 53 106 116 127 87 94 110 85 53 94 62 0 0 0 0 0 42 67 12 11 5 0 0 0 0 0 0 0 0 0 0 0 0 0 0 0 0 0 0 0
3 16 21 13 12 24 148 151 154 175 124 106 93 112 59 0 0 0 0 0 0 89 91 13 13 9 0 0 0 0 0 0 0 0 0 0 0 0 0 0 0 0 0 0 0
46 82 50 42 33 12 61 126 232 233 166 144 132 159 52 0 0 2 0 0 0 66 134 24 11 7 1 0 0 0 0 0 0 0 0 0 0 0 0 0 0 0 0 0 0
42 54 60 46 37 54 118 129 198 227 213 163 170 84 48 0 0 14 2 5 5 31 28 20 31 34 14 0 1 0 0 0 0 0 0 0 0 0 0 0 0 0 0 0 0
45 45 48 31 44 92 156 285 235 267 199 238 236 70 1 0 0 13 7 11 22 59 106 84 65 11 20 1 0 0 0 0 0 0 0 0 0 0 0 0 0 0 0 0 0
57 47 31 2 0 35 101 162 239 291 322 277 121 35 0 83 0 14 9 0 6 51 114 56 60 32 25 8 14 4 0 0 0 0 0 0 0 0 0 0 0 0 0 0 0
50 67 82 24 17 50 125 165 150 223 204 144 65 38 0 0 0 20 15 7 58 32 114 83 31 39 42 21 0 0 0 0 0 0 0 0 0 0 0 0 0 0 0 0 0
1 45 40 72 71 93 66 94 0 22 70 9 0 9 15 2 43 38 51 25 77 74 54 62 5 26 8 5 0 3 0 0 0 0 0 0 0 0 0 0 0 0 0 0 0
4 2 3 53 43 81 35 71 0 1 22 0 5 10 136 43 10 34 121 59 53 0 42 50 31 0 11 0 0 3 0 0 0 0 0 0 0 0 0 0 0 0 0 0 0
3 3 5 6 4 48 0 0 0 4 1 51 46 0 96 105 92 63 100 60 2 0 41 3 0 0 0 3 16 1 0 0 0 0 0 0 0 0 0 0 0 0 0 0 0
4 0 1 0 0 47 32 23 28 41 70 21 46 43 93 146 98 107 46 14 60 0 37 2 2 0 12 7 4 0 0 0 0 0 0 0 0 0 0 0 0 0 0 0 0
15 4 1 1 0 0 0 0 4 7 0 0 0 52 97 92 57 54 50 23 21 2 26 1 0 3 19 0 0 0 0 0 0 0 0 0 0 0 0 0 0 0 0 0 0
6 4 0 1 0 0 1 0 0 0 0 0 0 0 0 10 43 35 18 9 33 16 34 11 1 22 0 0 0 0 0 0 0 0 0 0 0 0 0 0 0 0 0 0 0
2 2 3 1 0 1 0 0 0 0 0 0 0 0 0 4 12 1 0 11 12 0 0 16 9 6 0 0 0 0 0 0 0 0 0 0 0 0 0 0 0 0 0 0 0
0 0 1 1 5 1 0 0 0 0 0 0 0 0 0 0 1 2 0 11 25 0 0 0 1 5 0 0 0 0 0 0 0 0 0 0 0 0 0 0 0 0 0 0 0
0 0 0 7 9 3 1 0 0 0 0 0 0 0 0 0 0 0 0 15 2 0 0 0 0 0 0 0 0 0 0 0 0 0 0 0 0 0 0 0 0 0 0 0 0
0 0 0 10 25 0 0 0 0 0 0 0 0 0 0 0 0 0 0 2 4 0 0 0 0 0 0 0 0 0 0 0 0 0 0 0 0 0 0 0 0 0 0 0 0
0 0 13 7 44 4 0 0 0 0 6 0 0 0 0 0 0 0 0 0 3 0 0 0 0 0 0 0 0 0 0 0 0 0 0 0 0 0 0 0 0 0 0 0 0
0 0 13 16 7 7 0 0 0 0 0 0 0 0 0 0 0 1 0 0 6 2 0 0 0 0 0 0 0 0 0 0 0 0 0 0 0 0 0 0 0 0 0 0 0
0 2 13 33 5 0 0 0 0 0 0 0 0 0 26 0 0 0 0 0 1 6 0 0 0 0 0 0 0 0 0 0 0 0 0 0 0 0 0 0 0 0 0 0 0
0 0 1 1 0 2 0 0 0 0 0 0 0 0 0 0 0 0 0 8 27 12 9 8 0 0 0 0 0 0 0 0 0 0 0 0 0 0 0 0 0 0 0 0 0
0 0 0 0 0 0 0 0 0 0 0 0 0 0 12 0 0 9 14 14 18 12 0 0 0 0 0 0 0 0 0 0 0 0 0 0 0 0 0 0 0 0 0 0 0
0 0 0 0 0 0 0 0 0 0 0 0 0 11 30 0 14 17 8 4 0 0 0 0 0 0 0 0 0 0 0 0 0 0 0 0 0 0 0 0 0 0 0 0 0
0 0 0 0 0 0 0 0 0 0 0 0 0 0 0 0 0 5 2 0 0 0 3 3 1 0 6 3 0 0 0 0 0 0 0 0 0 0 0 0 0 0 0 0 0

GFSSW_con_mucape_009.txt.gz
CAPE
0 0 4 5 3 1 5 11 73 83 86 59 77 80 49 40 27 6 0 0 0 16 232 4 2 0 0 0 0 0 0 0 0 0 0 0 0 0 0 0 0 0 0 0 0
0 1 2 7 5 7 1 29 85 122 95 82 72 79 62 39 0 0 0 0 0 27 53 0 0 2 0 0 0 0 0 0 0 0 0 0 0 0 0 0 0 0 0 0 0
4 5 6 7 9 28 43 58 99 107 127 100 98 93 74 34 0 0 0 0 0 13 42 0 3 24 4 0 0 0 0 0 0 0 0 0 0 0 0 0 0 0 0 0 0
8 3 0 0 3 4 53 89 110 118 143 125 137 139 114 3 0 0 0 0 0 14 66 70 18 7 0 0 0 0 0 0 0 0 0 0 0 0 0 0 0 0 0 0 0
3 9 1 0 0 0 1 89 151 189 211 174 153 138 65 25 0 0 0 0 0 19 38 53 28 0 0 0 0 0 0 0 0 0 0 0 0 0 0 0 0 0 0 0 0
24 29 29 27 0 18 6 54 222 332 274 216 201 194 60 0 0 0 0 0 0 3 64 59 10 0 0 2 0 0 0 0 0 0 0 0 0 0 0 0 0 0 0 0 0
48 43 36 22 44 58 48 43 99 311 335 228 238 83 50 0 0 0 4 0 0 0 79 49 7 25 9 12 0 0 0 0 0 0 0 0 0 0 0 0 0 0 0 0 0
47 35 29 26 47 63 71 87 122 331 369 310 277 84 5 0 0 0 5 2 0 14 92 128 36 29 19 20 13 1 4 0 0 0 0 0 0 0 0 0 0 0 0 0 0
0 23 66 80 31 0 34 90 141 217 349 337 137 61 0 1 0 2 1 0 0 0 47 81 63 26 31 36 11 6 0 0 0 0 0 0 0 0 0 0 0 0 0 0 0
0 0 47 56 66 35 47 89 112 150 174 142 97 45 11 1 0 15 6 0 26 0 99 108 60 19 14 14 0 0 0 0 0 0 0 0 0 0 0 0 0 0 0 0 0
1 0 0 29 71 92 66 0 0 74 61 0 29 21 0 2 38 20 13 0 33 5 46 98 7 0 0 0 0 1 0 0 0 0 0 0 0 0 0 0 0 0 0 0 0
4 1 1 11 63 70 26 0 0 0 36 18 34 11 26 106 106 50 10 0 0 0 152 138 0 0 3 4 6 15 0 0 0 0 0 0 0 0 0 0 0 0 0 0 0
1 1 2 59 49 31 0 0 57 6 5 23 5 16 28 95 38 102 21 28 0 0 20 17 21 2 0 0 25 10 0 0 0 0 0 0 0 0 0 0 0 0 0 0 0
1 5 4 9 0 20 0 0 52 57 2 0 43 63 20 42 61 107 34 38 3 0 0 48 16 4 6 1 18 14 5 1 0 0 0 0 0 0 0 0 0 0 0 0 0
10 3 1 0 0 0 1 0 46 16 0 1 58 156 174 37 70 96 114 95 0 0 41 11 13 12 6 0 0 0 10 0 0 0 0 0 0 0 0 0 0 0 0 0 0
4 4 6 0 0 8 36 0 0 1 10 0 22 17 65 46 61 0 14 36 7 9 28 6 18 43 0 2 10 2 0 0 0 0 0 0 0 0 0 0 0 0 0 0 0
8 7 3 0 0 0 8 0 2 6 1 0 3 24 0 11 3 54 3 20 0 0 0 0 9 9 2 1 17 0 0 0 0 0 0 0 0 0 0 0 0 0 0 0 0
0 0 16 0 6 0 0 0 0 0 0 0 0 0 0 1 24 55 0 0 0 0 0 0 0 1 0 8 0 0 0 0 0 0 0 0 0 0 0 0 0 0 0 0 0
0 0 0 6 1 0 0 0 0 0 0 0 1 0 0 0 0 0 0 14 0 0 0 0 0 0 0 0 0 0 0 0 0 0 0 0 0 0 0 0 0 0 0 0 0
0 0 11 38 5 0 0 0 0 0 2 0 0 0 0 0 0 0 3 5 0 0 0 0 0 8 0 0 0 0 0 0 0 0 0 0 0 0 0 0 0 0 0 0 0
0 0 4 31 44 2 0 0 0 0 0 0 0 0 0 0 2 0 1 0 1 0 0 0 0 0 1 0 0 0 0 0 0 0 0 0 0 0 0 0 0 0 0 0 0
0 0 16 20 21 4 0 0 0 0 19 2 0 0 0 0 1 0 0 0 0 1 0 0 0 0 0 0 0 0 0 0 0 0 0 0 0 0 0 0 0 0 0 0 0
0 0 12 20 0 10 0 0 0 1 0 0 0 0 2 0 0 0 0 0 0 0 3 0 0 0 0 0 0 0 0 0 0 0 0 0 0 0 0 0 0 0 0 0 0
0 0 0 2 0 10 0 0 0 8 0 0 16 37 33 29 5 0 0 0 0 6 38 11 0 0 0 0 0 0 0 0 0 0 0 0 0 0 0 0 0 0 0 0 0
0 0 0 0 0 1 0 0 0 0 0 0 23 0 14 1 0 0 1 0 1 27 41 35 0 0 0 0 0 0 0 0 0 0 0 0 0 0 0 0 0 0 0 0 0
0 0 0 0 0 0 0 0 0 0 0 0 0 0 0 0 0 0 0 9 1 4 25 1 0 0 0 0 0 0 0 0 0 0 0 0 0 0 0 0 0 0 0 0 0
0 0 0 0 0 0 0 0 0 0 0 0 2 7 0 0 3 14 26 27 38 41 42 6 2 0 0 0 0 0 0 0 0 0 0 0 0 0 0 0 0 0 0 0 0

GFSSW_con_mucape_012.txt.gz
CAPE
0 0 1 4 3 2 0 1 18 77 109 122 71 59 110 61 29 0 0 0 0 2 185 25 20 1 0 0 0 0 0 0 0 0 0 0 0 0 0 0 0 0 0 0 0
0 1 3 4 5 9 8 1 12 35 65 107 123 98 100 58 8 0 0 0 0 7 1 12 16 17 0 0 0 0 0 0 0 0 0 0 0 0 0 0 0 0 5 0 0
0 10 7 5 5 5 15 14 18 34 59 92 106 122 127 20 1 0 0 0 0 0 30 21 15 51 0 0 0 0 0 0 0 0 0 0 0 0 0 0 0 0 0 0 0
0 20 17 5 1 2 2 31 12 44 56 71 94 154 153 36 0 17 0 0 0 0 49 64 36 31 0 0 0 0 0 0 0 0 0 0 0 0 0 0 0 0 0 0 0
0 13 25 27 1 0 0 4 24 52 66 108 184 198 61 36 0 3 1 0 0 0 23 47 27 16 0 0 0 0 0 0 0 0 0 0 0 0 0 0 0 0 0 0 0
0 42 40 43 52 7 3 0 0 25 55 180 287 216 29 0 0 0 0 0 0 0 9 67 17 0 1 0 0 0 0 0 0 0 0 0 0 0 0 0 0 0 0 0 0
0 60 52 30 20 30 31 13 0 28 75 201 381 82 8 0 0 0 0 0 0 1 6 57 19 18 14 11 0 6 0 0 0 0 0 0 0 0 0 0 0 0 0 0 0
0 52 51 47 8 28 18 38 25 35 54 266 385 36 0 0 0 0 0 0 0 1 0 166 94 19 23 27 17 13 5 0 0 0 0 0 0 0 0 0 0 0 0 0 0
9 6 2 52 57 35 21 41 71 67 78 232 147 21 16 0 0 0 0 0 5 1 42 155 67 43 32 31 8 11 0 0 0 0 0 0 0 0 0 0 0 0 0 0 0
7 6 1 0 44 71 40 25 43 57 49 36 109 7 0 0 2 0 0 10 3 0 48 118 66 28 15 14 0 0 0 0 0 0 0 0 0 0 0 0 0 0 0 0 0
8 2 2 1 37 73 15 0 0 0 0 0 0 0 4 6 38 3 2 20 35 0 0 85 60 14 0 0 0 3 0 0 0 0 0 0 0 0 0 0 0 0 0 0 0
8 4 1 0 22 73 4 0 0 0 0 0 36 11 45 45 115 45 22 0 0 0 0 231 26 0 0 1 5 6 11 0 0 0 0 0 0 0 0 0 0 0 0 0 0
4 4 0 22 69 59 0 0 0 0 0 0 0 37 25 36 52 59 3 0 0 0 0 55 21 10 0 0 5 0 0 0 0 0 0 0 0 0 0 0 0 0 0 0 0
2 4 1 0 9 0 0 0 32 0 0 0 3 8 35 34 37 91 23 0 0 0 0 27 34 27 0 0 0 0 0 10 5 0 0 0 0 0 0 0 0 0 0 0 0
0 2 2 0 0 0 0 0 0 2 0 0 11 28 18 0 46 69 9 0 0 0 0 32 10 13 10 0 0 0 11 17 19 2 0 0 0 0 0 0 0 0 0 0 0
43 21 1 0 0 0 0 0 0 0 3 0 16 26 10 1 62 86 54 66 13 0 0 0 15 51 87 5 0 0 15 16 6 0 0 0 0 0 0 0 0 0 0 0 0
4 35 0 0 0 0 0 0 0 0 0 0 2 28 0 1 26 19 0 0 3 0 0 0 15 23 4 9 1 1 0 0 0 0 0 0 0 0 0 0 0 0 0 0 0
0 21 14 0 1 0 0 0 0 0 0 0 0 0 0 16 0 4 0 0 3 0 0 0 0 35 0 2 0 1 0 0 0 0 0 0 0 0 0 0 0 0 0 0 0
11 0 0 1 9 0 0 0 0 0 0 0 0 0 0 0 43 0 0 0 0 0 0 0 0 0 0 0 8 10 0 0 0 0 0 0 0 0 0 0 0 0 0 0 0
0 0 0 6 7 0 0 0 1 0 0 0 0 0 0 0 2 0 0 0 0 0 0 0 0 0 0 4 1 0 0 0 0 0 0 0 0 0 0 0 0 0 0 0 0
0 0 0 17 0 0 0 0 0 0 0 0 0 0 1 0 0 0 0 0 0 0 0 0 0 0 6 0 0 0 0 0 0 0 0 0 0 0 0 0 0 0 0 0 0
0 0 1 0 1 1 0 0 0 0 34 48 0 0 0 0 0 0 0 0 0 0 0 0 0 0 0 0 0 0 0 0 0 0 0 0 0 0 0 0 0 0 0 0 0
0 0 4 11 0 0 0 0 0 0 0 0 0 5 0 0 0 7 1 0 0 0 0 0 0 0 0 0 0 0 0 0 0 0 0 0 0 0 0 0 0 0 0 0 0
0 0 3 6 0 0 0 0 0 0 0 0 0 8 0 0 0 2 0 0 0 0 0 0 0 0 0 0 0 0 0 0 0 0 0 0 0 0 0 0 0 0 0 0 0
0 0 0 0 0 0 0 0 0 0 0 0 22 0 0 0 0 0 0 0 0 0 0 0 0 0 0 0 0 0 0 0 0 0 0 0 0 0 0 0 0 0 0 0 0
0 0 2 0 0 2 0 0 0 0 0 0 9 13 5 0 0 0 0 0 0 0 25 19 0 0 0 0 0 0 0 0 0 0 0 0 0 0 0 0 0 0 0 0 0
0 0 0 0 2 5 0 0 0 0 5 0 0 13 3 2 6 12 1 0 0 0 0 2 0 0 0 0 0 0 0 0 0 0 0 0 0 0 0 0 0 0 0 0 0

GFSSW_con_mucape_015.txt.gz
CAPE
0 0 0 0 3 4 1 0 0 5 50 77 82 86 94 83 31 0 0 0 0 28 24 24 6 11 0 0 0 0 0 0 0 0 0 0 0 0 0 0 4 1 5 3 1
0 0 0 0 2 6 7 3 0 0 5 35 60 83 87 58 9 0 0 0 0 0 2 9 29 23 0 0 0 0 0 0 0 0 0 0 0 0 0 0 0 0 1 3 10
0 0 0 0 1 8 10 22 14 4 16 38 56 77 83 18 14 0 0 0 2 0 0 70 31 32 9 0 0 0 0 0 0 0 0 0 0 0 0 0 0 0 0 1 2
0 0 0 0 1 1 5 5 26 23 24 42 59 82 85 34 0 1 0 0 3 1 0 21 57 45 29 0 0 0 0 0 0 0 0 0 0 0 0 0 0 0 0 0 0
0 0 0 0 2 0 0 0 5 15 36 38 52 71 20 38 3 11 8 3 0 6 0 28 47 53 27 0 0 0 0 0 0 0 0 0 0 0 0 0 0 0 0 0 0
0 0 0 0 4 45 16 1 0 10 38 39 82 72 7 10 0 0 8 1 1 9 0 15 52 27 34 7 1 0 0 0 0 0 0 0 0 0 0 0 0 0 0 0 0
0 0 8 14 47 29 42 29 7 0 33 63 90 35 21 0 0 0 0 0 0 5 0 11 45 20 21 24 1 0 0 0 0 0 0 0 0 0 0 0 0 0 0 0 0
0 0 3 5 49 41 21 28 32 18 1 68 94 29 4 0 0 0 0 0 0 3 0 6 70 30 16 37 20 14 18 0 0 0 0 0 0 0 0 0 0 0 0 0 0
0 4 7 14 12 63 66 42 40 59 35 54 24 26 0 1 12 0 0 0 26 56 13 21 73 61 41 0 0 15 0 0 0 0 0 0 0 0 0 0 0 0 0 0 0
0 0 7 11 5 56 69 4 6 27 30 32 37 18 0 3 30 0 0 0 69 66 26 19 80 49 1 0 0 0 0 0 0 0 0 0 0 0 0 0 0 0 0 0 0
0 0 0 0 0 0 54 1 0 0 0 0 0 0 20 29 95 8 0 0 22 13 0 0 149 38 0 0 0 0 0 0 0 0 0 0 0 0 0 0 0 0 0 0 0
0 0 2 1 1 7 29 0 0 0 0 0 0 1 29 72 173 94 8 0 8 0 0 0 69 16 0 2 0 0 0 0 0 0 0 0 0 0 0 0 0 0 0 0 0
0 0 1 3 10 56 0 0 0 0 0 0 0 3 74 8 33 70 2 7 30 0 0 5 15 15 0 0 9 0 0 0 0 0 0 0 0 0 0 0 0 0 0 0 0
11 0 32 1 0 0 0 0 0 0 0 0 0 0 97 106 11 9 1 4 14 0 0 18 53 2 0 0 0 0 0 0 0 0 0 0 0 0 0 0 0 0 0 0 0
41 52 56 0 0 0 0 0 0 0 0 0 0 8 63 8 12 54 0 3 0 0 0 0 19 12 0 0 0 0 0 6 11 10 1 0 0 0 0 0 0 0 0 0 0
32 55 53 13 12 0 0 0 0 0 0 0 10 30 30 22 37 85 0 5 53 0 0 41 66 28 20 1 0 1 4 6 2 19 0 0 0 0 0 0 0 0 0 0 0
32 54 47 31 0 14 0 0 0 0 0 0 0 25 0 0 0 21 12 0 0 0 7 20 53 45 32 34 17 20 0 0 0 0 0 0 0 0 0 0 0 0 0 0 0
22 35 19 5 42 0 0 0 0 0 0 0 0 2 0 0 16 32 0 0 0 0 9 3 12 0 4 12 9 15 0 4 0 0 0 0 0 0 0 0 0 0 0 0 0
15 7 0 0 0 0 0 0 0 0 0 0 0 0 0 0 0 18 0 0 0 0 0 0 0 9 0 0 1 24 0 0 0 0 0 0 0 0 0 0 0 0 0 0 0
1 1 0 0 4 0 0 0 0 0 0 0 0 0 0 0 0 5 0 0 0 0 0 0 0 0 27 33 34 5 0 3 0 0 0 0 0 0 0 0 0 0 0 0 0
0 0 1 11 0 0 0 0 0 0 0 0 0 0 0 0 0 0 0 0 0 0 0 0 0 0 1 11 2 2 0 0 0 0 0 0 0 0 0 0 0 0 0 0 0
0 11 3 0 0 0 0 0 0 0 0 0 7 0 0 0 0 0 0 0 0 0 0 0 0 0 0 0 0 12 0 0 0 0 0 0 0 0 0 0 0 0 0 0 0
0 3 2 3 0 0 0 0 0 0 0 3 16 13 0 5 0 20 0 0 0 0 0 0 0 1 2 0 0 0 0 0 0 0 0 0 0 0 0 0 0 0 0 0 0
0 2 1 7 0 0 0 0 0 0 0 18 1 1 0 16 27 0 0 0 0 0 0 0 5 4 1 3 0 0 0 0 0 0 0 0 0 0 0 0 0 0 0 0 0
0 0 0 0 0 0 0 0 0 0 7 3 0 0 0 10 24 0 0 0 0 0 0 0 5 0 0 0 0 0 0 0 0 0 0 0 0 0 0 0 0 0 0 0 0
0 0 0 0 0 0 9 0 0 0 0 0 12 0 30 0 0 0 0 0 0 0 0 0 0 0 0 5 0 0 0 0 0 0 0 0 0 0 0 0 0 0 0 0 0
0 0 0 1 0 0 8 0 0 0 0 0 0 0 0 0 0 0 0 0 0 0 0 0 0 0 0 15 0 0 0 0 0 0 0 0 0 0 0 0 0 0 0 0 0

GFSSW_con_mucape_018.txt.gz
CAPE
0 0 0 0 0 0 0 0 0 1 10 21 50 28 60 74 43 17 4 0 0 0 13 0 49 177 47 0 0 0 0 0 0 0 0 0 0 0 0 0 0 0 1 0 0
0 0 0 0 0 0 0 0 0 0 0 1 19 17 45 55 39 22 0 0 0 0 0 2 54 174 99 0 0 0 0 0 0 0 0 0 0 0 0 0 0 0 0 6 4
0 0 0 0 0 0 2 1 6 0 0 0 8 4 35 42 15 1 0 8 28 15 2 0 42 45 128 3 1 0 0 0 0 0 0 0 0 0 0 0 0 0 0 4 6
0 0 0 0 0 0 0 1 1 22 15 13 30 39 59 33 0 40 1 0 0 13 13 0 18 40 64 48 4 0 0 0 0 0 0 0 0 0 0 0 0 0 0 0 0
0 0 0 0 0 0 0 0 0 9 20 27 39 58 44 15 1 11 7 0 0 0 16 0 34 61 81 102 23 0 1 0 0 0 0 0 0 0 0 0 0 0 0 0 0
0 0 0 0 0 0 4 0 0 0 45 50 58 71 17 0 0 0 0 0 0 1 19 6 38 42 82 83 52 2 0 0 0 0 0 0 0 0 0 0 0 0 0 0 0
0 0 0 0 0 4 0 17 12 11 17 57 72 54 8 0 0 0 0 0 0 0 4 24 32 103 59 100 32 40 16 1 0 0 0 0 0 0 0 0 0 0 0 0 0
7 0 0 0 0 9 1 12 40 73 7 43 63 59 0 0 0 0 0 0 0 0 0 7 18 70 62 67 31 47 50 58 0 3 0 0 0 0 0 0 0 0 0 0 0
12 0 0 0 0 0 0 45 41 68 58 42 43 32 0 0 0 0 0 0 5 6 0 5 20 85 122 42 30 27 46 24 4 0 0 0 0 0 0 0 0 0 0 0 0
13 30 0 0 1 3 1 30 2 20 39 3 47 6 0 0 0 0 0 0 17 280 90 133 9 136 185 54 38 1 41 2 11 0 0 0 0 0 0 0 0 0 0 0 0
16 57 0 3 5 2 2 0 0 0 0 0 0 0 0 0 3 0 8 9 17 254 58 140 7 0 24 40 42 0 0 0 11 0 0 0 0 0 0 0 0 0 0 0 0
11 55 55 0 5 5 1 0 0 1 0 0 0 0 12 6 64 44 57 2 24 46 49 39 3 27 34 50 0 0 0 0 10 0 0 0 0 0 0 0 0 0 0 0 0
4 46 41 25 5 1 0 0 8 4 0 0 0 0 0 6 29 131 100 1 1 6 1 2 0 1 74 28 23 0 0 0 2 0 0 0 0 0 0 0 0 0 0 0 0
6 40 59 55 30 1 0 0 0 0 0 0 0 0 6 68 29 18 80 0 61 0 0 4 64 57 41 17 0 4 0 0 0 31 30 0 0 0 0 0 0 0 0 0 0
0 51 67 37 31 3 0 0 10 0 0 0 0 8 4 24 61 0 109 9 23 0 0 7 15 50 52 10 26 4 16 2 32 22 0 3 0 0 0 0 0 0 0 0 0
0 46 54 64 50 35 0 0 0 0 0 0 0 0 19 20 1 87 67 19 29 17 0 0 1 36 93 40 1 14 6 0 4 13 0 1 0 0 0 0 0 0 0 0 0
0 0 42 15 33 44 0 0 0 0 0 0 0 0 12 17 0 37 26 0 3 0 0 0 0 48 87 11 9 14 53 38 0 0 0 0 0 0 0 0 0 0 0 0 0
0 1 23 3 51 55 0 0 0 0 0 0 0 10 0 29 0 30 7 0 0 0 0 0 17 17 38 15 6 1 18 16 0 0 0 0 0 0 0 0 0 0 0 0 0
0 0 1 14 61 38 0 0 0 0 0 0 0 0 0 18 4 10 2 14 0 0 23 2 1 1 0 0 21 0 14 0 0 0 0 0 0 0 0 0 0 0 0 0 0
0 1 0 0 0 0 0 0 0 0 0 0 0 0 0 0 0 0 0 0 0 0 0 1 1 9 45 8 17 2 1 0 0 0 0 0 0 0 0 0 0 0 0 0 0
2 0 0 11 5 0 0 0 0 0 0 0 0 0 0 0 0 0 0 0 0 0 0 0 0 20 1 4 0 0 7 0 0 0 0 0 0 0 0 0 0 0 0 0 0
8 0 3 14 0 0 0 0 0 0 0 0 0 0 0 0 0 0 0 0 0 0 0 0 0 0 1 0 0 0 0 1 0 0 0 0 0 0 0 0 0 0 0 0 0
0 0 14 13 0 0 0 0 0 0 0 0 0 0 0 0 0 0 0 0 0 0 0 0 0 0 0 0 33 0 0 1 0 0 0 0 0 0 0 0 0 0 0 0 0
0 0 2 6 0 0 0 0 0 0 0 2 10 33 0 0 2 0 0 0 0 0 0 0 0 0 0 0 0 0 3 0 0 0 0 0 0 0 0 0 0 0 0 0 0
0 1 6 0 0 0 0 0 0 0 0 0 41 3 0 0 9 11 25 0 0 0 0 0 0 0 0 0 0 0 0 0 0 0 0 0 0 0 0 0 0 0 0 0 0
0 0 0 0 0 0 1 0 0 0 0 0 1 0 0 0 7 3 13 0 0 0 0 0 4 0 0 0 0 0 0 0 0 0 0 0 0 0 0 0 0 0 0 0 0
8 0 0 0 0 0 2 4 0 0 0 0 1 0 0 0 2 9 3 0 1 0 0 0 0 1 1 0 0 0 0 0 0 0 0 0 0 0 0 0 0 0 0 0 0

GFSSW_con_mucape_021.txt.gz
CAPE
0 0 0 0 0 0 0 0 0 3 5 1 16 40 65 84 7 0 0 0 0 0 0 0 0 60 140 78 2 0 6 5 0 0 0 0 0 0 0 0 0 0 0 0 0
2 0 0 0 0 0 0 0 0 0 0 0 3 11 50 35 38 22 0 0 0 0 0 0 0 5 195 90 19 0 2 0 0 1 0 1 0 0 0 0 0 0 0 0 0
5 0 0 0 0 0 0 0 0 0 0 0 0 31 9 36 23 6 0 1 13 10 0 0 0 39 62 185 33 29 7 1 0 2 0 0 0 0 0 0 0 0 0 0 0
4 0 0 0 0 0 0 0 0 0 6 1 18 45 60 28 0 38 0 0 3 14 3 1 0 7 35 86 66 45 22 1 9 3 0 0 0 0 0 0 0 0 0 0 0
4 0 0 0 0 0 0 0 0 0 0 26 34 54 40 0 0 33 0 0 0 0 8 4 0 0 5 14 141 40 24 15 4 6 0 0 0 0 0 0 0 0 0 0 0
1 8 0 0 0 0 0 0 0 0 0 3 49 75 18 0 0 4 29 0 0 1 11 22 7 0 9 7 25 27 24 14 23 8 0 0 0 0 0 0 0 0 0 0 0
1 7 24 0 0 0 0 0 0 0 0 0 42 39 0 0 0 0 0 0 0 0 26 26 37 35 27 28 15 78 42 23 31 27 0 1 0 0 0 0 0 0 0 0 0
1 5 41 0 0 0 0 0 0 12 0 0 27 54 0 0 1 2 0 0 0 0 0 16 52 25 44 70 52 49 155 33 20 18 0 1 0 0 0 0 0 0 0 0 0
3 22 41 9 0 0 5 4 50 20 24 7 1 23 0 0 0 0 3 0 1 0 0 13 28 42 38 108 86 104 55 31 28 14 0 6 0 0 0 0 0 0 0 0 0
48 28 37 47 0 1 14 4 5 6 10 7 0 0 0 0 0 0 0 0 6 6 8 15 55 58 42 121 58 13 44 38 34 7 4 1 0 0 0 0 0 0 0 0 0
58 38 37 48 26 1 8 1 0 0 0 0 0 0 0 0 1 0 0 5 11 24 51 51 129 78 2 75 18 59 70 31 38 0 19 7 0 0 0 0 0 0 0 0 0
53 48 59 58 55 0 9 0 0 0 0 0 0 0 0 0 0 0 12 3 14 4 38 283 186 94 0 9 97 27 62 53 19 15 3 0 0 0 0 0 0 0 0 0 0
57 55 68 69 51 28 8 1 1 0 0 0 0 0 0 0 0 0 43 54 36 77 161 243 58 105 21 68 72 40 79 19 13 29 0 0 0 0 0 0 0 0 0 0 0
63 51 69 56 0 5 48 2 0 0 0 0 0 0 0 0 0 1 67 77 79 74 144 127 114 122 94 39 133 177 33 22 2 18 13 14 0 0 0 0 0 0 0 0 0
57 57 76 53 10 64 10 14 1 0 0 0 0 0 0 0 10 36 6 165 82 68 1 0 20 9 42 16 18 51 46 12 24 31 20 11 9 0 0 0 0 0 0 0 0
48 38 0 0 27 49 16 10 0 0 0 0 0 0 0 0 11 60 37 94 81 21 0 0 5 65 0 37 22 43 22 45 0 23 11 0 9 0 0 0 0 0 0 0 0
49 27 5 0 9 28 21 0 0 0 0 0 0 0 0 19 35 21 56 68 119 7 0 0 19 39 2 1 0 28 50 48 0 0 0 0 13 5 0 0 0 0 0 0 0
42 24 5 2 47 35 25 0 0 0 0 0 0 0 0 6 4 3 2 92 0 0 0 0 0 6 8 68 27 21 1 0 0 0 0 0 0 0 0 0 0 0 0 0 0
33 28 7 0 73 44 0 0 0 0 0 0 0 0 0 0 20 0 4 0 0 0 0 0 0 3 2 0 9 22 63 5 4 0 35 0 0 0 0 0 0 0 0 0 0
0 0 0 1 36 1 0 0 0 0 0 0 0 0 0 0 0 0 0 0 0 0 1 1 1 31 46 0 7 4 18 2 0 0 0 0 0 0 0 0 0 0 0 0 0
0 6 2 44 25 8 0 0 0 0 0 0 0 0 0 0 0 0 0 0 0 0 8 0 0 21 2 9 0 1 31 15 2 0 36 9 1 0 0 0 0 0 0 0 0
0 0 1 26 1 0 0 0 0 0 0 0 0 0 0 0 0 0 0 0 0 0 0 0 0 8 0 9 0 6 9 25 35 0 0 0 0 0 0 0 0 0 0 0 0
0 0 0 36 0 0 0 0 0 0 0 0 0 21 0 0 0 0 0 0 5 0 0 0 2 0 0 6 12 1 0 6 4 2 0 0 2 0 0 0 0 0 0 0 0
2 1 0 0 7 0 0 0 0 0 0 0 0 13 0 0 0 0 0 0 0 0 0 0 0 14 0 0 0 1 13 2 17 8 0 1 0 0 0 0 0 0 0 0 0
1 1 0 0 0 0 0 0 0 0 0 0 0 0 1 0 0 0 0 0 0 0 0 0 0 0 0 0 0 2 0 6 0 3 0 0 0 0 0 0 0 0 0 0 0
1 18 0 3 16 0 0 0 0 0 0 0 0 4 10 0 0 0 0 0 0 0 0 0 0 0 0 0 0 0 0 0 0 0 0 0 0 0 0 0 0 0 0 0 0
3 2 0 13 0 0 0 0 0 0 0 0 0 1 4 0 0 34 13 1 9 0 0 0 0 0 0 0 0 0 0 0 0 0 0 0 0 0 0 0 0 0 0 0 0

GFSSW_con_mucape_024.txt.gz
CAPE
0 0 0 0 0 0 0 0 0 0 0 7 21 13 27 25 28 0 0 0 0 0 0 0 0 0 1 80 108 16 0 0 0 0 0 0 0 0 0 0 0 0 0 0 0
1 2 1 0 0 0 0 0 0 0 0 0 1 2 6 1 0 14 0 2 6 4 0 0 0 0 0 83 91 5 0 0 0 0 0 0 0 0 0 0 0 0 0 0 0
2 4 0 0 0 0 0 0 0 1 0 0 0 2 4 7 1 0 5 2 56 31 0 0 0 0 14 23 64 8 0 0 0 0 1 0 0 0 0 0 0 0 0 0 0
4 4 0 0 0 0 0 0 0 0 9 1 0 0 7 1 0 13 1 0 0 23 7 0 0 0 9 22 18 28 3 0 0 0 9 1 0 0 0 0 0 0 0 0 0
1 4 3 0 0 0 0 0 0 0 0 10 20 35 0 0 0 17 0 0 0 0 2 1 2 0 0 5 23 28 22 3 1 0 1 2 0 0 0 0 0 0 0 0 0
0 2 6 0 0 0 0 0 0 0 0 42 57 59 1 0 0 0 9 0 0 1 1 1 12 3 0 2 4 52 62 23 10 1 0 1 0 0 0 0 0 0 0 0 0
6 7 18 12 1 0 0 0 0 0 0 5 66 46 0 0 0 0 8 1 0 0 0 16 15 34 16 8 9 10 32 67 8 3 6 4 0 0 0 0 0 0 0 0 0
16 25 29 47 17 3 0 0 0 0 0 0 50 17 0 0 0 0 0 0 0 0 0 2 18 26 39 17 36 46 32 15 0 8 0 7 0 0 0 0 0 0 0 0 0
34 40 44 61 49 24 0 0 2 4 29 0 0 0 0 0 0 0 0 0 0 0 0 0 2 37 23 22 25 25 0 0 0 1 3 2 0 0 0 0 0 0 0 0 0
62 53 51 63 75 38 3 0 1 3 2 0 0 0 0 0 0 0 0 1 2 4 17 15 19 45 41 8 0 0 13 0 2 1 11 0 0 0 0 0 0 0 0 0 0
63 50 51 67 79 46 13 0 0 10 2 0 0 0 0 0 0 0 0 0 3 0 0 9 0 0 0 0 0 0 5 39 10 32 15 0 0 0 0 0 0 0 0 0 0
67 45 48 71 73 57 31 0 0 3 0 0 0 0 0 0 0 0 0 0 0 0 0 0 0 0 0 3 6 10 17 11 40 48 24 0 0 0 0 0 0 0 0 0 0
66 54 51 74 51 67 19 2 2 6 0 0 0 0 0 0 0 0 0 0 0 0 0 0 0 0 14 18 21 8 33 0 0 12 46 9 0 0 0 0 0 0 0 0 0
69 70 63 15 0 0 0 27 3 10 0 0 0 0 0 0 0 0 0 0 0 0 0 0 0 20 44 19 21 16 0 24 13 69 19 4 0 0 0 0 0 0 0 0 0
73 76 50 0 0 0 0 7 15 8 0 0 0 0 0 0 0 0 0 0 0 0 33 1 10 43 79 12 4 1 18 7 11 61 38 42 7 0 0 0 0 0 0 0 0
62 65 16 7 3 0 5 6 10 0 0 0 0 0 0 0 0 0 0 21 44 51 35 9 47 33 21 85 1 0 0 1 15 43 23 2 10 0 0 0 0 0 0 0 0
63 51 15 12 0 0 19 3 0 0 0 0 0 0 0 0 0 12 32 32 52 103 26 0 1 0 40 40 17 44 16 2 0 68 11 0 1 0 0 0 0 0 0 0 0
57 54 16 11 11 1 0 0 0 0 0 0 0 0 0 0 0 7 32 27 29 5 0 0 0 0 0 2 22 0 0 0 5 2 0 5 0 0 0 0 0 0 0 0 0
59 58 21 9 10 0 0 0 0 0 0 0 0 0 0 0 0 0 0 0 0 20 0 0 0 8 0 0 13 1 0 19 65 24 1 0 0 0 0 0 0 0 0 0 0
81 25 16 2 2 0 0 0 0 0 0 0 0 0 0 0 0 0 0 0 0 2 0 1 0 4 30 23 28 0 3 47 37 36 28 28 0 0 0 0 0 0 0 0 0
48 25 9 1 0 0 0 0 0 0 0 0 0 0 0 0 0 0 0 3 0 0 0 0 0 24 5 5 0 0 0 2 31 57 37 0 0 0 0 0 0 0 0 0 0
35 21 2 0 0 0 0 0 0 0 0 0 0 0 0 0 0 0 0 0 0 0 3 0 3 18 16 0 0 5 0 28 25 45 19 5 0 0 0 0 0 0 0 0 0
24 21 8 7 0 0 0 0 0 0 0 0 0 0 3 0 0 0 0 0 0 0 0 0 1 0 6 0 0 2 10 15 50 6 22 3 0 0 0 0 0 0 0 0 0
27 16 14 3 2 0 0 0 0 0 0 0 0 0 0 0 0 0 0 30 6 0 0 0 0 5 1 0 0 9 0 1 22 15 28 6 0 0 0 0 0 0 0 0 0
19 16 5 0 0 0 1 0 0 0 0 0 0 0 11 0 0 0 0 2 24 0 0 0 0 0 0 0 1 26 17 2 4 10 0 0 0 0 0 0 0 0 0 0 0
12 1 11 6 0 0 0 0 0 0 0 0 0 0 0 0 0 0 0 0 0 0 0 0 1 0 0 0 0 4 4 0 0 0 0 1 0 0 0 0 0 0 0 0 0
5 9 2 0 0 0 0 0 0 0 0 0 0 3 18 23 0 17 7 0 23 0 0 0 0 0 0 0 0 0 0 0 3 0 0 0 0 4 0 0 0 0 0 0 0

GFSSW_con_mucape_027.txt.gz
CAPE
1 1 1 1 0 0 0 0 0 0 0 0 20 26 13 17 5 0 0 0 0 0 0 0 0 0 0 0 31 68 6 0 0 0 0 0 0 0 0 0 0 0 0 0 0
2 3 4 3 0 0 0 0 0 0 0 0 0 2 6 12 12 0 0 1 39 0 0 0 0 0 0 0 23 44 0 0 0 0 0 0 0 0 0 0 0 0 0 0 0
0 5 7 0 0 0 0 0 0 0 0 0 0 0 9 19 0 0 0 0 44 57 6 0 0 0 0 0 15 22 0 0 0 0 0 0 0 0 0 0 0 0 0 0 0
0 5 8 4 0 0 0 0 0 0 0 0 0 0 20 7 0 0 0 0 9 37 33 0 0 0 0 3 0 4 5 1 0 0 0 0 0 0 0 0 0 0 0 0 0
0 0 6 10 0 0 0 0 0 0 0 0 0 31 2 0 0 2 0 0 0 0 23 9 1 0 0 0 0 6 0 0 0 0 0 0 0 0 0 0 0 0 0 0 0
26 0 2 10 7 2 0 0 0 0 0 0 0 37 0 0 0 0 0 0 0 0 0 8 3 0 0 0 0 0 3 0 0 2 0 0 0 0 0 0 0 0 0 0 0
47 24 7 12 2 3 28 0 0 0 0 0 0 0 0 0 0 0 0 0 0 1 0 1 11 34 22 0 0 1 0 1 0 0 2 0 0 0 0 0 0 0 0 0 0
62 49 15 5 19 16 10 0 0 0 0 0 0 0 0 0 0 0 0 0 0 0 0 0 0 0 0 15 0 0 0 0 0 0 2 37 0 0 0 0 0 0 0 0 0
75 60 36 28 40 38 3 0 0 0 0 15 1 0 0 0 0 0 0 0 0 0 0 0 1 0 0 0 0 0 0 0 0 0 6 21 0 0 0 0 0 0 0 0 0
76 70 46 47 65 53 6 0 0 0 36 5 5 0 0 0 0 0 0 0 0 0 0 0 0 0 0 0 0 0 0 0 0 0 1 7 0 0 0 0 0 0 0 0 0
92 70 67 56 70 47 0 0 0 0 0 0 0 0 0 0 0 0 0 0 0 0 0 0 0 0 0 0 0 0 0 0 0 6 9 0 6 0 0 0 0 0 0 0 0
88 78 97 61 80 27 0 0 0 2 0 0 0 0 0 1 0 0 0 0 0 0 0 0 0 0 0 0 0 0 0 0 0 0 49 11 13 0 0 0 0 0 0 0 0
93 73 87 63 68 18 0 0 1 6 0 0 0 0 0 0 0 0 0 0 0 0 0 0 0 0 0 0 0 0 0 0 0 0 18 37 6 0 0 0 0 0 0 0 0
91 86 82 63 0 0 0 0 1 19 0 0 0 0 0 0 0 0 3 0 0 0 0 0 0 0 0 0 0 0 0 0 0 27 5 43 9 0 0 0 0 0 0 0 0
106 105 74 20 0 0 0 0 21 22 0 0 0 0 0 0 0 0 0 0 0 0 0 0 0 0 0 0 0 0 0 1 11 28 51 2 32 0 0 0 0 0 0 0 0
104 110 44 26 8 1 0 0 3 0 0 0 0 0 0 0 0 0 0 0 0 2 0 0 0 1 0 0 24 0 0 0 24 52 66 7 32 0 0 0 0 0 0 0 0
97 105 43 59 5 8 3 0 0 0 0 0 0 0 0 0 0 0 0 0 0 20 0 3 5 0 0 4 21 36 0 0 0 0 0 0 16 0 0 0 0 0 0 0 0
84 69 36 59 9 18 14 0 0 0 0 0 0 0 0 0 0 0 0 0 0 0 40 0 0 0 0 0 0 1 0 0 0 0 0 0 1 0 0 0 0 0 0 0 0
60 59 91 10 50 4 0 0 0 0 0 0 0 0 0 0 0 0 0 0 0 0 0 0 0 10 0 0 1 2 0 0 12 5 18 24 10 0 0 0 0 0 0 0 0
51 84 37 24 13 18 0 0 0 0 0 0 0 0 0 0 0 0 0 0 0 0 0 0 21 0 0 0 0 124 20 1 6 3 15 15 7 0 0 0 0 0 0 0 0
70 48 15 14 34 10 0 0 0 0 0 0 0 0 0 0 0 0 0 0 0 0 0 0 0 1 0 4 11 7 11 0 2 1 21 0 4 0 2 0 0 0 0 0 0
39 227 10 12 14 6 0 0 0 0 0 0 0 0 0 0 0 0 0 0 0 0 0 0 0 0 11 24 7 18 0 0 16 38 11 17 13 0 0 0 0 0 0 0 0
9 17 16 7 0 0 0 0 0 0 0 0 0 0 0 0 0 0 0 1 0 0 2 0 0 0 0 0 0 0 0 39 43 39 17 14 3 4 0 0 0 0 0 0 0
46 15 0 10 0 7 0 0 0 0 0 0 0 0 0 0 0 0 0 0 0 0 0 0 0 3 0 0 0 0 22 26 82 31 1 4 0 0 0 0 0 0 0 0 0
33 8 1 0 0 0 0 0 0 0 0 0 0 0 0 0 0 0 0 0 0 0 0 0 8 11 0 0 0 0 14 22 30 30 18 1 0 0 0 0 0 0 0 0 0
9 8 0 0 0 0 0 0 0 0 0 0 0 0 0 0 0 0 0 0 0 0 0 0 0 27 2 0 0 0 1 5 0 11 15 5 0 0 0 0 0 0 0 0 0
2 3 0 0 2 0 0 0 0 0 0 0 0 0 0 0 0 5 28 8 0 0 0 0 0 0 8 0 0 0 1 0 4 0 6 14 0 0 0 0 0 0 0 0 0

GFSSW_con_mucape_030.txt.gz
CAPE
0 0 4 8 4 0 0 0 0 0 0 0 6 34 29 21 22 9 0 0 0 0 0 0 0 0 0 0 0 1 0 0 0 0 0 0 0 0 0 0 0 0 0 0 0
0 2 4 7 10 0 0 0 0 0 0 0 0 5 10 11 2 0 0 23 34 2 0 0 0 0 0 0 0 18 10 0 0 0 0 0 0 0 0 0 0 0 0 0 0
0 2 5 11 4 0 0 0 0 0 0 0 0 6 0 0 0 0 0 0 38 46 8 0 0 0 0 0 0 11 4 0 0 0 0 0 0 0 0 0 0 0 0 0 0
18 1 4 8 4 0 0 0 0 0 0 0 0 0 0 0 0 0 0 0 20 47 30 0 0 0 0 0 0 0 0 2 2 0 0 0 0 0 0 0 0 0 0 0 0
28 18 1 4 7 0 0 0 0 0 0 0 0 0 0 0 0 0 0 0 0 36 28 20 0 0 0 0 0 0 0 0 0 1 0 0 0 0 0 0 0 0 0 0 0
51 23 11 1 11 0 0 0 0 0 0 0 0 0 0 0 0 0 0 0 0 0 2 12 0 0 0 0 0 0 0 0 0 0 0 0 0 0 0 0 0 0 0 0 0
106 75 33 29 12 0 8 12 0 0 0 0 0 0 0 0 0 0 0 0 0 7 0 0 2 0 0 0 0 0 0 0 0 0 0 1 0 0 0 0 0 0 0 0 0
96 97 64 37 14 21 20 4 0 0 0 0 0 0 0 0 0 0 0 0 0 0 0 0 0 0 0 0 0 0 0 0 0 0 0 0 0 0 0 0 0 0 0 0 0
129 98 90 56 59 67 36 0 0 0 0 0 0 0 0 0 0 0 0 0 0 0 0 4 4 0 0 0 0 0 0 0 0 0 0 0 0 0 0 0 0 0 0 0 0
102 79 81 69 69 71 27 0 0 3 36 35 5 0 0 0 0 0 0 0 0 0 0 0 0 0 0 0 0 0 0 0 0 0 0 0 0 0 0 0 0 0 0 0 0
125 92 79 86 81 74 2 0 0 0 0 0 0 0 0 0 0 0 0 0 0 0 0 0 0 0 0 0 0 0 0 0 0 0 0 0 0 0 0 0 0 0 0 0 0
90 103 102 91 85 57 0 0 0 0 0 0 0 0 0 2 0 0 0 0 0 0 0 0 0 0 0 0 0 0 0 0 0 0 5 0 0 0 0 0 0 0 0 0 0
106 90 97 107 86 30 0 0 0 0 0 0 0 0 0 0 0 0 0 0 0 0 0 0 0 0 0 0 0 0 0 0 0 0 0 0 0 0 0 0 0 0 0 0 0
97 112 110 108 15 1 0 0 0 0 0 0 0 0 0 0 0 0 0 0 0 0 0 0 0 0 0 0 0 0 0 0 0 0 0 31 0 0 0 0 0 0 0 0 0
74 116 123 62 12 0 0 0 8 0 0 0 0 0 0 0 0 0 0 0 0 0 0 0 0 0 0 0 0 0 0 0 0 0 0 0 0 0 0 0 0 0 0 0 0
81 110 82 25 14 5 1 2 2 0 0 0 0 0 0 0 0 0 0 0 0 0 0 0 0 0 0 0 0 0 0 0 0 0 0 0 0 0 0 0 0 0 0 0 0
91 105 63 23 13 8 14 9 0 0 0 0 0 0 0 0 0 0 0 0 0 0 0 0 0 1 1 0 0 0 0 0 0 0 0 0 0 0 0 0 0 0 0 0 0
78 84 51 21 5 3 17 2 0 0 0 0 0 0 0 0 0 0 0 0 0 0 0 0 0 0 1 0 0 0 0 0 0 0 0 0 0 0 0 0 0 0 0 0 0
6 97 3 37 13 0 0 0 0 0 0 0 0 0 0 0 0 0 0 0 0 0 0 0 0 0 0 0 2 1 39 0 0 0 0 0 0 0 0 0 2 0 0 0 0
65 37 0 21 36 3 2 0 0 0 0 0 0 0 0 0 0 0 0 0 0 0 0 0 0 0 0 0 0 0 2 0 15 0 0 2 0 0 0 0 31 8 1 4 0
2 77 0 53 21 15 0 0 0 0 0 0 0 0 0 0 0 0 0 0 0 0 0 0 0 1 0 0 0 0 0 11 0 0 0 38 1 23 0 0 1 40 32 0 0
25 35 1 0 0 0 0 0 0 0 0 0 0 0 0 0 0 0 0 0 0 0 0 0 0 0 0 0 0 0 0 0 0 0 0 0 0 0 0 1 0 41 13 0 0
29 0 0 6 8 0 0 0 0 0 0 0 0 0 0 0 0 0 0 0 0 0 0 0 0 0 0 0 1 5 13 0 0 0 0 0 0 7 11 10 13 1 0 0 0
0 4 0 1 3 0 0 0 0 0 0 0 0 0 0 0 0 0 0 0 0 0 0 0 0 0 0 2 0 0 2 0 0 0 2 1 0 6 21 10 0 0 0 0 0
0 0 0 12 0 0 0 0 0 0 0 0 0 0 0 0 0 0 0 0 0 0 0 0 0 0 1 0 0 0 0 0 32 0 14 36 16 22 30 2 0 0 0 0 0
0 0 0 1 0 0 0 0 0 0 0 0 0 0 0 0 0 0 0 0 0 0 0 0 16 10 5 0 0 0 0 1 1 0 1 10 11 2 0 0 0 0 0 0 0
3 7 2 0 0 0 0 0 0 0 0 0 0 0 0 0 0 0 0 0 0 0 0 0 0 8 30 8 0 0 24 8 3 0 0 2 3 0 0 0 0 0 0 0 0

GFSSW_con_mucape_033.txt.gz
CAPE
0 0 4 4 10 9 3 0 0 0 0 0 7 26 24 7 45 27 1 0 0 0 0 0 0 0 0 0 0 0 0 0 0 0 0 0 0 0 0 0 0 0 0 0 0
11 0 3 8 6 14 9 0 0 0 0 0 0 5 16 6 19 9 2 20 38 23 0 0 0 0 0 0 0 13 2 0 0 0 0 0 0 0 0 0 0 0 0 0 0
28 13 0 13 15 9 1 0 0 0 0 0 0 0 0 0 2 0 0 7 47 54 0 0 0 0 0 0 0 1 2 0 0 0 0 0 0 0 0 0 0 0 0 0 0
45 28 7 3 29 9 2 5 0 0 0 0 0 0 0 0 0 0 0 0 4 36 16 6 0 0 0 0 0 0 0 0 0 0 0 0 0 0 0 0 0 0 0 0 0
70 41 17 0 6 19 0 7 0 0 0 0 0 0 0 0 0 0 0 0 1 33 40 29 0 0 0 0 0 0 0 0 0 0 0 0 0 0 0 0 0 0 0 0 0
109 85 50 18 0 17 9 8 11 0 0 0 0 0 0 0 0 0 0 0 0 56 35 24 0 0 0 0 0 0 0 0 0 0 0 0 0 0 0 0 0 0 0 0 0
120 131 83 44 2 17 13 28 21 7 0 0 0 0 0 0 0 0 0 0 0 0 0 25 43 0 0 0 0 0 0 0 0 0 0 0 0 0 0 0 0 0 0 0 0
141 126 103 71 36 3 16 42 18 21 7 0 0 0 0 0 0 0 0 0 0 0 0 0 0 0 0 0 0 0 0 0 0 0 0 0 0 0 0 0 0 0 0 0 0
131 129 106 86 58 53 56 38 7 10 19 40 0 0 0 0 0 0 0 0 0 0 0 0 0 0 0 0 0 0 0 0 0 0 0 0 0 0 0 0 0 0 0 0 0
94 118 94 88 79 79 64 18 6 7 30 57 4 0 0 0 0 0 0 0 0 0 0 0 0 0 0 0 0 0 0 0 0 0 0 0 0 0 0 0 0 0 0 0 0
33 83 92 96 95 107 28 0 0 0 0 0 0 0 0 0 0 0 0 0 0 0 0 0 0 0 0 0 0 0 0 0 0 0 0 0 0 0 0 0 0 0 0 0 0
1 92 91 108 118 93 5 0 0 0 0 0 0 0 0 0 0 0 0 0 0 0 0 0 0 0 0 0 0 0 0 0 0 0 0 0 0 0 0 0 0 0 0 0 0
18 1 89 126 96 50 4 1 0 0 0 0 0 0 0 0 0 0 0 0 0 0 0 0 0 0 0 0 0 0 0 0 0 0 0 0 0 0 0 0 0 0 0 0 0
43 9 132 103 81 46 14 0 0 0 0 0 0 0 0 0 0 0 0 0 0 0 0 0 0 0 0 0 0 0 0 0 0 0 0 0 0 0 0 0 0 0 0 0 0
60 15 71 103 6 14 1 6 1 0 0 0 0 0 0 0 0 0 0 0 0 0 0 0 0 0 0 0 0 0 0 0 0 0 0 0 0 0 0 0 0 0 0 0 0
83 4 66 39 39 30 9 0 0 0 0 0 0 0 0 0 0 0 0 0 0 0 0 0 0 0 0 0 0 0 0 0 0 0 0 0 0 0 0 0 0 0 0 0 0
125 8 36 25 18 16 10 0 0 0 0 0 0 0 0 0 0 0 0 0 0 0 0 0 0 0 0 0 0 0 0 0 0 0 0 0 0 0 0 0 0 0 0 0 0
113 37 10 3 34 8 0 1 0 0 0 0 0 0 0 0 0 0 0 0 0 0 0 0 0 0 0 0 0 0 0 0 0 0 0 0 0 0 0 0 0 0 0 0 0
82 5 30 0 40 0 0 0 0 0 0 0 0 0 0 0 0 0 0 0 0 0 0 0 0 0 0 0 0 0 0 0 0 0 0 0 0 0 0 0 0 0 0 0 0
53 0 0 0 3 9 0 0 0 0 0 0 0 0 0 0 0 0 0 0 0 0 0 0 0 0 0 0 0 0 0 0 10 0 0 0 0 0 0 0 0 0 0 0 0
0 0 0 0 0 0 0 0 0 0 0 0 0 0 0 0 0 0 0 0 0 0 0 0 0 0 0 0 0 0 0 0 1 0 0 0 0 0 0 0 0 0 29 7 0
1 0 51 6 0 0 0 0 0 0 0 0 0 0 0 0 0 0 0 0 0 0 0 0 0 0 0 0 0 0 0 0 0 0 0 1 0 0 0 0 0 69 86 67 60
1 22 22 0 0 0 0 0 0 0 0 0 0 0 0 0 0 0 0 0 0 0 0 0 0 0 0 0 0 1 0 0 0 0 0 0 0 0 13 12 0 9 93 52 3
5 8 0 0 0 0 0 0 0 0 0 0 0 0 0 0 0 0 0 0 0 0 0 0 0 0 0 0 0 2 8 0 0 0 0 0 0 97 54 99 16 11 11 22 2
0 0 0 0 0 0 0 0 0 0 0 0 0 0 0 0 0 0 0 0 0 0 0 0 0 0 0 0 0 0 0 2 0 0 0 0 1 69 69 66 44 20 24 13 0
10 1 0 0 0 0 0 0 0 0 0 0 0 0 0 0 0 0 0 0 0 0 0 0 0 0 0 0 0 0 0 0 0 0 0 0 2 33 26 4 7 0 0 0 0
0 0 0 0 0 0 0 0 0 0 0 0 0 0 0 0 0 0 0 0 0 0 0 0 0 0 1 0 0 0 0 0 0 0 0 2 0 2 0 0 0 3 0 0 0

GFSSW_con_mucape_036.txt.gz
CAPE
13 9 0 0 8 13 7 2 1 6 0 0 6 19 36 80 59 25 1 0 0 0 0 0 0 0 0 0 0 0 1 0 0 0 0 0 0 0 0 0 0 0 0 0 0
25 22 12 0 1 16 13 2 0 0 0 0 0 7 25 22 18 5 0 9 47 26 0 0 0 0 0 0 0 18 5 0 0 0 0 0 0 0 0 0 0 0 0 0 0
71 38 30 15 1 8 11 6 1 0 0 0 0 0 1 4 1 0 0 12 75 66 19 0 0 0 0 0 0 1 3 0 0 0 0 0 0 0 0 0 0 0 0 0 0
80 82 43 33 8 12 0 9 8 0 0 0 0 0 0 1 0 0 0 0 7 35 40 8 0 0 0 0 0 0 0 0 0 0 0 0 0 0 0 0 0 0 0 0 0
124 122 86 42 24 10 6 0 16 3 0 0 0 0 0 0 0 0 0 0 0 11 28 7 0 0 0 0 0 0 0 0 0 0 0 0 0 0 0 0 0 0 0 0 0
140 143 111 90 53 27 11 0 14 8 0 0 0 0 0 0 0 0 0 0 19 43 38 46 0 0 0 0 0 0 0 0 0 0 0 0 0 0 0 0 0 0 0 0 0
81 132 99 93 69 31 45 6 24 29 3 0 0 0 0 0 0 0 0 0 0 33 43 60 53 0 0 0 0 0 0 0 0 0 0 0 0 0 0 0 0 0 0 0 0
7 59 125 115 93 57 50 42 48 45 11 11 0 0 0 0 0 0 0 0 0 0 0 3 0 0 0 0 0 0 0 0 0 0 0 0 0 0 0 0 0 0 0 0 0
6 1 107 116 107 89 96 67 40 7 8 39 4 0 0 0 0 0 0 0 0 0 0 0 0 0 0 0 0 0 0 0 0 0 0 0 0 0 0 0 0 0 0 0 0
20 4 28 72 123 103 126 54 21 12 20 37 4 0 0 0 0 0 0 0 0 0 0 0 0 0 0 0 0 0 0 0 0 0 0 0 0 0 0 0 0 0 0 0 0
0 6 7 59 109 124 37 1 0 0 0 0 0 0 0 0 0 0 0 0 0 0 0 0 0 0 0 0 0 0 0 0 0 0 0 0 0 0 0 0 0 0 0 0 0
50 16 0 1 116 134 35 1 0 0 0 0 0 0 0 0 0 0 0 0 0 0 0 0 0 0 0 0 0 0 0 0 0 0 0 0 0 0 0 0 0 0 0 0 0
67 56 100 1 68 60 12 10 2 1 0 0 0 0 0 0 0 0 0 0 0 0 0 0 0 0 0 0 0 0 0 0 0 0 0 0 0 0 0 0 0 0 0 0 0
53 67 40 25 14 67 1 3 13 12 0 0 0 0 0 0 0 0 0 0 0 0 0 0 0 0 0 0 0 0 0 0 0 0 0 0 0 0 0 0 0 0 0 0 0
101 51 55 12 0 1 0 7 11 10 0 0 0 11 0 0 0 0 0 0 0 0 0 0 0 0 0 0 0 0 0 0 0 0 0 0 0 0 0 0 0 0 0 0 0
69 41 79 15 0 21 0 31 7 0 0 0 0 0 0 0 0 0 0 0 0 0 0 0 0 0 0 0 0 0 0 0 0 0 0 0 0 0 0 0 0 0 0 0 0
171 58 59 45 0 24 20 0 0 0 0 0 0 0 0 0 0 0 0 0 0 0 0 0 0 0 0 0 0 0 0 0 0 0 0 0 0 0 0 0 0 0 0 0 0
115 95 96 94 31 0 0 1 0 0 0 0 0 0 0 0 0 0 0 0 0 0 0 0 0 0 0 0 0 0 0 0 0 0 0 0 0 0 0 0 0 0 0 0 0
132 55 52 37 18 0 0 0 0 0 0 0 0 0 0 0 0 0 0 0 0 0 0 0 0 0 0 0 0 0 0 0 0 0 0 0 0 0 0 0 0 0 0 0 0
66 31 56 20 38 0 0 0 0 0 0 0 0 0 0 0 0 0 0 0 0 0 0 0 0 0 0 0 0 0 0 0 0 0 0 0 0 0 0 0 0 0 0 0 0
37 3 55 5 74 0 0 0 0 0 0 0 0 0 0 0 0 0 0 0 0 0 0 0 0 0 0 0 0 0 0 0 0 0 0 0 0 20 55 14 0 0 0 0 0
35 10 20 64 0 0 0 0 0 0 0 0 0 0 0 0 0 0 0 0 0 0 0 0 0 0 0 0 0 0 0 0 0 0 0 1 0 14 32 13 0 0 0 0 0
13 6 81 1 0 0 0 0 0 0 0 0 0 0 0 0 0 0 0 0 0 0 0 0 0 0 0 0 0 0 0 0 0 0 0 0 0 0 0 23 9 0 0 0 7
9 8 23 7 0 0 0 0 0 0 0 0 0 0 0 0 0 0 0 0 0 0 0 0 0 0 0 0 0 0 0 0 0 2 0 0 0 0 0 19 8 0 0 46 43
0 24 0 0 0 0 0 0 0 0 0 0 0 0 0 0 0 0 0 0 0 0 0 0 0 0 0 0 0 0 0 0 0 0 0 0 0 0 2 18 1 0 51 51 10
0 1 6 0 0 0 0 0 0 0 0 0 0 0 0 0 0 0 0 0 0 0 0 0 0 0 0 0 0 0 0 0 0 0 0 0 0 0 0 15 18 1 2 30 5
11 0 1 0 0 0 0 0 1 0 0 0 0 0 0 0 0 0 0 0 0 0 0 0 0 0 0 0 0 4 0 0 0 0 0 2 2 1 45 115 56 10 28 18 11

GFSSW_con_mucape_039.txt.gz
CAPE
113 51 22 11 0 2 9 10 12 5 1 1 0 9 41 53 63 9 0 0 0 0 0 0 0 0 0 0 0 0 0 0 0 0 0 0 0 0 0 0 0 0 0 0 0
97 105 52 20 3 0 5 12 5 2 3 0 0 2 14 11 46 20 6 16 69 53 0 0 0 0 0 0 0 10 1 0 0 0 0 0 0 0 0 0 0 0 0 0 0
98 122 116 57 15 0 4 7 0 0 4 6 0 0 0 3 6 1 2 18 93 78 21 0 0 0 0 0 0 2 0 0 0 0 0 0 0 0 0 0 0 0 0 0 0
48 112 135 120 37 2 1 6 2 2 0 12 0 0 0 0 0 0 0 0 8 67 29 5 0 0 0 0 0 0 0 0 0 0 0 0 0 0 0 0 0 0 0 0 0
20 70 110 151 94 16 4 2 0 8 0 0 0 0 0 0 0 0 0 0 0 1 4 9 0 0 0 0 0 0 0 0 0 0 0 0 0 0 0 0 0 0 0 0 0
7 15 19 95 117 84 23 11 0 14 3 0 0 0 0 0 0 0 0 0 2 14 21 7 0 0 0 0 0 0 0 0 0 0 0 0 0 0 0 0 0 0 0 0 0
21 20 10 31 126 117 59 28 0 43 19 5 5 0 0 0 0 0 0 0 8 39 23 16 6 0 0 0 0 0 0 0 0 0 0 0 0 0 0 0 0 0 0 0 0
39 5 3 7 87 150 95 63 38 70 53 38 19 0 0 0 0 0 0 0 0 22 3 64 57 46 0 0 0 0 0 0 0 0 0 0 0 0 0 0 0 0 0 0 0
58 39 13 23 2 135 130 139 83 57 56 58 4 0 0 0 0 0 0 0 0 0 0 22 0 0 0 0 0 0 0 0 0 0 0 0 0 0 0 0 0 0 0 0 0
61 55 11 13 3 76 131 100 46 6 37 49 15 0 0 0 0 0 0 0 0 0 0 0 0 0 0 0 0 0 0 0 0 0 0 0 0 0 0 0 0 0 0 0 0
81 65 35 20 0 57 65 23 4 0 19 0 0 0 0 0 0 0 0 0 0 0 0 0 0 0 0 0 0 0 0 0 0 0 0 0 0 0 0 0 0 0 0 0 0
112 106 56 12 0 0 22 0 0 0 0 0 1 0 0 0 0 0 0 0 0 0 0 0 0 0 0 0 0 0 0 0 0 0 0 0 0 0 0 0 0 0 0 0 0
126 106 65 39 0 1 1 8 10 0 0 0 0 0 0 0 0 0 0 0 0 0 0 0 0 0 0 0 0 0 0 0 0 0 0 0 0 0 0 0 0 0 0 0 0
132 133 87 53 31 0 0 20 10 6 0 0 0 0 0 0 0 0 0 0 0 0 0 0 0 0 0 0 0 0 0 0 0 0 0 0 0 0 0 0 0 0 0 0 0
118 150 95 84 38 0 0 20 6 4 0 0 0 8 0 0 0 0 0 0 0 0 0 0 0 0 0 0 0 0 0 0 0 0 0 0 0 0 0 0 0 0 0 0 0
80 95 69 54 47 12 0 0 0 0 0 0 0 0 0 0 0 0 0 0 0 0 0 0 0 0 0 0 0 0 0 0 0 0 0 0 0 0 0 0 0 0 0 0 0
120 137 73 62 32 74 20 0 0 0 0 0 0 0 0 0 0 0 0 0 0 0 0 0 0 0 0 0 0 0 0 0 0 0 0 0 0 0 0 0 0 0 0 0 0
95 105 49 15 31 72 46 0 0 0 0 0 0 0 0 0 0 0 0 0 0 0 0 0 0 0 0 0 0 0 0 0 0 0 0 0 0 0 0 0 0 0 0 0 0
172 37 50 2 56 97 1 0 0 0 0 0 0 0 0 0 0 0 0 0 0 0 0 0 0 0 0 0 0 0 0 0 0 0 0 0 0 0 0 0 0 0 0 0 0
61 18 45 54 80 41 0 0 0 0 0 0 0 0 0 0 0 0 0 0 0 0 0 0 0 0 0 0 0 0 0 0 0 0 0 0 0 0 0 0 0 0 0 0 0
54 5 56 77 131 0 0 0 0 0 0 0 0 0 0 0 0 0 0 0 0 0 0 0 0 0 0 0 0 0 0 0 0 0 0 0 0 0 0 0 2 8 0 0 0
7 13 68 112 13 0 0 0 0 0 0 0 0 0 0 0 0 0 0 0 0 0 0 0 0 0 0 0 0 0 0 0 0 0 0 0 0 0 0 4 3 8 9 0 0
0 11 81 35 0 0 0 0 0 0 0 0 0 0 0 0 0 0 0 0 0 0 0 0 0 0 0 0 0 0 0 0 0 0 0 0 0 0 0 0 0 3 22 0 0
3 10 8 0 0 0 0 0 0 0 0 0 0 0 0 0 0 0 0 0 0 0 0 0 0 0 0 0 0 0 0 0 1 0 0 0 0 0 0 0 0 0 8 0 0
3 5 0 0 0 0 0 0 0 0 0 0 0 0 0 0 0 0 0 0 0 0 0 0 0 0 0 0 0 0 0 0 0 0 0 0 0 0 0 0 0 0 1 1 29
3 0 0 0 0 0 0 0 0 1 0 0 0 0 0 0 0 0 0 0 0 0 0 0 0 0 0 0 0 0 0 0 0 0 0 0 0 0 0 0 0 13 86 154 66
0 0 0 0 0 0 0 0 0 0 0 0 0 0 0 0 0 0 0 0 0 0 0 0 0 0 0 0 0 0 5 0 0 0 0 0 0 0 1 0 24 83 144 21 5

GFSSW_con_mucape_042.txt.gz
CAPE
101 81 89 37 0 0 0 0 13 8 2 6 6 3 35 23 64 39 16 10 6 0 0 0 0 0 0 0 0 0 0 0 0 0 0 0 0 0 0 0 0 0 0 0 0
13 55 86 108 33 6 0 0 4 6 0 3 7 0 12 11 59 35 5 41 56 27 0 0 0 0 0 0 0 0 0 0 0 0 0 0 0 0 0 0 0 0 0 0 0
5 47 67 125 96 33 0 0 0 2 0 0 8 0 2 4 1 5 19 91 92 74 11 0 0 0 0 0 2 2 0 0 0 0 0 0 0 0 0 0 0 0 0 0 0
0 12 6 51 112 86 25 6 0 1 1 0 8 0 0 0 0 2 0 1 7 79 0 6 0 0 0 0 0 0 0 0 0 0 0 0 0 0 0 0 0 0 0 0 0
16 5 23 21 63 104 74 25 6 1 3 0 0 0 0 0 0 0 0 0 0 66 12 12 13 12 0 0 0 0 0 0 0 0 0 0 0 0 0 0 0 0 0 0 0
34 27 0 12 9 83 120 63 20 7 1 0 0 0 0 0 0 0 0 0 9 13 46 12 10 4 0 0 0 0 0 0 0 0 0 0 0 0 0 0 0 0 0 0 0
31 46 39 5 17 10 134 104 33 11 19 0 0 0 0 0 0 0 0 0 1 43 18 25 13 0 0 0 0 0 0 0 0 0 0 0 0 0 0 0 0 0 0 0 0
57 58 57 39 4 12 42 144 106 87 67 21 8 0 0 0 0 0 0 0 37 38 47 30 12 0 0 0 0 0 0 0 0 0 0 0 0 0 0 0 0 0 0 0 0
57 64 54 49 14 10 2 133 123 89 75 62 12 0 0 0 0 0 0 0 0 10 6 72 36 0 0 0 0 0 0 0 0 0 0 0 0 0 0 0 0 0 0 0 0
57 81 76 74 50 13 33 116 78 38 43 50 31 0 0 0 0 0 0 0 0 1 2 0 0 0 0 0 0 0 0 0 0 0 0 0 0 0 0 0 0 0 0 0 0
70 104 107 93 51 20 31 50 0 0 0 0 0 0 0 0 0 0 0 0 0 0 0 0 0 0 0 0 0 0 0 0 0 0 0 0 0 0 0 0 0 0 0 0 0
131 151 133 123 72 20 31 0 0 0 0 0 0 2 0 0 0 0 0 0 0 0 0 0 0 0 0 0 0 0 0 0 0 0 0 0 0 0 0 0 0 0 0 0 0
160 184 170 133 71 10 22 0 1 0 0 0 0 6 6 0 0 0 0 0 0 0 0 0 0 0 0 0 0 0 0 0 0 0 0 0 0 0 0 0 0 0 0 0 0
161 182 132 139 81 71 9 0 0 0 0 0 0 0 15 8 0 0 0 0 0 0 0 0 0 0 0 0 0 0 0 0 0 0 0 0 0 0 0 0 0 0 0 0 0
94 178 175 147 51 28 3 0 0 0 0 0 0 14 16 0 0 0 0 0 0 0 0 0 0 0 0 0 0 0 0 0 0 0 0 0 0 0 0 0 0 0 0 0 0
136 125 85 107 107 15 63 65 0 0 0 0 0 0 0 0 0 0 0 0 0 0 0 0 0 0 0 0 0 0 0 0 0 0 0 0 0 0 0 0 0 0 0 0 0
78 110 119 99 21 83 99 0 2 0 0 0 0 0 0 0 0 0 0 0 0 0 0 0 0 0 0 0 0 0 0 0 0 0 0 0 0 0 0 0 0 0 0 0 0
96 199 83 56 119 101 89 0 0 0 0 0 0 0 0 0 0 0 0 0 0 0 0 0 0 0 0 0 0 0 0 0 0 0 0 0 0 0 0 0 0 0 0 0 0
69 74 100 88 135 122 18 0 0 0 0 0 0 0 0 0 0 0 0 0 0 0 0 0 0 0 0 0 0 0 0 0 0 0 0 0 0 0 0 0 0 0 0 0 0
44 119 142 133 78 62 0 0 0 0 0 0 0 0 0 0 0 0 0 0 0 0 0 0 0 0 0 0 0 0 0 0 0 0 0 0 0 0 0 0 0 0 0 0 0
18 89 119 160 155 1 0 0 0 0 0 0 0 0 0 0 0 0 0 0 0 0 0 0 0 0 0 0 0 0 0 0 0 0 0 0 0 0 0 0 0 1 0 0 0
0 0 71 184 1 0 0 0 0 0 0 0 0 0 0 0 0 0 0 0 0 0 0 0 0 0 0 0 0 0 0 0 0 0 0 0 0 0 0 0 2 2 3 5 0
0 1 133 86 0 0 0 8 0 0 0 0 0 0 0 0 0 0 0 0 0 0 0 0 0 0 0 0 0 0 0 0 0 0 0 0 0 0 0 17 8 0 0 0 8
0 3 48 2 0 3 1 0 0 0 0 0 0 0 0 0 0 0 0 0 0 0 0 0 0 0 0 0 0 0 0 0 0 3 0 0 0 0 0 0 1 0 0 35 32
0 6 5 0 0 0 0 0 0 0 0 0 0 0 0 0 0 0 0 0 0 0 0 0 0 0 0 0 0 0 0 0 0 0 0 0 0 0 0 0 0 0 0 12 62
0 2 3 0 0 0 0 0 0 0 0 0 0 0 0 0 0 0 0 0 0 0 0 0 0 0 0 0 0 0 0 0 0 0 0 0 0 0 0 0 0 15 65 61 60
0 0 0 0 0 0 0 0 0 0 0 0 0 0 0 0 0 0 0 0 0 0 0 0 0 0 0 0 0 0 0 0 0 0 0 0 0 0 0 5 34 32 139 151 133

GFSSW_con_mucape_045.txt.gz
CAPE
0 37 75 79 114 48 7 0 0 4 2 2 3 2 4 30 58 37 34 31 34 8 1 1 0 0 0 0 0 0 1 0 0 0 0 0 0 0 0 0 0 0 0 0 0
0 1 23 56 80 117 46 2 1 9 0 0 2 0 0 6 64 40 1 27 33 36 13 11 3 0 0 0 0 6 0 0 0 0 0 0 0 0 0 0 0 0 0 0 0
11 0 0 5 4 75 112 34 7 9 2 0 3 0 0 2 30 10 31 77 68 79 43 18 24 1 0 0 0 4 0 0 0 0 0 0 0 0 0 0 0 0 0 0 0
12 13 6 0 0 10 102 110 23 14 4 0 1 0 0 13 6 7 0 98 124 86 68 27 21 10 0 0 0 0 0 0 0 0 0 0 0 0 0 0 0 0 0 0 0
17 20 19 18 0 0 0 110 83 25 13 0 0 0 0 9 3 0 0 0 3 28 71 34 22 25 13 0 3 2 0 0 0 0 0 0 0 0 0 0 0 0 0 0 0
26 21 22 30 16 4 6 19 133 52 25 1 0 0 0 0 0 0 0 0 4 17 30 27 11 14 21 9 3 4 0 0 0 0 0 0 0 0 0 0 0 0 0 0 0
22 31 43 42 41 6 22 7 138 91 54 29 0 0 0 0 0 0 0 0 0 1 48 34 24 12 5 3 5 0 0 0 0 0 0 0 0 0 0 0 0 0 0 0 0
27 22 45 40 51 44 13 9 7 147 115 43 1 2 10 0 0 0 0 0 37 35 9 22 21 20 0 0 0 0 0 0 0 0 0 0 0 0 0 0 0 0 0 0 0
60 33 46 50 65 62 51 2 20 88 75 55 27 18 10 0 0 0 0 0 27 34 40 21 36 0 0 0 0 0 0 0 0 0 0 0 0 0 0 0 0 0 0 0 0
82 66 45 82 87 77 59 2 16 67 65 57 34 3 0 0 0 0 0 0 0 0 7 1 0 0 0 0 0 0 0 0 0 0 0 0 0 0 0 0 0 0 0 0 0
104 86 125 138 120 123 72 30 119 0 0 0 0 0 1 0 0 0 0 0 0 0 0 0 0 0 0 0 0 0 0 0 0 0 0 0 0 0 0 0 0 0 0 0 0
112 122 139 167 173 157 108 19 2 0 0 0 0 2 0 0 0 0 0 0 0 0 0 0 0 0 0 0 0 0 0 0 0 0 0 0 0 0 0 0 0 0 0 0 0
131 119 141 165 158 120 74 4 0 0 4 0 0 2 0 0 7 0 0 0 0 0 0 0 0 0 0 0 0 0 0 0 0 0 0 0 0 0 0 0 0 0 0 0 0
103 76 138 184 127 91 69 10 1 0 3 0 0 1 19 4 11 4 0 0 0 0 0 0 0 0 0 0 0 0 0 0 0 0 0 0 0 0 0 0 0 0 0 0 0
79 85 136 110 118 60 62 58 0 0 0 0 0 8 15 0 4 0 5 0 0 0 0 0 0 0 0 0 0 0 0 0 0 0 0 0 0 0 0 0 0 0 0 0 0
75 62 76 43 119 52 86 57 0 0 2 0 0 0 0 0 4 0 0 0 0 0 0 0 0 0 0 0 0 0 0 0 0 0 0 0 0 0 0 0 0 0 0 0 0
60 54 72 83 2 103 90 50 0 0 0 0 0 0 0 0 0 0 0 0 0 0 0 0 0 0 0 0 0 0 0 0 0 0 0 0 0 0 0 0 0 0 0 0 0
56 150 78 111 68 88 79 0 0 0 0 0 0 0 0 0 0 0 0 0 0 0 0 0 0 0 0 0 0 0 0 0 0 0 0 0 0 0 0 0 0 0 0 0 0
109 158 105 82 111 203 98 0 0 0 0 0 0 0 0 0 0 0 0 0 0 0 0 0 0 0 0 0 0 0 0 0 0 0 0 0 0 0 0 0 0 0 0 0 0
3 83 172 151 169 112 17 0 2 0 0 0 0 0 0 0 0 0 0 0 0 0 0 0 0 0 0 0 0 0 0 0 0 0 0 0 0 0 0 0 0 0 0 0 0
1 10 205 180 239 41 0 0 0 0 0 0 0 0 0 0 0 0 0 0 0 0 0 0 0 0 0 0 0 0 0 0 0 0 0 0 0 0 0 0 0 0 0 0 0
1 1 166 124 32 0 0 0 0 0 0 0 0 0 0 0 0 0 0 0 0 0 0 0 0 0 0 0 0 0 0 0 0 0 0 0 0 0 0 0 0 0 0 0 0
0 3 114 126 105 0 0 0 1 0 0 0 0 0 0 0 0 0 0 0 0 0 0 0 0 0 0 0 0 0 0 0 0 0 0 0 0 0 0 0 0 0 0 0 0
0 58 30 13 47 7 0 0 0 0 0 0 0 0 0 0 1 0 0 0 0 0 0 0 0 0 0 0 0 0 0 0 0 0 0 0 0 0 2 17 8 0 3 7 0
2 0 0 23 15 10 18 0 0 0 0 0 0 0 1 0 0 0 0 0 0 0 0 0 0 0 0 0 0 0 0 0 0 0 0 0 0 0 0 1 6 1 0 0 39
0 0 0 0 0 0 0 52 0 0 0 0 0 0 0 0 0 0 0 0 0 0 0 0 0 0 0 0 0 0 0 0 0 0 0 0 0 0 0 0 0 0 0 0 0
0 0 1 0 4 4 10 14 0 0 0 0 0 0 0 0 0 0 0 0 0 0 0 0 0 0 0 0 0 0 0 0 0 0 3 0 0 0 0 1 7 9 60 88 26

GFSSW_con_mucape_048.txt.gz
CAPE
14 1 11 5 29 23 63 50 1 1 9 16 3 1 1 0 23 42 11 2 43 23 0 0 0 0 0 0 0 0 0 0 0 0 0 0 0 0 0 0 0 0 0 0 188
10 13 18 18 9 31 24 83 42 8 7 12 3 1 0 0 7 17 0 51 75 60 0 1 0 0 0 0 0 0 0 0 0 0 0 0 0 0 0 0 0 0 0 0 0
16 11 15 20 21 33 29 24 98 36 14 4 1 1 0 0 15 0 1 15 83 67 20 0 5 4 0 0 0 0 0 0 0 0 0 0 0 0 0 0 0 0 0 0 0
27 27 19 13 29 27 0 0 23 90 26 3 0 0 0 0 0 2 154 76 177 87 48 36 17 5 4 0 0 0 0 0 0 0 0 0 0 0 0 0 0 0 0 0 0
23 18 16 22 18 34 29 0 0 76 90 8 0 0 0 3 0 7 0 30 77 86 58 44 7 7 17 4 1 0 0 0 0 0 0 0 0 0 0 0 0 0 0 0 0
31 31 21 15 26 42 56 22 0 28 133 39 0 9 0 0 0 0 0 0 0 23 80 82 21 20 20 8 4 8 0 0 0 0 0 0 0 0 0 0 0 0 0 0 0
60 42 32 21 33 25 50 55 30 31 57 69 7 0 2 0 0 0 0 0 7 0 60 64 24 21 15 8 2 0 0 0 0 0 0 0 0 0 0 0 0 0 0 0 0
73 77 59 30 27 21 33 61 57 17 4 120 40 0 9 0 0 0 0 0 0 13 75 66 53 29 8 3 4 0 0 0 0 0 0 0 0 0 0 0 0 0 0 0 0
74 77 101 86 48 63 64 74 57 20 8 123 0 0 3 0 0 0 0 0 5 21 53 90 49 10 1 0 0 0 0 0 0 0 0 0 0 0 0 0 0 0 0 0 0
121 110 111 111 97 118 125 96 50 15 4 73 29 0 3 0 0 0 0 0 20 65 55 43 41 0 0 0 0 0 0 0 0 0 0 0 0 0 0 0 0 0 0 0 0
137 150 146 135 131 129 141 116 45 104 4 0 0 0 0 0 0 0 0 0 0 27 0 6 0 0 0 0 0 0 0 0 0 0 0 0 0 0 0 0 0 0 0 0 0
168 160 138 145 163 152 143 66 32 25 0 0 0 0 0 0 0 0 0 0 0 0 0 0 0 0 0 0 0 0 0 0 0 0 0 0 0 0 0 0 0 0 0 0 0
152 131 81 98 184 170 169 76 34 0 0 0 0 0 0 0 0 0 0 0 0 0 0 0 0 0 0 0 0 0 0 0 0 0 0 0 0 0 0 0 0 0 0 0 0
112 95 75 119 134 161 121 139 34 0 1 0 2 0 0 2 1 0 0 3 0 0 0 0 0 0 0 0 0 0 0 0 0 0 0 0 0 0 0 0 0 0 0 0 0
71 69 66 56 33 42 84 121 44 0 0 0 0 1 0 0 0 3 0 1 0 0 0 0 0 0 0 0 0 0 0 0 0 0 0 0 0 0 0 0 0 0 0 0 0
50 43 51 5 56 1 86 26 21 0 0 0 0 0 0 20 7 0 4 2 0 0 0 0 0 0 0 0 0 0 0 0 0 0 0 0 0 0 0 0 0 0 0 0 0
33 49 24 34 7 15 49 10 0 6 0 0 0 0 0 0 0 0 0 0 0 0 0 0 0 0 0 0 0 0 0 0 0 0 0 0 0 0 0 0 0 0 0 0 0
104 127 69 108 103 23 65 5 0 32 12 0 0 0 0 0 0 0 0 0 0 0 0 0 0 0 0 0 0 0 0 0 0 0 0 0 0 0 0 0 0 0 0 0 0
76 8 142 52 98 26 22 0 0 5 0 0 0 0 0 0 0 0 0 0 0 0 0 0 0 0 0 0 0 0 0 0 0 0 0 0 0 0 0 0 0 0 0 0 0
0 28 118 157 90 41 0 0 0 0 0 0 0 0 0 0 0 0 0 0 0 0 0 0 0 0 0 0 0 0 0 0 0 0 0 0 0 0 0 0 0 0 0 0 0
0 6 142 190 110 52 0 0 0 0 2 0 0 0 0 0 0 0 0 0 0 0 0 0 0 0 0 0 0 0 0 0 0 0 0 0 0 0 0 0 0 0 0 0 0
0 13 116 104 3 0 0 0 0 2 7 0 0 0 0 0 0 0 0 0 0 0 0 0 0 0 0 0 0 0 0 0 0 0 0 0 0 0 0 0 0 0 0 0 0
0 8 92 85 0 0 0 0 0 0 9 0 0 0 0 0 0 0 0 0 0 0 0 0 0 0 0 0 0 0 0 0 0 0 0 0 0 0 0 0 0 0 0 2 0
0 0 0 0 13 0 0 2 0 0 0 0 0 0 0 0 0 0 0 0 0 0 0 0 0 0 0 0 0 0 0 0 0 0 0 0 0 0 0 0 0 0 0 6 2
0 3 0 0 9 0 0 0 0 0 0 1 4 7 1 0 0 0 0 0 0 0 0 0 0 0 0 0 0 0 0 0 0 0 0 0 0 0 0 0 0 0 1 3 0
0 0 0 0 0 0 0 0 0 0 0 0 0 0 6 0 0 0 0 0 0 0 0 0 0 0 0 0 0 0 0 0 0 0 0 0 0 0 0 0 0 0 19 10 1
0 1 0 0 0 0 1 0 0 0 0 1 0 0 0 0 0 0 0 0 0 0 0 0 0 0 0 0 0 0 0 0 0 0 0 0 0 0 0 0 0 1 65 112 19

GFSSW_con_mucape_051.txt.gz
CAPE
19 21 14 8 11 24 34 35 39 105 23 3 10 1 1 3 7 10 10 0 0 62 1 0 0 0 0 0 0 0 0 0 0 0 0 0 0 0 0 0 0 0 0 267 371
26 19 22 17 18 16 23 39 26 44 79 13 7 0 1 8 0 1 0 0 84 90 34 0 0 0 0 0 0 0 0 0 0 0 0 0 0 0 0 0 0 0 0 266 415
39 28 26 28 22 25 32 19 24 3 39 48 3 0 1 0 6 0 0 0 79 93 10 0 0 0 0 0 0 0 0 0 0 0 0 0 0 0 0 0 0 0 0 0 211
54 51 41 32 27 26 28 36 23 2 7 96 12 0 1 0 0 0 234 62 179 79 51 16 19 25 1 0 0 0 0 0 0 0 0 0 0 0 0 0 0 0 0 0 0
67 63 53 47 31 28 35 37 37 4 0 35 20 0 6 0 0 0 168 278 83 68 48 17 39 21 3 0 0 0 0 0 0 0 0 0 0 0 0 0 0 0 0 0 0
83 102 75 56 52 28 34 33 50 33 3 7 76 43 0 0 0 0 0 49 102 61 33 61 30 15 13 2 2 0 3 0 0 0 0 0 0 0 0 0 0 0 0 0 0
85 73 80 94 86 65 39 30 45 36 1 8 41 8 0 0 0 0 0 0 0 26 51 64 39 28 19 1 1 2 2 0 0 0 0 0 0 0 0 0 0 0 0 0 0
81 102 88 89 119 85 51 46 53 42 21 22 23 11 3 0 0 0 0 0 0 1 0 56 46 28 32 2 0 0 0 0 0 0 0 0 0 0 0 0 0 0 0 0 0
96 106 127 142 132 124 101 105 89 75 30 35 8 0 0 0 0 0 0 0 0 11 45 87 34 33 40 13 3 0 0 0 0 0 0 0 0 0 0 0 0 0 0 0 0
131 152 157 165 165 161 149 124 104 91 29 17 13 4 0 0 0 0 0 0 9 40 50 47 26 16 3 17 0 0 0 0 0 0 0 0 0 0 0 0 0 0 0 0 0
138 159 155 163 167 178 82 0 12 70 31 49 18 0 0 0 0 0 0 0 39 36 13 34 2 0 0 0 0 0 0 0 0 0 0 0 0 0 0 0 0 0 0 0 0
147 153 123 96 99 153 95 8 23 33 7 0 0 0 0 0 0 0 0 2 22 19 10 16 0 0 0 0 0 0 0 0 0 0 0 0 0 0 0 0 0 0 0 0 0
129 113 93 78 101 57 26 53 25 38 4 1 1 0 0 0 0 0 0 0 0 4 2 6 0 0 0 0 0 0 0 0 0 0 0 0 0 0 0 0 0 0 0 0 0
82 75 67 62 20 8 5 106 42 10 1 2 0 0 0 0 0 0 0 0 0 0 0 0 0 0 0 0 0 0 0 0 0 0 0 0 0 0 0 0 0 0 0 0 0
44 34 54 63 3 14 43 31 5 7 0 1 0 15 0 0 0 3 3 1 0 0 0 0 0 0 0 0 0 0 0 0 0 0 0 0 0 0 0 0 0 0 0 0 0
33 43 72 25 1 1 45 22 4 0 0 0 0 0 0 0 0 1 10 0 0 0 0 0 0 0 0 0 0 0 0 0 0 0 0 0 0 0 0 0 0 0 0 0 0
21 62 92 45 20 7 20 2 0 3 0 0 0 0 0 0 0 0 0 0 0 0 0 0 0 0 0 0 0 0 0 0 0 0 0 0 0 0 0 0 0 0 0 0 0
72 111 4 33 46 6 12 1 18 14 0 0 1 0 0 0 0 0 0 0 0 0 0 0 0 0 0 0 0 0 0 0 0 0 0 0 0 0 0 0 0 0 0 0 0
79 0 14 70 62 12 19 0 1 0 0 0 0 0 0 0 0 0 0 0 0 0 0 0 0 0 0 0 0 0 0 0 0 0 0 0 0 0 0 0 0 0 0 0 0
0 0 37 29 18 10 4 0 0 0 0 0 0 0 0 0 0 0 0 0 0 0 0 0 0 0 0 0 0 0 0 0 0 0 0 0 0 0 0 0 0 0 0 0 0
0 12 59 3 1 1 0 0 0 0 0 0 0 0 0 0 0 0 0 0 0 0 0 0 0 0 0 0 0 0 0 0 0 0 0 0 0 0 0 0 0 0 0 0 0
0 1 28 18 0 0 0 0 0 0 0 0 0 0 0 0 0 0 0 0 0 0 0 0 0 0 0 0 0 0 0 0 0 0 0 0 0 0 0 0 0 0 0 0 0
0 18 11 0 0 0 0 0 0 1 5 0 0 0 0 0 0 0 0 0 0 0 0 0 0 0 0 0 0 0 0 0 0 0 0 0 0 0 0 0 0 0 0 0 0
0 0 0 0 0 0 0 0 4 1 15 18 0 0 0 0 0 0 0 0 0 0 0 0 0 0 0 0 0 0 0 0 0 0 0 0 0 0 0 0 0 0 0 0 0
0 0 0 0 0 0 0 0 0 0 11 0 0 0 0 0 0 0 0 0 0 0 0 0 0 0 0 0 0 0 0 0 0 0 0 0 0 0 0 0 0 0 0 7 7
0 0 0 0 0 0 0 0 1 0 0 0 0 8 0 0 0 0 0 0 0 0 0 0 0 0 0 0 0 0 0 0 0 0 0 0 0 0 0 5 0 0 3 2 28
0 0 0 0 0 0 0 0 0 0 11 12 3 0 0 0 0 0 0 0 0 0 0 0 0 0 0 0 0 0 0 0 0 0 0 0 0 2 0 0 0 0 0 2 11

GFSSW_con_mucape_054.txt.gz
CAPE
25 15 27 28 28 19 20 16 12 34 13 70 34 10 8 6 16 7 7 0 0 11 0 0 0 0 0 0 0 0 0 0 0 0 0 0 0 0 0 0 0 0 0 0 229
34 29 38 29 37 30 28 19 11 15 2 44 74 34 7 15 16 7 0 0 1 26 81 0 0 0 0 0 0 0 0 0 0 0 0 0 0 0 0 0 0 0 84 260 403
45 56 52 58 27 38 39 34 18 22 1 22 27 99 4 13 4 0 0 0 25 86 24 49 0 0 0 0 0 0 0 0 0 0 0 0 0 0 0 0 0 0 276 313 451
49 51 58 51 51 38 35 46 24 22 27 0 40 65 3 0 0 0 204 0 162 206 77 53 10 15 0 0 0 0 0 0 0 0 0 0 0 0 0 0 0 0 0 41 338
63 67 71 83 67 63 55 26 47 38 20 16 6 21 2 0 0 0 294 190 69 140 46 0 4 10 0 0 0 0 0 0 0 0 0 0 0 0 0 0 0 0 0 0 0
59 64 78 89 110 92 69 55 34 30 11 17 3 30 6 0 0 0 87 203 167 136 61 39 27 19 0 0 0 0 0 0 0 0 0 0 0 0 0 0 0 0 0 0 0
67 71 90 114 95 104 126 87 49 28 17 15 8 25 1 0 0 24 56 186 195 159 39 42 46 27 5 0 0 1 2 0 0 0 0 0 0 0 0 0 0 0 0 0 0
91 97 113 104 133 138 163 135 78 48 23 18 3 12 0 0 0 0 0 0 6 119 101 67 40 10 13 0 0 3 2 0 0 0 0 0 0 0 0 0 0 0 0 0 0
112 124 127 137 160 165 162 169 152 134 80 47 22 32 10 0 0 0 0 0 18 21 63 118 64 27 0 0 1 0 0 0 0 0 0 0 0 0 0 0 0 0 0 0 0
112 115 144 148 160 158 165 214 155 97 53 78 36 41 1 0 0 0 0 0 8 93 60 88 50 63 2 0 0 0 0 0 0 0 0 0 0 0 0 0 0 0 0 0 0
112 134 118 97 113 145 74 22 0 22 42 0 0 0 8 0 0 0 0 0 67 105 67 44 17 19 0 0 0 0 0 0 0 0 0 0 0 0 0 0 0 0 0 0 0
99 89 76 79 113 130 28 17 18 19 22 2 21 11 8 0 1 0 0 17 56 10 17 19 10 12 6 0 0 0 0 0 0 0 0 0 0 0 0 0 0 0 0 0 0
69 71 48 50 70 23 1 2 2 20 25 0 8 11 26 0 8 0 0 16 46 14 12 2 0 0 0 0 0 0 0 0 0 0 0 0 0 0 0 0 0 0 0 0 0
64 50 34 39 4 0 0 35 33 85 1 0 18 0 0 0 6 0 4 15 37 13 12 5 0 5 6 0 0 0 0 0 0 0 0 0 0 0 0 0 0 0 0 0 0
59 52 54 63 3 0 1 21 6 29 0 18 0 0 2 0 0 15 20 28 3 19 4 1 1 0 0 0 0 0 0 0 0 0 0 0 0 0 0 0 0 0 0 0 0
30 29 76 26 17 8 4 10 33 0 1 12 0 10 0 0 0 28 25 12 9 7 3 0 0 0 0 0 0 0 0 0 0 0 0 0 0 0 0 0 0 0 0 0 0
22 86 87 49 39 7 1 32 0 10 3 1 12 19 0 0 0 6 0 6 3 0 0 0 0 0 0 0 0 0 0 0 0 0 0 0 0 0 0 0 0 0 0 0 0
102 66 15 27 32 2 11 0 9 1 0 0 5 0 0 0 0 0 0 0 0 0 0 0 0 0 0 0 0 0 0 0 0 0 0 0 0 0 0 0 0 0 0 0 0
38 4 5 35 23 1 0 15 10 0 0 0 0 0 0 0 0 0 0 0 0 0 0 0 0 0 0 0 0 0 0 0 0 0 0 0 0 0 0 0 0 0 0 0 0
0 9 25 21 7 0 0 0 0 2 5 0 0 0 0 0 0 0 0 0 0 0 0 0 0 0 0 0 0 0 0 0 0 0 0 0 0 0 0 0 0 0 0 0 0
0 12 22 12 3 0 3 6 0 1 0 0 0 0 0 0 0 0 0 0 0 0 0 0 0 0 0 0 0 0 0 0 0 0 0 0 0 0 0 0 0 0 0 0 0
0 0 3 1 0 0 0 0 2 1 0 0 0 0 0 0 0 0 0 0 0 0 0 0 0 0 0 0 0 0 0 0 0 0 0 0 0 0 0 0 0 0 0 0 0
0 0 0 0 0 0 0 0 1 0 1 0 0 0 0 0 0 0 0 0 0 0 0 0 0 0 0 0 0 0 0 0 0 0 0 0 0 0 0 0 0 0 0 0 0
0 0 0 0 0 0 1 0 0 1 0 0 0 0 0 0 0 0 0 0 0 0 11 0 0 0 0 0 0 0 0 0 0 0 0 0 0 0 0 0 0 0 0 0 0
0 0 0 0 0 2 0 0 0 1 0 0 0 0 0 0 0 0 0 0 0 6 0 0 0 0 0 0 0 0 0 0 0 0 0 0 0 0 0 0 0 0 0 0 0
0 0 0 0 0 0 0 0 0 0 0 0 0 0 0 0 0 0 0 0 0 0 0 0 0 0 0 0 0 0 0 0 0 0 0 0 0 0 0 1 0 0 10 0 0
0 0 0 0 0 0 0 0 0 0 0 1 4 0 0 0 0 0 0 0 0 0 0 0 0 0 0 0 0 0 0 0 0 0 0 0 0 0 0 8 0 0 0 0 0

GFSSW_con_mucape_057.txt.gz
CAPE
34 21 18 32 32 29 29 18 14 7 1 0 11 29 77 36 21 13 3 0 0 0 169 4 34 1 0 0 0 0 0 0 0 0 0 0 0 0 0 0 0 0 0 0 187
50 44 44 39 52 45 25 18 26 14 12 0 2 39 51 51 2 9 0 0 0 5 30 0 0 0 0 0 0 0 0 0 0 0 0 0 0 0 0 0 0 0 0 2 239
66 66 60 54 53 48 51 29 39 27 21 4 5 27 31 10 0 0 0 0 0 49 35 13 1 0 0 0 0 0 0 0 0 0 0 0 0 0 0 0 0 0 25 90 246
39 59 58 67 66 68 68 63 47 51 28 13 1 31 50 1 0 0 125 139 0 90 25 84 40 18 0 0 0 0 0 0 0 0 0 0 0 0 0 0 0 0 217 281 329
55 62 68 86 98 122 121 79 70 55 53 27 14 22 59 16 0 5 0 384 0 147 63 50 45 9 0 0 0 0 0 0 0 0 0 0 0 0 0 0 0 0 29 295 356
82 85 89 109 118 120 121 138 104 81 46 28 24 8 28 1 0 0 0 186 15 213 111 44 37 0 0 0 0 0 0 0 0 0 0 0 0 0 0 0 0 0 0 0 2
92 101 115 143 140 146 137 158 157 98 73 39 25 33 54 1 0 0 0 291 148 240 104 62 19 31 15 0 0 0 0 0 0 0 0 0 0 0 0 0 0 0 0 0 0
98 99 110 120 133 144 155 179 185 148 146 96 83 59 10 4 5 1 37 71 203 221 120 119 77 29 17 2 1 12 7 0 0 0 0 0 0 0 0 0 0 0 0 0 0
102 90 99 104 103 105 135 179 215 222 183 159 61 41 3 7 0 0 13 0 19 125 136 171 131 47 36 13 2 11 0 0 0 0 0 0 0 0 0 0 0 0 0 0 0
91 101 88 72 75 87 143 222 243 206 125 121 78 29 10 0 0 0 9 0 37 113 130 176 119 30 25 10 0 0 0 0 0 0 0 0 0 0 0 0 0 0 0 0 0
77 72 70 64 64 135 19 0 0 0 104 3 0 0 31 0 1 5 0 0 105 113 87 75 0 0 2 5 0 0 0 0 0 0 0 0 0 0 0 0 0 0 0 0 0
67 68 59 59 33 76 6 0 0 0 17 0 25 9 21 23 0 1 0 1 31 76 79 30 0 0 0 0 0 0 0 0 0 0 0 0 0 0 0 0 0 0 0 0 0
53 56 62 56 59 5 1 0 16 15 58 3 0 0 20 14 5 0 0 4 47 54 60 4 5 25 3 0 0 0 0 0 0 0 0 0 0 0 0 0 0 0 0 0 0
45 46 31 57 7 0 0 18 27 37 0 1 27 0 31 8 0 17 0 12 32 48 47 23 0 0 0 0 0 0 0 0 0 0 0 0 0 0 0 0 0 0 0 0 0
28 13 33 63 3 1 0 39 8 23 0 24 0 10 0 13 0 1 1 27 15 1 0 0 0 0 0 0 0 0 0 0 0 0 0 0 0 0 0 0 0 0 0 0 0
40 61 145 116 39 22 26 0 31 0 0 1 0 0 18 0 4 0 46 33 30 26 17 2 0 0 0 0 0 0 0 0 0 0 0 0 0 0 0 0 0 0 0 0 0
77 188 51 62 27 21 1 6 0 0 0 0 0 4 3 0 0 0 1 14 10 0 0 0 1 0 0 0 0 0 0 0 0 0 0 0 0 0 0 0 0 0 0 0 0
139 22 4 27 29 1 0 0 0 0 0 0 0 18 17 0 0 12 5 1 12 0 0 0 0 0 0 0 0 0 0 0 0 0 0 0 0 0 0 0 0 0 0 0 0
9 2 13 30 6 0 0 0 0 0 0 6 20 0 1 0 0 0 0 0 5 0 0 0 0 0 0 0 0 0 0 0 0 0 0 0 0 0 0 0 0 0 0 0 0
0 0 14 6 0 0 0 0 0 0 0 10 0 0 0 0 0 0 0 0 0 0 0 0 0 0 0 0 0 0 0 0 0 0 0 0 0 0 0 0 0 0 0 0 0
0 0 0 0 0 0 3 0 4 0 0 0 0 0 0 0 0 0 0 0 0 0 0 0 0 0 0 0 0 0 0 0 0 0 0 0 0 0 0 0 0 0 0 0 0
0 0 0 0 0 0 0 0 0 0 0 0 0 0 0 0 0 0 0 0 0 0 0 0 0 0 0 0 0 0 0 0 0 0 0 0 0 0 0 0 0 0 0 0 0
0 0 0 0 0 0 0 0 0 0 0 0 0 0 0 0 0 0 0 0 0 0 0 0 0 0 0 0 0 0 0 0 0 0 0 0 0 0 0 0 0 0 0 0 0
0 0 0 0 0 0 0 0 0 0 0 0 0 0 0 0 0 0 0 0 0 0 0 0 0 0 0 0 0 0 0 0 0 0 0 0 0 0 0 0 0 0 0 0 0
0 0 0 0 0 0 0 0 0 0 0 0 0 0 0 0 0 0 0 0 0 19 0 0 0 0 0 0 0 0 0 0 0 0 0 0 0 0 0 0 0 0 0 0 0
0 0 0 0 0 0 0 0 0 0 0 0 0 0 0 0 0 0 0 0 0 0 0 0 0 0 0 0 0 0 0 0 0 0 0 0 0 0 0 0 0 0 0 0 0
0 0 0 0 0 0 0 0 0 0 0 0 0 0 0 0 0 0 0 0 0 0 0 0 0 0 0 0 0 0 0 0 0 0 0 0 0 0 0 0 0 0 0 0 0

GFSSW_con_mucape_060.txt.gz
CAPE
46 76 61 59 57 43 54 42 32 28 24 7 1 0 25 7 65 21 1 0 0 0 43 1 7 66 14 0 0 0 0 0 0 0 0 0 0 0 0 0 0 0 0 0 87
29 29 56 63 82 76 60 55 57 56 31 25 13 0 9 29 17 4 0 0 0 0 4 30 38 40 28 0 0 0 0 0 0 0 0 0 0 0 0 0 0 0 0 0 565
42 47 54 66 72 73 79 80 89 65 62 41 31 3 10 45 17 2 0 2 8 0 17 16 29 34 23 0 0 0 0 0 0 0 0 0 0 0 0 0 0 0 0 0 649
70 84 86 86 82 93 92 100 107 101 76 61 40 16 14 33 0 3 185 9 37 0 49 56 25 35 22 6 0 0 0 0 0 0 0 0 0 0 0 0 0 0 0 33 255
72 85 91 98 98 104 106 114 118 149 122 69 56 13 5 16 11 40 11 68 172 0 86 53 34 26 10 9 0 0 0 0 0 0 0 0 0 0 0 0 0 0 0 21 297
86 85 85 85 94 103 111 129 152 161 124 135 56 26 17 0 2 12 0 0 172 0 204 96 38 20 9 0 0 0 0 0 0 0 0 0 0 0 0 0 0 0 0 169 75
80 82 80 87 80 78 87 98 143 163 175 177 138 63 9 0 3 0 1 26 84 44 272 122 71 18 6 0 0 0 0 0 0 0 0 0 0 0 0 0 0 0 0 0 171
93 83 105 92 80 70 68 83 115 163 200 197 173 83 0 8 0 9 0 24 86 153 260 225 132 61 39 0 0 0 0 0 0 0 0 0 0 0 0 0 0 0 0 0 0
93 107 95 81 73 74 74 157 201 246 256 235 80 66 0 44 1 30 4 34 189 190 186 210 150 47 53 20 3 0 0 0 0 0 0 0 0 0 0 0 0 0 0 0 0
103 84 103 106 81 79 63 179 142 121 130 142 76 14 0 19 3 61 46 17 23 108 91 127 70 34 42 18 0 0 0 0 0 0 0 0 0 0 0 0 0 0 0 0 0
73 79 58 57 73 60 16 0 0 0 37 0 0 0 0 13 9 16 33 10 36 106 95 56 5 20 0 2 0 0 0 0 0 0 0 0 0 0 0 0 0 0 0 0 0
67 28 32 60 96 103 8 0 0 8 24 0 0 0 0 8 28 39 25 19 8 52 62 0 1 0 35 18 9 5 0 0 0 0 0 0 0 0 0 0 0 0 0 0 0
56 63 47 53 67 18 1 0 8 17 0 0 0 0 28 5 8 38 13 1 18 44 38 0 0 0 0 1 0 0 0 0 0 0 0 0 0 0 0 0 0 0 0 0 0
40 34 58 102 4 0 0 0 25 26 0 0 1 32 1 0 26 2 0 18 37 35 47 0 25 0 0 0 0 0 0 0 0 0 0 0 0 0 0 0 0 0 0 0 0
99 197 230 190 21 0 0 19 0 14 0 2 3 29 22 36 6 32 0 41 34 19 25 0 0 47 0 0 0 0 0 0 0 0 0 0 0 0 0 0 0 0 0 0 0
122 87 40 10 1 20 23 0 14 0 0 0 0 5 13 6 3 1 10 28 21 4 0 0 11 28 22 14 6 1 0 0 0 0 0 0 0 0 0 0 0 0 0 0 0
67 6 8 22 1 7 0 8 2 0 1 0 0 9 9 6 0 2 29 27 12 0 0 0 1 0 14 1 0 0 0 0 0 0 0 0 0 0 0 0 0 0 0 0 0
28 0 0 12 1 0 0 3 12 0 0 0 16 1 0 0 1 1 12 3 10 0 0 0 0 0 0 0 0 0 0 0 0 0 0 0 0 0 0 0 0 0 0 0 0
0 0 0 0 0 0 0 0 0 0 0 0 2 5 1 0 0 0 0 1 1 1 0 0 0 0 0 0 0 0 0 0 0 0 0 0 0 0 0 0 0 0 0 0 0
0 0 0 0 0 0 0 0 0 0 0 0 0 0 0 0 0 0 0 0 0 0 0 0 0 0 0 0 0 0 0 0 0 0 0 0 0 0 0 0 0 0 0 0 0
0 0 0 0 0 2 0 0 0 0 0 0 0 0 0 0 0 0 0 0 0 0 0 0 0 0 0 0 0 0 0 0 0 0 0 0 0 0 0 0 0 0 0 0 0
0 0 0 0 0 0 0 0 0 0 0 0 0 0 0 0 0 0 0 0 0 0 0 0 0 0 0 0 0 0 0 0 0 0 0 0 0 0 0 0 0 0 0 0 0
0 0 0 0 0 0 0 0 0 0 0 0 0 0 0 0 0 0 0 0 0 0 0 0 0 0 0 0 0 0 0 0 0 0 0 0 0 0 0 0 0 0 0 0 0
0 0 0 0 0 0 0 0 0 0 0 0 0 0 0 0 0 0 0 0 0 0 0 0 0 0 0 0 0 0 0 0 0 0 0 0 0 0 0 0 0 0 0 0 0
0 0 0 0 0 0 0 0 0 0 0 0 0 0 0 0 0 0 0 0 0 2 0 0 0 0 0 0 0 0 0 0 0 0 0 0 0 0 0 0 0 0 0 0 0
0 0 0 0 0 0 0 0 0 0 0 0 0 0 0 0 0 0 0 0 0 0 0 0 0 0 0 0 0 0 0 0 0 0 0 0 0 0 0 0 0 0 0 0 0
0 0 0 0 0 0 0 0 0 0 0 0 0 0 0 0 0 0 0 0 0 0 0 0 0 0 0 0 0 0 0 0 0 0 0 0 0 0 0 0 0 0 0 0 0

GFSSW_con_mucape_063.txt.gz
CAPE
49 39 45 42 56 59 63 64 61 49 48 32 4 8 2 7 13 12 30 0 0 0 95 1 14 96 62 0 0 0 0 0 0 0 0 0 0 0 0 0 0 0 0 0 50
57 70 66 64 77 66 70 69 74 65 58 54 44 8 16 1 8 6 19 3 1 0 0 6 19 30 35 4 0 0 0 0 0 0 0 0 0 0 0 0 0 0 0 53 520
54 67 69 62 78 76 82 91 91 79 84 77 57 60 16 20 2 0 2 357 152 18 5 3 79 22 22 0 0 0 0 0 0 0 0 0 0 0 0 0 0 0 0 40 939
70 70 67 71 76 96 100 85 100 103 105 97 108 58 34 17 0 5 9 254 381 60 0 66 50 40 29 3 0 0 0 0 0 0 0 0 0 0 0 0 0 0 0 0 278
82 82 75 69 84 85 81 84 101 100 113 89 118 101 20 0 0 34 45 13 2 98 0 75 23 40 25 9 1 0 0 0 0 0 0 0 0 0 0 0 0 0 0 0 0
84 86 80 83 94 87 90 84 76 74 79 102 155 117 32 0 0 3 40 17 57 45 3 138 45 9 21 14 2 0 0 0 0 0 0 0 0 0 0 0 0 0 0 0 0
72 92 91 93 102 87 83 67 60 44 71 133 200 132 50 0 0 0 38 12 6 26 2 130 126 61 3 8 9 0 0 0 0 0 0 0 0 0 0 0 0 0 0 0 0
94 90 91 95 100 92 83 71 76 123 194 235 243 105 1 0 0 0 0 7 9 19 35 230 140 93 44 2 0 3 6 0 0 0 0 0 0 0 0 0 0 0 0 0 0
78 86 88 80 99 90 89 135 128 201 236 270 114 31 4 0 1 28 8 1 46 23 167 307 158 112 70 15 6 11 0 0 0 0 0 0 0 0 0 0 0 0 0 0 0
68 78 80 60 99 113 131 142 115 28 45 128 52 15 0 0 88 63 33 39 76 214 221 133 97 84 76 13 0 0 0 0 0 0 0 0 0 0 0 0 0 0 0 0 0
47 54 60 88 60 120 48 0 0 0 0 0 0 0 0 0 21 30 40 27 78 130 82 56 0 0 0 6 0 0 0 0 0 0 0 0 0 0 0 0 0 0 0 0 0
56 44 22 30 42 52 13 0 0 0 0 0 0 0 0 4 9 100 32 22 64 62 75 5 0 0 3 19 15 1 0 0 0 0 0 0 0 0 0 0 0 0 0 0 0
62 96 122 149 20 21 0 0 9 0 29 0 0 0 0 0 9 66 9 0 20 38 54 22 0 0 61 20 11 2 0 0 0 0 0 0 0 0 0 0 0 0 0 0 0
71 68 88 63 2 1 0 0 46 11 3 0 3 25 0 5 0 3 24 17 27 14 34 13 0 0 0 5 1 0 5 0 0 0 0 0 0 0 0 0 0 0 0 0 0
66 51 56 11 0 0 0 24 6 0 0 21 6 10 6 3 31 23 0 6 36 17 1 0 0 0 0 0 0 10 0 0 0 0 0 0 0 0 0 0 0 0 0 0 0
66 35 35 5 10 22 11 17 3 0 0 0 0 0 0 3 8 3 0 27 29 7 6 1 7 6 0 0 0 0 0 0 0 0 0 0 0 0 0 0 0 0 0 0 0
18 13 3 0 0 0 0 0 0 0 0 0 0 4 0 0 7 16 13 25 18 33 0 8 0 0 3 0 0 0 0 0 0 0 0 0 0 0 0 0 0 0 0 0 0
0 0 0 0 0 0 0 0 0 0 0 0 0 28 7 0 0 1 16 27 22 0 0 0 1 0 26 0 0 0 0 0 0 0 0 0 0 0 0 0 0 0 0 0 0
0 0 0 0 1 0 0 0 0 0 1 0 5 3 3 4 0 0 0 0 8 0 0 0 0 0 0 0 0 0 0 0 0 0 0 0 0 0 0 0 0 0 0 0 0
0 0 0 0 0 0 0 0 0 1 0 0 13 1 0 0 0 0 0 0 0 0 0 0 0 0 0 0 0 0 0 0 0 0 0 0 0 0 0 0 0 0 0 0 0
0 0 0 0 0 0 0 0 0 0 0 0 0 0 0 0 0 0 0 0 0 0 0 0 0 0 0 0 0 0 0 0 0 0 0 0 0 0 0 0 0 0 0 0 0
0 0 0 0 0 0 0 0 0 0 0 0 0 0 0 0 0 0 0 0 0 0 0 0 0 0 0 0 0 0 0 0 0 0 0 0 0 0 0 0 0 0 0 0 0
0 0 0 0 0 0 0 0 0 0 0 0 0 0 0 0 0 0 0 0 0 0 0 0 0 0 0 0 0 0 0 0 0 0 0 0 0 0 0 0 0 0 0 0 0
0 0 0 0 0 0 0 0 0 0 0 0 0 0 0 0 0 0 0 0 0 0 0 0 0 0 0 0 0 0 0 0 0 0 0 0 0 0 0 0 0 0 0 0 0
0 0 0 0 0 0 0 0 0 0 0 0 0 0 0 0 0 0 0 0 0 0 0 0 0 0 0 0 0 0 0 0 0 0 0 0 0 0 0 0 0 0 0 0 0
0 0 0 0 0 0 0 0 0 0 0 0 0 0 0 0 0 0 0 0 0 0 0 0 0 0 0 0 0 0 0 0 0 0 0 0 0 0 0 0 0 0 0 0 0
0 0 0 0 0 0 0 0 0 0 0 0 0 0 0 0 0 0 0 0 0 0 0 0 0 0 0 0 0 0 0 0 0 0 0 0 0 0 0 0 0 0 0 0 0

GFSSW_con_mucape_066.txt.gz
CAPE
36 70 65 59 63 68 77 71 63 66 55 54 46 28 3 2 1 2 3 10 2 0 101 7 13 97 60 0 0 0 0 0 0 0 0 0 0 0 0 0 0 0 0 0 58
49 67 66 70 69 60 68 87 100 87 84 73 54 59 55 18 2 0 0 20 175 19 2 27 8 105 100 12 0 0 0 0 0 0 0 0 0 0 0 0 0 0 0 87 259
65 62 60 59 60 63 64 67 83 97 100 85 95 68 51 33 0 0 0 1 355 247 13 11 36 138 91 49 0 0 0 0 0 0 0 0 0 0 0 0 0 0 0 134 349
73 71 69 85 85 78 68 69 73 85 81 117 99 88 77 38 0 59 12 60 418 244 76 37 54 129 45 18 12 0 0 0 0 0 0 0 0 0 0 0 0 0 0 0 402
71 71 73 70 80 91 98 106 97 102 84 79 75 93 54 16 0 25 17 21 15 114 78 39 46 114 30 25 37 3 0 0 0 0 0 0 0 0 0 0 0 0 0 0 0
66 62 56 74 75 80 88 84 95 93 75 62 68 75 43 0 0 28 43 19 12 24 173 18 26 73 57 37 16 15 20 0 0 0 0 0 0 0 0 0 0 0 0 0 0
68 62 69 82 81 112 124 129 119 96 91 91 92 70 48 0 0 0 58 31 18 22 187 1 118 69 39 41 40 23 11 10 0 0 0 0 0 0 0 0 0 0 0 0 0
70 72 68 87 108 136 167 172 156 158 179 216 167 126 11 0 0 0 3 58 15 12 210 1 239 146 62 53 57 56 29 20 0 0 0 0 0 0 0 0 0 0 0 0 0
71 56 59 74 84 72 105 184 209 180 216 264 174 114 3 0 2 1 0 35 38 34 180 99 260 140 89 70 69 47 0 0 0 0 0 0 0 0 0 0 0 0 0 0 0
62 67 71 81 84 87 84 128 135 25 62 166 52 101 21 0 0 18 0 1 18 148 256 164 165 187 91 89 0 0 0 0 0 0 0 0 0 0 0 0 0 0 0 0 0
58 83 113 144 168 37 79 47 7 2 66 10 14 1 44 0 0 19 3 14 67 261 63 77 74 3 17 60 35 3 0 0 0 0 0 0 0 0 0 0 0 0 0 0 0
67 81 83 66 95 36 0 0 0 1 0 0 0 4 5 1 3 47 61 67 55 224 36 67 22 0 29 53 2 0 0 0 0 0 0 0 0 0 0 0 0 0 0 0 0
57 72 66 44 37 10 8 2 25 0 0 4 0 2 2 9 0 8 9 22 87 91 46 16 6 17 6 46 4 18 0 0 0 0 0 0 0 0 0 0 0 0 0 0 0
46 50 30 3 0 13 11 0 20 4 20 0 39 45 0 16 0 19 1 16 21 3 18 7 2 0 0 0 4 0 0 0 0 0 0 0 0 0 0 0 0 0 0 0 0
32 19 8 0 0 0 0 7 0 30 0 62 45 19 7 0 5 22 1 12 42 2 4 0 0 9 0 0 0 0 0 0 0 0 0 0 0 0 0 0 0 0 0 0 0
15 10 0 6 0 0 0 18 2 0 0 0 0 21 0 0 0 0 20 12 35 18 9 0 0 0 0 0 0 10 0 2 1 0 0 0 0 0 0 0 0 0 0 0 0
1 0 0 0 0 0 0 0 0 0 0 0 0 4 8 0 1 0 6 41 53 66 0 3 0 0 0 0 0 0 2 0 0 0 0 0 0 0 0 0 0 0 0 0 0
0 0 0 0 0 0 0 0 0 0 0 0 0 0 14 0 0 21 28 11 0 0 0 0 0 0 0 0 0 0 0 0 0 0 0 0 0 0 0 0 0 0 0 0 0
0 0 0 0 0 0 0 0 0 7 28 11 1 8 5 2 0 1 0 12 0 0 0 0 0 0 0 0 0 0 0 0 0 0 0 0 0 0 0 0 0 0 0 0 0
0 0 0 0 0 0 0 0 0 0 0 0 0 10 0 10 10 12 0 7 5 3 0 0 0 0 0 0 1 0 0 0 0 0 0 0 0 0 0 0 0 0 0 0 0
0 0 0 0 0 0 0 0 0 0 0 0 0 0 0 0 0 0 0 1 0 0 0 0 0 0 0 0 0 0 0 0 0 0 0 0 0 0 0 0 0 0 0 0 0
0 0 0 0 0 0 0 0 0 0 0 0 0 0 0 0 0 0 0 0 0 0 0 0 0 0 0 0 0 0 0 0 0 0 0 0 0 0 0 0 0 0 0 0 0
0 0 0 0 0 0 0 0 0 0 0 0 0 0 0 0 0 0 0 0 0 0 0 0 0 0 0 0 0 0 0 0 0 0 0 0 0 0 0 0 0 0 0 0 0
0 0 0 0 0 0 0 0 0 0 0 0 0 0 0 0 0 0 0 0 0 0 0 0 0 0 0 0 0 0 0 0 0 0 0 0 0 0 0 0 0 0 0 0 0
0 0 0 0 0 0 0 0 0 0 0 0 0 0 0 0 0 0 0 0 0 0 0 0 0 0 0 0 0 0 0 0 0 0 0 0 0 0 0 0 0 0 0 0 0
0 0 0 0 0 0 0 0 0 0 0 0 0 0 0 0 0 0 0 0 0 0 0 0 0 0 0 0 0 0 0 0 0 0 0 0 0 0 0 0 0 0 0 0 0
0 0 0 0 0 0 0 0 0 0 0 0 0 0 0 0 0 0 0 0 0 0 0 0 0 0 0 0 0 0 0 0 0 0 0 0 0 0 0 0 0 0 0 0 0

GFSSW_con_mucape_069.txt.gz
CAPE
58 72 68 64 67 65 67 64 72 76 65 59 50 52 58 39 9 0 0 7 19 50 0 16 10 144 230 127 3 0 6 9 0 0 0 8 1 0 0 0 0 0 0 15 738
81 73 79 75 73 65 59 62 45 53 75 73 85 63 54 58 33 0 0 0 16 182 12 19 15 169 128 23 9 0 0 0 0 0 4 0 0 0 0 0 0 0 0 6 267
85 77 74 86 83 79 73 64 65 55 69 90 92 110 69 59 22 0 0 0 56 248 96 11 35 108 234 104 6 0 0 0 0 0 0 0 0 0 0 0 0 0 0 0 35
90 81 79 70 64 68 72 80 98 108 100 114 109 87 90 52 0 49 15 2 16 189 104 18 12 58 138 156 34 0 0 0 9 0 0 0 0 0 0 0 0 0 0 0 133
85 84 77 77 90 84 93 95 119 126 125 100 107 112 90 36 0 7 5 6 8 80 121 91 7 44 39 30 65 13 0 0 0 0 0 0 0 0 0 0 0 0 0 0 0
81 79 81 82 86 106 116 132 171 161 132 98 87 104 60 12 0 1 31 11 14 39 80 109 12 10 57 55 101 17 25 3 0 0 0 0 0 0 0 0 0 0 0 0 0
62 73 77 64 66 96 123 165 202 223 229 225 154 77 45 7 4 0 7 48 29 12 9 162 77 28 57 63 94 60 31 25 0 0 0 0 0 0 0 0 0 0 0 0 0
59 56 53 63 69 71 78 109 175 252 274 293 233 144 22 0 0 0 0 22 15 22 7 69 206 126 57 76 41 76 31 28 30 2 0 0 0 0 0 0 0 0 0 0 0
45 36 64 104 135 117 90 97 110 234 231 225 170 173 40 0 0 0 0 12 54 32 31 91 129 197 136 113 122 77 22 17 9 0 0 0 0 0 0 0 0 0 0 0 0
39 66 96 102 116 115 146 61 44 79 90 97 99 101 20 8 0 0 0 0 7 27 55 146 108 156 215 88 211 19 0 6 0 6 0 0 0 0 0 0 0 0 0 0 0
51 72 85 97 114 115 8 11 54 24 84 51 36 50 56 25 27 20 0 0 0 22 189 88 78 3 14 0 0 0 19 32 14 2 0 0 0 0 0 0 0 0 0 0 0
51 60 73 105 41 19 23 34 28 2 0 2 0 6 15 15 12 2 28 2 36 0 36 52 17 19 32 12 0 0 0 9 18 5 0 0 0 0 0 0 0 0 0 0 0
60 55 39 82 1 19 21 16 3 0 0 5 11 22 44 31 7 2 62 6 2 2 19 3 1 19 1 13 21 53 0 0 0 0 0 0 0 0 0 0 0 0 0 0 0
61 54 26 18 1 16 0 0 0 9 6 24 46 26 36 47 20 1 43 0 79 0 56 30 12 15 0 0 13 30 23 35 0 0 0 0 0 0 0 0 0 0 0 0 0
0 52 11 0 0 0 0 23 16 16 0 66 49 37 44 11 0 17 4 4 33 45 9 13 12 39 46 0 0 0 20 48 1 1 0 0 0 0 0 0 0 0 0 0 0
0 0 0 0 0 0 0 0 0 0 0 22 30 17 4 0 2 12 36 38 5 0 8 0 4 5 0 2 0 0 0 0 10 15 0 1 0 0 0 0 0 0 0 0 0
0 0 0 0 0 0 0 0 4 0 0 0 1 3 0 0 9 0 0 0 0 3 0 0 0 0 0 0 0 0 0 0 0 0 0 0 0 0 0 0 0 0 0 0 0
0 0 0 0 0 0 0 0 0 0 0 0 23 8 0 0 1 0 55 9 19 0 0 0 0 0 0 0 0 0 0 95 0 0 0 0 0 0 0 0 0 0 0 0 0
0 0 0 0 0 0 0 0 0 0 0 0 0 0 0 28 5 14 4 0 7 0 0 0 0 0 0 0 0 0 0 0 0 0 0 0 0 0 0 0 0 0 0 0 0
0 0 0 0 0 0 0 0 0 0 0 2 7 0 0 24 38 18 39 0 0 0 0 0 0 0 0 0 0 0 0 0 0 0 0 0 0 0 0 0 0 0 0 0 0
0 2 0 0 0 0 0 0 0 0 0 0 8 0 5 7 11 1 3 0 0 0 0 0 0 0 0 0 0 0 0 0 0 0 0 0 0 0 0 0 0 0 0 0 0
0 17 0 0 0 0 5 0 0 0 0 0 2 5 4 0 2 1 5 2 0 0 0 0 0 0 0 0 0 0 0 0 0 0 0 0 0 0 0 0 0 0 0 0 0
0 0 0 0 0 3 0 0 0 0 0 0 0 0 0 0 0 0 0 0 0 0 0 0 0 0 0 0 0 0 0 0 0 0 0 0 0 0 0 0 0 0 0 0 0
0 0 0 6 0 0 0 1 0 0 0 0 0 0 0 0 0 0 0 0 0 0 0 0 0 0 0 0 0 0 0 0 0 0 0 0 0 0 0 0 0 0 0 0 0
0 0 0 3 0 0 0 10 3 0 0 0 0 0 0 0 0 0 0 0 0 0 0 0 0 0 0 0 0 0 0 0 0 0 0 0 0 0 0 0 0 0 0 0 0
0 0 0 0 0 0 0 0 0 2 0 0 0 0 0 0 0 0 0 0 0 0 0 0 0 0 0 0 0 0 0 0 0 0 0 0 0 0 0 0 0 0 0 0 0
0 0 0 0 8 1 0 0 0 0 1 0 0 0 0 0 0 0 0 0 0 0 0 0 0 0 0 0 0 0 0 0 0 0 0 0 0 0 0 0 0 0 0 0 0

GFSSW_con_mucape_072.txt.gz
CAPE
83 81 88 76 86 96 89 96 79 71 48 61 72 59 49 57 59 7 0 0 8 60 37 20 0 41 293 271 200 5 4 0 2 10 4 4 5 22 0 0 0 0 2 671 1193
73 77 81 74 74 61 57 78 84 78 72 49 68 81 67 47 40 0 5 11 1 42 59 26 3 42 123 177 202 33 0 0 0 0 3 18 0 1 0 0 0 0 24 466 1075
76 65 69 71 81 75 71 74 75 73 68 72 76 87 100 62 0 0 1 2 3 19 65 56 21 9 88 105 138 13 0 0 0 0 46 19 0 0 0 0 0 0 0 3 822
62 70 74 83 79 81 84 87 85 86 95 85 91 104 111 58 0 30 12 0 5 2 98 75 5 31 70 22 52 1 0 0 0 31 22 33 0 0 0 0 0 0 0 37 29
75 57 42 58 67 70 76 102 102 99 97 73 61 91 46 50 4 19 7 0 3 27 68 79 21 6 16 21 107 59 0 0 0 6 0 0 0 0 8 0 0 0 0 0 62
70 62 57 50 48 49 63 87 119 112 137 136 127 107 36 7 1 11 1 5 25 9 12 59 29 0 32 26 39 66 73 10 8 0 0 0 0 0 0 0 0 0 0 0 0
64 53 34 43 67 76 116 105 129 125 160 219 189 161 29 10 30 29 0 30 16 22 8 44 98 8 13 52 41 87 65 59 12 0 0 0 0 0 0 0 0 0 0 0 0
56 48 42 68 78 112 171 182 142 108 162 260 261 143 16 10 5 0 0 0 41 16 12 6 29 67 17 57 49 40 36 66 36 3 1 0 0 0 0 0 0 0 0 0 0
40 47 46 62 74 101 144 189 167 137 154 213 134 144 6 50 3 0 0 0 14 7 12 15 47 105 70 38 41 88 39 0 3 16 5 0 0 0 0 0 0 0 0 0 0
35 44 68 70 65 69 121 123 60 17 94 67 99 38 15 10 2 0 0 5 22 25 22 39 127 99 63 52 11 0 0 0 0 0 0 0 0 0 0 0 0 0 0 0 0
32 44 61 64 30 31 48 2 16 23 48 11 15 24 40 13 0 0 0 8 5 0 32 122 91 13 0 0 0 5 0 0 0 0 10 0 0 0 0 0 0 0 0 0 0
0 0 41 43 42 34 28 24 14 24 3 13 15 14 22 4 0 1 6 7 0 3 0 49 4 0 0 11 14 24 2 8 22 24 4 0 0 0 0 0 0 0 0 0 0
0 0 0 13 22 50 7 0 0 5 0 7 2 11 21 17 6 1 83 10 0 0 10 33 0 0 38 15 11 0 0 0 4 2 2 0 0 0 0 0 0 0 0 0 0
0 0 0 1 0 8 5 19 24 19 0 22 8 22 63 35 8 27 80 2 0 0 0 25 27 0 29 22 6 0 0 14 19 0 0 0 0 0 0 0 0 0 0 0 0
0 0 0 0 0 0 0 4 0 3 0 11 1 0 59 13 0 15 6 0 0 0 0 9 0 36 6 1 18 2 1 11 16 0 0 0 0 0 0 0 0 0 0 0 0
0 0 0 0 0 0 0 0 0 0 0 0 10 16 11 5 12 20 0 0 0 22 0 0 25 24 13 1 0 0 0 10 7 1 0 0 0 0 0 0 0 0 0 0 0
0 0 0 0 0 0 0 0 0 0 0 0 0 0 0 0 0 0 0 0 0 0 0 0 11 16 10 4 4 0 6 0 0 0 0 0 0 0 0 0 0 0 0 0 0
0 0 0 0 0 0 0 0 0 0 0 0 0 0 1 0 0 1 0 0 6 0 15 3 36 2 0 1 0 0 0 8 0 0 0 0 0 0 0 0 0 0 0 0 0
0 0 0 0 0 0 0 0 0 0 0 0 0 7 0 0 0 0 0 0 0 1 0 0 0 0 0 0 0 0 0 0 0 0 0 0 0 0 0 0 0 0 0 0 0
0 0 0 0 0 0 0 0 0 0 0 0 0 0 0 9 0 11 0 0 0 0 0 0 0 0 0 0 0 0 0 0 5 0 0 0 0 0 0 0 0 0 0 0 0
0 0 0 0 0 0 0 0 0 0 0 0 0 1 12 5 12 0 0 0 0 0 0 0 0 0 0 0 0 0 0 0 0 0 0 0 0 0 0 0 0 0 0 0 0
0 0 0 0 0 0 1 0 0 2 0 1 4 1 2 0 0 0 0 0 0 0 0 0 0 0 0 0 0 0 0 0 0 0 0 0 0 0 0 0 0 0 0 0 0
0 0 0 0 0 0 0 0 0 0 1 0 1 0 0 0 0 0 0 0 0 0 0 0 0 0 0 0 0 0 0 0 0 0 0 0 0 0 0 0 0 0 0 0 0
0 0 0 0 0 0 0 0 7 0 0 0 0 0 0 0 0 0 0 0 0 0 0 0 0 0 0 0 0 0 0 0 0 0 0 0 0 0 0 0 0 0 0 0 0
0 0 0 0 0 0 1 7 3 0 0 0 0 0 0 0 0 0 0 0 0 0 0 0 0 0 0 0 0 0 0 0 0 0 0 0 0 0 0 0 0 0 0 0 0
0 0 0 0 1 2 0 0 4 0 0 0 0 0 0 0 0 0 0 0 0 0 0 0 0 0 0 0 0 0 0 0 0 0 0 0 0 0 0 0 0 0 0 0 0
0 0 0 0 3 2 0 0 0 5 11 3 0 0 0 0 0 0 0 0 0 0 0 0 0 0 0 0 0 0 0 0 0 0 0 0 0 0 0 0 0 0 0 0 0

GFSSW_con_mucape_075.txt.gz
CAPE
59 70 64 46 55 51 49 29 29 48 57 43 31 39 67 62 39 0 0 0 0 32 62 41 0 0 208 252 199 159 14 2 0 0 0 0 0 0 0 2 0 10 489 1123 1279
63 49 52 53 63 55 55 56 61 44 58 40 25 35 54 62 5 0 0 0 3 0 62 30 6 0 105 168 193 88 2 0 0 0 5 9 0 0 0 2 0 690 1200 1213 1164
48 60 46 33 43 44 44 52 64 67 68 63 63 57 59 45 10 0 21 10 2 23 0 82 51 2 99 119 106 25 0 0 0 0 51 21 0 0 0 0 0 409 1234 1066 945
46 55 51 47 48 51 55 55 59 83 76 79 57 49 51 29 0 26 63 11 12 15 0 80 58 25 69 41 41 6 0 0 0 0 97 38 0 0 0 0 0 0 572 870 980
56 50 45 40 48 56 62 61 70 87 99 85 90 51 28 11 0 21 10 8 28 20 1 44 52 15 19 2 9 1 0 0 4 4 1 15 9 12 1 0 0 16 24 439 778
39 45 40 46 60 80 114 143 159 107 126 133 103 70 4 1 0 2 0 0 14 24 6 36 59 27 23 14 0 4 19 34 36 0 0 0 0 10 2 0 0 1 45 16 52
41 36 39 28 72 95 123 161 198 183 114 123 121 77 30 0 2 2 5 4 5 24 9 12 61 67 12 5 0 12 64 46 68 0 0 0 0 0 4 1 0 0 0 0 20
47 35 58 57 76 87 108 182 183 198 137 97 185 77 4 0 3 24 7 0 0 16 17 9 33 29 30 27 11 31 44 42 29 0 0 0 0 0 6 0 1 0 0 0 0
0 0 45 54 65 20 47 127 180 176 127 123 51 57 31 89 63 4 0 0 0 1 16 6 8 80 51 25 45 46 13 3 7 22 0 0 0 0 0 0 0 0 0 0 0
0 0 0 58 43 11 0 6 65 14 28 56 55 12 4 19 9 0 0 6 3 11 1 27 14 102 44 5 0 0 0 2 0 0 0 0 0 0 0 0 0 0 0 0 0
0 0 0 49 41 13 0 1 0 0 0 4 1 3 25 11 0 0 0 7 3 34 0 17 0 0 0 0 0 0 0 1 0 0 10 0 0 0 0 0 0 0 0 0 0
0 0 23 34 36 7 0 0 0 0 0 0 7 1 3 1 0 0 13 26 9 0 7 0 0 8 13 0 4 5 0 0 0 6 24 0 0 0 0 0 0 0 0 0 0
0 0 24 9 20 0 0 0 0 0 0 0 0 0 11 0 0 0 27 21 0 0 0 0 0 0 17 2 0 5 0 0 0 4 7 5 0 0 0 0 0 0 0 0 0
0 0 0 2 0 0 0 0 3 0 0 0 2 12 56 1 17 35 26 4 3 0 2 0 7 27 3 3 0 22 0 1 8 1 0 0 0 0 0 0 0 0 0 0 0
0 0 0 0 0 0 0 0 0 0 0 1 0 0 23 15 0 24 66 19 0 0 0 0 0 0 30 0 17 6 2 8 0 3 0 0 0 0 0 0 0 0 0 0 0
0 0 0 0 0 0 0 0 0 0 1 0 0 0 1 4 24 26 19 0 0 0 3 12 43 26 17 10 21 0 0 2 8 1 4 0 0 0 0 0 0 0 0 0 0
0 0 0 0 0 0 0 0 0 1 1 1 1 0 0 0 0 0 15 1 1 0 0 19 29 20 7 5 25 7 1 0 6 5 0 0 0 0 0 0 0 0 0 0 0
0 0 0 0 0 0 0 0 0 0 1 0 1 0 0 0 5 0 0 0 3 5 0 6 3 1 0 0 0 0 6 0 0 0 0 0 0 0 0 0 0 0 0 0 0
0 0 0 0 0 0 0 0 0 0 0 0 0 31 0 0 0 0 0 0 0 22 0 0 0 0 4 6 0 0 0 0 0 0 0 0 0 0 0 0 0 0 0 0 0
0 0 0 0 0 0 0 0 0 0 0 0 0 0 1 3 0 2 0 0 0 0 0 0 0 0 0 0 0 0 0 0 0 0 0 0 0 0 0 0 0 0 0 0 0
0 0 0 0 0 0 0 0 0 0 0 0 1 0 0 0 4 0 0 0 4 2 0 0 0 0 0 0 0 0 0 0 0 0 0 0 0 0 0 0 0 0 0 0 0
0 0 0 0 0 0 0 0 0 1 0 0 1 0 0 0 0 0 0 0 1 0 0 0 0 0 0 0 0 0 0 0 0 0 0 0 0 0 0 0 0 0 0 0 0
0 0 0 0 0 0 0 0 0 0 0 0 0 0 0 0 0 0 0 0 0 0 0 0 0 0 0 0 0 0 0 0 0 0 0 0 0 0 0 0 0 0 0 0 0
0 0 0 0 0 0 0 0 2 2 0 0 0 0 0 0 0 0 0 0 0 0 0 0 0 0 0 0 0 0 0 0 0 0 0 0 0 0 0 0 0 0 0 0 0
0 0 0 0 0 6 0 0 0 0 0 0 0 0 0 0 0 0 0 0 0 0 0 0 0 0 0 0 0 0 0 0 0 0 0 0 0 0 0 0 0 0 0 0 0
0 0 0 0 0 2 2 0 0 0 0 0 0 0 0 0 0 0 0 0 0 0 0 0 0 0 0 0 0 0 0 0 0 0 0 0 0 0 0 0 0 0 0 0 0
0 0 0 0 0 0 1 0 2 5 10 14 0 0 0 0 0 0 0 0 0 0 0 0 0 0 0 0 0 0 0 0 0 0 0 0 0 0 0 0 0 0 0 0 0

GFSSW_con_mucape_078.txt.gz
CAPE
23 56 55 52 40 54 52 54 51 50 31 44 35 37 29 41 53 8 0 0 0 0 17 9 11 0 68 139 205 215 89 13 0 0 0 0 0 19 6 2 0 29 468 893 771
42 49 56 43 41 38 49 50 54 62 65 51 48 40 37 47 30 16 0 26 5 23 29 0 14 0 45 84 167 166 85 5 0 0 0 0 0 0 0 0 1 829 959 1105 821
47 51 50 50 49 47 53 58 67 65 80 89 74 66 50 32 6 0 0 52 55 47 24 1 51 21 54 48 57 85 1 0 0 11 19 0 0 3 0 0 1 431 1213 1184 991
35 59 44 36 39 49 67 98 110 119 71 117 91 67 29 0 0 14 63 36 66 2 4 7 34 52 43 51 40 21 0 0 0 4 16 0 0 0 0 2 2 143 1055 1125 1019
34 43 40 33 27 55 86 111 189 214 153 171 131 57 7 2 0 13 21 20 10 25 0 0 28 54 33 8 35 30 10 0 0 0 0 0 0 0 0 0 2 7 1031 714 823
0 0 0 53 61 70 80 97 151 230 173 92 113 88 0 0 0 0 0 1 20 47 39 2 38 29 32 1 15 29 30 4 0 0 0 0 0 0 0 10 1 1 623 769 628
0 0 27 50 54 59 33 105 155 190 156 162 92 57 1 0 0 0 0 3 19 24 34 39 21 69 16 0 0 46 23 48 13 1 0 0 0 0 0 0 0 58 65 107 500
0 0 0 49 48 26 22 41 101 130 131 116 133 46 0 0 0 6 1 0 0 19 41 4 12 31 32 22 2 3 23 19 10 0 0 3 0 0 6 26 9 0 21 50 52
0 0 53 40 43 21 27 17 69 89 106 75 10 12 0 62 21 5 4 0 0 0 24 5 30 55 35 30 11 39 0 0 0 0 0 0 0 0 12 19 9 0 0 0 0
0 0 50 40 38 21 2 6 7 13 17 24 8 2 0 12 4 0 0 18 50 0 0 5 50 63 27 10 0 0 0 0 0 0 0 0 0 0 0 8 10 17 1 0 0
0 0 30 38 23 17 0 0 0 0 0 2 3 1 3 0 0 1 3 3 4 0 0 12 20 0 0 0 7 4 9 1 0 0 0 0 0 0 0 0 0 0 0 0 0
0 0 0 18 19 0 0 0 0 0 0 0 0 0 0 0 0 0 14 11 5 1 0 0 0 0 0 0 8 0 0 0 0 0 2 4 0 0 0 0 0 0 0 0 1
0 0 0 0 5 0 0 0 0 0 0 0 0 0 3 0 0 3 17 0 0 0 0 0 0 2 0 0 13 1 0 0 0 0 3 0 0 0 0 0 0 0 0 0 0
0 0 0 0 0 0 0 0 0 0 0 0 0 0 13 0 1 14 12 2 0 0 0 0 0 0 0 0 0 0 15 2 0 0 0 0 0 0 0 0 0 0 0 0 0
0 0 0 0 0 0 0 0 0 0 0 0 0 2 3 1 0 19 31 10 0 0 0 0 0 0 0 0 2 0 12 7 6 2 6 2 0 0 0 0 0 0 0 0 0
0 0 0 0 0 0 0 0 0 0 0 0 0 0 0 2 0 28 17 9 1 0 0 0 9 4 0 5 22 8 8 7 10 9 0 0 0 0 0 0 0 0 0 0 0
0 0 0 0 0 0 0 0 0 0 0 0 0 0 0 0 0 0 0 0 0 0 0 0 0 0 16 0 26 19 18 0 0 0 0 0 0 0 0 0 0 0 0 0 0
0 0 0 0 0 0 0 0 0 0 0 0 0 0 0 0 0 1 0 0 0 10 0 0 0 0 0 0 0 8 0 0 0 0 0 0 0 0 0 0 0 0 0 0 0
0 0 0 0 0 0 0 0 0 0 0 0 0 0 0 0 5 0 0 0 0 0 0 0 0 0 0 5 0 0 0 0 0 0 0 0 0 0 0 0 0 0 0 0 0
0 0 0 0 0 0 0 0 0 0 0 0 0 0 0 0 1 4 0 3 7 0 0 0 0 0 1 0 0 0 0 0 3 0 0 0 0 0 0 0 0 0 0 0 0
0 0 0 0 0 0 0 0 0 0 0 0 0 0 0 0 4 0 0 0 1 0 0 0 0 0 0 0 0 0 0 0 0 0 0 0 0 0 0 0 0 0 0 0 0
0 0 0 0 0 0 0 0 0 0 0 0 0 0 0 0 0 0 0 0 4 0 0 0 0 0 0 0 0 1 0 0 0 0 0 0 0 0 0 0 0 0 0 0 0
0 0 0 0 0 0 0 0 0 0 0 0 0 0 0 0 0 0 0 1 0 0 0 0 0 0 0 0 0 0 0 0 0 0 0 0 0 0 0 0 0 0 0 0 0
0 0 0 0 0 0 0 0 0 2 0 0 0 0 0 0 0 0 0 0 0 0 0 0 0 0 0 0 0 0 0 0 0 0 0 0 0 0 0 0 0 0 0 0 0
0 0 0 0 0 0 0 0 0 0 0 4 0 0 0 0 0 0 0 0 0 0 0 0 0 0 0 0 0 0 0 0 0 0 0 0 0 0 0 0 0 0 0 0 0
0 0 0 0 0 0 0 0 0 0 0 0 0 0 0 0 0 0 0 0 0 0 0 0 0 0 0 0 0 0 0 0 0 0 0 0 0 0 0 0 0 0 0 0 0
0 0 0 0 0 0 0 0 0 0 0 0 0 0 0 0 0 0 0 0 0 0 0 0 0 0 0 0 0 0 0 0 0 0 0 0 0 0 0 0 0 0 0 0 0

GFSSW_con_mucape_081.txt.gz
CAPE
31 59 61 51 43 41 37 48 60 60 51 56 55 60 54 47 46 38 0 0 1 2 51 6 5 3 40 63 96 130 52 2 0 0 0 0 0 0 0 0 0 0 44 494 838
18 51 47 48 56 55 39 48 62 79 93 91 80 61 64 64 22 11 17 43 106 103 19 11 38 3 20 45 75 69 5 0 0 0 0 0 0 0 0 0 0 0 449 949 1334
34 15 31 41 38 31 47 71 101 143 194 169 122 91 76 28 0 0 0 98 138 86 22 17 36 38 21 40 55 30 0 0 8 0 0 0 4 0 0 0 0 29 186 1109 1399
0 23 45 37 46 53 66 92 108 173 219 168 155 127 49 0 0 16 64 62 98 97 48 25 18 33 18 8 19 27 17 0 8 67 25 13 13 0 0 0 0 13 15 144 1153
0 16 36 30 34 55 68 51 72 159 219 140 144 94 3 0 0 6 28 17 15 14 19 38 23 31 16 0 38 42 26 28 32 39 52 27 20 0 0 1 1 10 28 53 641
0 24 33 33 16 51 18 14 23 100 125 27 51 71 0 0 0 0 0 2 23 16 17 92 23 21 27 0 25 57 37 35 30 5 11 13 2 0 0 0 4 10 16 142 595
0 38 22 46 41 47 25 28 28 40 54 0 82 21 0 0 0 5 1 1 2 7 27 59 45 45 31 10 0 62 40 62 23 0 0 0 0 0 0 0 0 0 0 114 409
0 0 17 43 41 33 30 5 21 12 51 19 72 0 0 0 0 16 3 0 0 5 14 28 54 17 53 30 3 42 41 31 16 1 0 0 0 0 0 0 0 0 1 33 167
0 0 17 42 33 31 4 0 7 35 44 70 0 0 0 1 1 1 0 6 9 0 4 10 88 49 85 43 15 14 0 7 12 1 0 0 0 0 0 0 0 0 0 19 48
0 0 20 30 20 21 0 0 0 1 6 0 0 0 0 0 0 0 0 16 27 3 27 0 88 95 91 9 0 0 0 1 0 2 6 0 0 0 0 0 0 0 0 0 5
0 0 0 0 4 0 0 0 0 0 0 0 0 0 5 3 4 7 3 8 29 0 9 0 0 0 0 6 0 0 0 0 0 0 15 0 0 0 0 0 0 0 0 0 0
0 0 0 0 0 0 0 0 0 0 0 0 0 0 0 4 0 23 11 0 13 4 0 0 0 11 3 10 0 0 0 0 0 0 0 0 0 1 9 0 0 0 0 0 3
0 0 0 0 0 0 0 0 0 0 0 0 0 0 2 0 1 7 21 0 0 0 0 0 0 0 0 0 0 0 0 0 0 0 0 0 0 0 0 0 1 0 0 0 0
0 0 0 0 0 0 0 0 0 0 0 0 0 0 0 0 0 36 11 0 0 0 0 0 0 0 0 0 2 0 0 0 0 0 0 0 0 0 0 0 0 0 0 0 0
0 0 0 0 0 0 0 0 0 0 0 0 0 0 0 0 0 1 28 7 0 0 0 0 0 0 0 0 12 0 0 0 0 0 0 0 0 0 0 0 0 0 0 0 0
0 0 0 0 0 0 0 0 0 0 0 0 0 0 0 0 0 1 8 2 0 3 0 0 0 0 0 0 7 12 8 7 8 11 0 0 0 0 0 0 0 0 0 0 0
0 0 0 0 0 0 0 0 0 0 0 0 0 0 0 0 0 6 0 0 0 1 0 0 0 0 0 0 0 1 0 0 0 0 0 0 0 0 0 0 0 0 0 0 0
0 0 0 0 0 0 0 0 0 0 0 0 0 1 0 0 0 0 0 0 0 0 0 0 0 0 0 0 0 0 0 0 0 0 0 0 0 0 0 0 0 0 0 0 0
0 0 0 0 0 0 0 0 0 0 0 0 0 0 0 1 1 0 0 0 0 0 0 0 0 0 0 0 3 0 0 0 0 0 0 0 0 0 0 0 0 0 0 0 0
0 0 0 0 0 0 0 0 0 0 0 0 0 0 0 0 0 0 0 0 0 0 0 0 0 0 0 0 3 0 0 0 0 0 0 0 0 0 0 0 0 0 0 0 0
0 0 0 0 0 0 0 0 0 0 0 0 0 0 0 0 0 0 0 0 0 0 0 0 0 0 0 0 0 0 0 0 0 0 0 0 0 0 0 0 0 0 0 0 0
0 0 0 0 0 0 0 0 0 0 0 0 0 0 0 0 0 0 0 0 0 0 0 0 0 0 0 0 0 0 0 0 0 0 0 0 0 0 0 0 0 0 0 0 0
0 0 0 0 0 0 0 0 0 0 0 0 0 0 0 0 0 0 0 2 5 8 0 0 0 0 0 0 0 0 0 0 0 0 0 0 0 0 0 0 0 0 0 0 0
0 0 0 0 0 0 0 0 0 0 0 0 0 0 0 0 0 0 0 0 0 0 0 0 0 0 0 0 0 0 0 0 0 0 0 0 0 0 0 0 0 0 0 0 0
0 0 0 0 0 0 0 0 0 0 0 0 0 0 0 0 0 0 0 0 0 0 0 0 0 0 0 0 0 0 0 0 0 0 0 0 0 0 0 0 0 0 0 0 0
0 0 0 0 0 0 0 5 8 9 18 1 14 0 0 0 0 0 0 0 0 0 0 0 0 0 0 0 0 0 0 0 0 0 0 0 0 0 0 0 0 0 0 0 0
0 0 0 0 0 0 0 0 1 7 1 11 25 3 0 0 0 0 0 0 0 0 0 0 0 0 0 0 0 0 0 0 0 0 0 0 0 0 0 0 0 0 0 0 0

GFSSW_con_mucape_084.txt.gz
CAPE
22 3 25 17 36 36 34 44 59 79 97 108 88 71 77 80 53 40 8 5 14 38 47 34 22 14 12 11 47 59 40 6 0 0 0 0 2 0 0 12 0 0 0 53 314
0 0 37 45 32 34 36 49 68 104 150 200 181 114 94 77 17 6 15 107 95 105 46 14 62 47 9 7 33 66 8 0 0 0 0 0 0 0 0 7 10 0 11 948 1235
35 35 40 30 35 39 58 59 58 66 139 178 155 179 120 16 0 0 96 49 160 124 57 65 49 44 18 59 27 40 7 3 0 0 0 0 2 14 0 0 3 0 22 390 781
28 27 29 30 21 23 46 40 18 21 64 145 103 85 90 0 0 0 89 72 83 103 53 57 68 36 28 4 13 46 26 4 3 0 8 0 0 11 0 0 0 0 6 5 260
0 36 11 27 30 18 33 19 27 27 43 45 37 17 2 0 0 0 9 7 12 23 18 43 56 47 24 0 11 53 45 22 8 4 50 12 2 3 0 0 0 0 5 0 7
0 26 0 27 43 37 24 19 24 22 19 0 0 28 0 0 0 0 0 0 7 10 14 0 32 27 41 14 6 8 43 31 18 12 30 32 29 0 0 0 2 6 2 0 0
0 14 0 32 49 34 15 9 19 1 11 0 14 6 0 0 7 15 5 9 2 6 25 9 41 56 62 13 19 49 20 48 19 21 17 30 16 0 0 0 0 11 12 1 14
0 0 0 29 35 26 2 4 12 0 4 21 39 0 0 5 2 9 7 7 1 1 9 3 43 33 8 9 19 54 30 0 17 24 14 2 0 0 0 0 0 0 11 15 26
0 0 0 0 17 20 0 0 22 1 11 18 0 0 0 2 7 5 7 14 4 0 0 0 31 42 79 40 0 44 0 0 13 34 17 0 0 0 0 0 0 1 7 6 11
0 0 0 31 0 2 0 0 0 0 0 0 0 0 0 0 0 2 7 13 7 0 0 4 39 0 13 34 0 0 0 0 10 11 12 4 0 0 0 0 0 2 0 0 0
0 0 0 0 0 0 0 0 0 0 0 0 0 0 3 3 8 5 7 17 24 0 0 4 0 0 3 0 0 0 0 0 3 4 23 5 0 0 0 0 0 0 0 0 0
0 0 0 0 0 0 0 0 0 0 0 0 0 0 0 0 0 0 4 9 5 2 0 0 0 0 0 1 0 0 0 0 0 0 6 5 0 0 0 0 0 0 0 0 0
0 0 0 0 0 0 0 0 0 0 0 0 0 0 0 0 0 0 0 4 2 0 4 0 0 0 0 3 0 0 0 0 0 2 4 0 0 0 0 0 0 0 0 0 0
0 0 0 0 0 0 0 0 0 0 0 0 0 0 0 0 0 0 0 3 0 1 0 0 0 0 0 0 0 0 0 0 0 0 0 0 0 0 0 0 0 0 0 0 0
0 0 0 0 0 0 0 0 0 0 0 0 0 0 2 0 0 0 0 7 0 0 0 0 0 0 0 0 0 0 0 0 0 0 0 0 0 0 0 0 0 0 0 0 0
0 0 0 0 0 0 0 0 0 0 0 0 0 0 0 0 0 0 0 0 6 0 0 0 0 0 2 0 13 3 10 0 14 0 0 0 0 0 0 0 0 0 0 0 0
0 0 0 0 0 0 0 0 0 0 0 0 0 0 0 0 0 0 0 0 0 0 0 0 0 0 0 10 21 31 0 0 0 0 0 0 0 0 0 0 0 0 0 0 0
0 0 0 0 0 0 0 0 0 0 0 0 0 0 0 0 0 0 0 0 0 0 0 0 0 0 0 0 11 1 0 0 0 0 0 0 0 0 0 0 0 0 0 0 0
0 0 0 0 0 0 0 0 0 0 0 0 0 0 0 0 0 0 0 0 0 0 0 0 0 0 0 0 0 0 0 0 0 0 1 0 0 0 0 0 0 0 0 0 0
0 0 0 0 0 0 0 0 0 0 0 0 0 0 0 0 0 0 0 0 0 0 0 0 0 0 0 0 2 0 0 0 0 0 0 0 0 0 0 0 0 0 0 0 0
0 0 0 0 0 0 0 0 0 0 0 0 0 0 0 0 0 0 0 0 0 0 0 0 0 0 0 0 0 0 0 0 0 0 0 0 0 0 0 0 0 0 0 0 0
0 0 0 0 0 0 0 0 0 0 7 10 0 0 0 0 0 0 0 4 0 1 0 0 0 0 0 0 1 0 0 0 0 0 0 0 0 0 0 0 0 0 0 0 0
0 0 0 0 0 0 0 0 0 3 18 5 10 2 1 1 0 0 1 0 0 0 0 0 0 0 0 0 0 0 0 0 0 0 0 0 0 0 0 0 0 0 0 0 0
0 0 0 0 0 0 0 0 0 0 4 29 15 9 0 1 1 0 2 1 3 0 0 0 0 0 0 0 0 0 0 0 0 0 0 0 0 0 0 0 0 0 0 0 0
0 0 0 0 0 0 0 0 0 1 23 11 21 20 0 0 0 0 0 0 1 0 0 1 0 0 0 0 0 0 0 0 0 0 0 0 0 0 0 0 0 0 0 0 0
0 0 0 0 0 0 0 0 0 0 0 0 16 7 0 0 0 0 0 0 0 0 0 0 0 0 0 0 0 0 0 0 0 0 0 0 0 0 0 0 0 0 0 0 0
0 0 0 0 0 0 0 0 0 0 0 17 0 4 0 0 0 0 0 0 0 0 0 0 0 0 0 0 0 0 0 0 0 0 0 0 0 0 0 0 0 0 0 0 0

GFSSW_con_mucape_087.txt.gz
CAPE
2 19 17 53 35 36 48 55 54 49 57 89 189 162 125 78 52 8 0 13 21 62 76 47 38 39 38 12 99 100 69 17 0 0 0 0 0 0 0 0 0 0 19 101 414
1 41 34 38 35 29 15 48 46 37 37 41 124 115 100 31 0 0 1 7 128 124 61 65 96 74 60 11 53 129 47 0 0 0 0 0 0 0 1 1 0 0 0 228 941
0 31 38 24 27 28 21 57 22 22 22 20 74 30 24 0 0 0 109 126 74 130 43 8 47 53 55 60 19 14 0 0 0 0 0 0 0 0 2 3 1 0 0 24 776
0 27 40 0 43 37 46 26 22 22 40 23 27 25 30 0 0 0 89 69 68 62 50 0 32 0 0 62 6 16 0 0 5 9 0 0 0 0 0 0 0 0 0 3 447
0 8 17 0 46 41 35 20 17 31 13 15 28 44 1 0 0 0 0 18 2 3 39 0 0 0 0 0 41 38 6 6 11 30 12 0 0 0 0 0 0 0 0 0 21
0 32 28 22 36 36 21 7 15 6 14 7 3 15 0 0 0 0 0 0 6 0 13 43 0 0 0 0 18 13 10 17 39 22 53 0 0 0 0 0 0 0 0 0 8
0 0 0 40 38 33 7 11 4 3 12 10 20 0 0 0 0 0 4 1 0 17 0 3 0 0 0 0 1 67 17 44 35 30 43 25 0 0 0 0 0 0 0 0 3
0 0 17 2 25 25 0 11 6 0 0 4 0 0 0 0 0 4 7 1 0 0 0 0 0 0 0 20 1 95 9 29 8 30 23 8 0 0 0 0 0 1 0 0 0
0 0 0 0 0 0 0 0 8 5 2 0 0 0 0 3 0 0 0 0 0 0 0 0 0 0 0 3 0 38 0 0 2 29 21 4 0 0 0 0 0 0 0 9 0
0 0 0 0 0 0 0 0 0 0 0 0 0 0 2 0 0 0 0 0 2 1 0 0 3 0 0 0 0 0 0 0 0 2 25 2 0 0 0 0 0 0 0 1 0
0 0 0 0 0 0 0 0 0 0 0 0 0 0 3 5 1 2 0 4 0 0 0 0 1 0 0 0 0 0 0 0 0 12 7 0 4 0 0 0 0 0 0 0 2
0 0 0 0 0 0 0 0 0 0 0 0 0 0 0 0 0 0 0 0 0 1 0 0 0 0 0 0 0 0 0 0 2 26 23 3 0 0 0 0 0 0 0 0 0
0 0 0 0 0 0 0 0 0 0 0 0 0 0 0 0 0 0 0 0 0 0 0 0 0 0 0 0 0 0 0 0 0 7 23 15 1 0 0 0 0 0 0 0 0
0 0 0 0 0 0 0 0 0 0 0 0 0 0 0 0 0 0 3 0 0 1 0 0 0 0 0 0 4 0 0 0 0 0 0 2 0 0 0 0 0 0 0 0 0
0 0 0 0 0 0 0 0 0 0 0 0 0 0 0 0 0 0 0 1 0 0 0 0 0 0 0 0 0 0 0 0 15 0 0 0 0 0 0 0 0 0 0 0 0
0 0 0 0 0 0 0 0 0 0 0 0 0 0 0 0 0 0 0 0 0 0 0 0 0 0 0 1 0 1 0 0 28 0 0 0 0 0 0 0 0 0 0 0 0
0 0 0 0 0 0 0 0 0 0 0 0 0 0 0 0 0 0 0 0 2 0 0 0 0 0 0 0 0 2 0 0 0 0 0 0 0 0 0 0 0 0 0 0 0
0 0 0 0 0 0 0 0 0 0 0 0 0 0 0 0 0 0 0 0 0 0 0 0 0 0 0 0 0 0 0 0 0 0 0 0 0 0 0 0 0 0 0 0 0
0 0 0 0 0 0 0 0 0 0 0 2 0 0 0 2 0 0 0 0 0 0 0 0 0 0 0 0 0 0 0 0 0 0 0 0 0 0 0 0 0 0 0 0 0
0 0 0 0 0 0 0 0 0 6 7 1 1 0 0 0 0 0 0 0 0 0 2 0 0 0 0 0 0 0 0 0 0 0 0 0 0 0 0 0 0 0 0 0 0
0 0 0 0 0 0 0 0 0 2 20 31 10 2 0 0 0 3 0 0 0 2 0 0 0 0 0 0 0 0 0 0 0 0 0 0 0 0 0 0 0 0 0 0 0
0 0 0 0 0 0 0 0 0 3 25 53 11 3 3 5 0 0 0 0 0 0 2 0 0 0 0 0 0 0 0 0 0 0 0 0 0 0 0 0 0 0 0 0 0
0 0 0 0 0 0 0 0 1 17 55 24 19 4 7 1 0 0 0 0 0 0 0 0 0 0 0 0 0 0 0 0 0 0 0 0 0 0 0 0 0 0 0 0 0
0 0 0 0 0 0 0 0 0 14 14 21 40 8 3 0 0 0 0 0 0 0 5 0 0 0 0 0 0 0 0 0 0 0 0 0 0 0 0 0 0 0 0 0 0
0 0 0 0 0 0 0 0 0 0 0 0 2 27 0 0 0 0 0 0 0 0 2 1 0 0 0 0 0 0 0 0 0 0 0 0 0 0 0 0 0 0 0 0 0
0 0 0 0 0 0 0 0 0 0 0 0 0 0 7 0 0 0 0 0 0 0 0 0 0 0 0 0 0 0 0 0 0 0 0 0 0 0 0 0 0 0 0 0 0
0 0 0 0 0 0 0 0 0 0 0 0 0 0 3 0 3 0 0 0 0 0 0 0 0 0 0 0 0 0 0 0 0 0 0 0 0 0 0 0 0 0 0 0 0

GFSSW_con_mucape_090.txt.gz
CAPE
15 17 36 35 37 24 23 23 36 28 17 17 27 71 95 72 71 13 0 1 44 83 45 36 13 54 94 82 193 144 158 97 44 37 8 19 0 0 0 0 0 28 25 508 733
22 23 36 35 29 34 28 31 34 29 15 18 20 23 21 29 0 0 0 35 19 123 40 55 58 76 101 26 129 86 106 8 35 53 66 46 0 2 0 0 0 0 0 719 1140
6 2 24 27 19 49 30 35 24 19 23 17 28 9 0 21 0 0 102 95 248 105 29 55 48 61 101 85 41 57 0 7 100 48 33 49 0 0 0 0 0 0 1 231 811
2 25 26 28 20 38 25 17 15 17 20 9 12 8 10 0 0 0 66 93 25 97 31 6 35 74 50 33 22 1 0 20 75 26 37 24 0 0 0 0 0 0 0 19 550
23 13 24 28 21 27 23 4 13 11 9 2 2 20 0 0 0 0 0 1 0 31 48 0 15 0 0 7 50 1 2 50 41 21 52 46 0 0 0 0 0 0 0 0 12
23 0 5 27 1 24 19 4 12 2 2 0 0 0 0 0 0 0 0 0 0 0 3 20 0 0 0 0 0 0 4 44 39 36 65 11 1 3 0 0 0 0 7 0 0
27 0 0 0 0 24 0 14 5 1 0 1 0 0 0 0 0 30 2 0 0 1 12 21 0 0 0 0 0 42 0 66 77 18 40 65 17 0 15 0 0 0 4 1 0
18 0 0 0 0 0 0 0 0 0 0 3 0 0 0 0 0 14 10 0 0 0 0 35 24 0 32 0 0 0 22 0 60 47 45 10 0 5 10 0 3 4 0 5 0
15 0 0 0 0 0 0 0 3 6 4 0 0 0 0 0 0 0 29 16 6 1 2 26 11 0 0 0 0 0 0 0 34 48 53 31 0 12 0 0 0 0 0 2 8
0 0 0 0 0 0 0 0 0 0 0 0 0 0 0 0 0 0 2 25 63 32 4 9 7 0 15 3 0 0 0 0 0 73 65 17 2 1 0 0 0 0 0 1 10
0 0 0 0 0 0 0 0 0 0 0 0 0 0 0 0 4 0 16 59 56 17 0 0 1 0 0 0 0 0 0 0 0 40 56 5 2 1 0 0 0 0 0 0 0
0 0 0 0 0 0 0 0 0 0 0 0 0 0 0 0 0 0 10 36 23 41 0 0 0 0 0 0 0 0 0 0 0 74 65 38 7 6 0 0 0 0 0 0 12
0 0 0 0 0 0 0 0 0 0 0 0 0 0 0 0 1 0 16 22 28 17 0 0 0 0 0 0 0 0 0 0 0 47 36 41 11 0 0 0 0 0 0 0 44
0 0 0 0 0 0 0 0 0 0 0 0 0 0 0 0 0 4 17 14 19 0 0 0 2 0 0 0 0 0 0 0 29 4 0 15 0 0 0 0 0 0 0 8 61
0 0 0 0 0 0 0 0 0 0 0 0 0 0 0 0 0 4 1 16 0 0 0 14 33 0 0 0 0 0 34 31 59 63 25 10 0 0 0 0 0 0 0 0 31
0 0 0 0 0 0 0 0 0 0 0 0 0 0 0 0 0 0 12 2 0 0 0 0 12 0 0 0 0 1 0 50 61 65 0 0 0 0 0 0 0 0 0 1 0
0 0 0 0 0 0 0 0 0 0 0 0 0 0 0 0 0 0 0 0 0 0 0 0 0 0 0 0 2 2 0 0 0 0 0 0 0 0 0 0 0 0 0 3 7
0 0 0 0 0 0 0 0 0 0 0 3 1 0 0 0 0 0 0 0 0 0 0 0 2 0 0 0 0 0 0 0 0 0 0 0 0 0 0 0 0 0 0 0 1
0 0 0 0 0 0 0 0 0 0 27 48 19 0 0 0 0 0 0 0 0 0 0 4 0 0 0 0 0 0 0 0 0 0 0 0 0 0 0 0 0 0 0 0 0
0 0 0 0 0 0 0 0 0 0 22 22 0 0 0 0 0 0 0 0 0 0 0 29 0 0 0 0 0 0 0 0 0 0 0 0 0 0 0 0 0 0 0 0 0
0 0 0 0 0 0 0 0 0 1 5 1 33 6 14 12 0 0 0 0 0 0 0 3 4 0 0 0 1 0 0 0 0 0 0 0 0 0 0 0 0 0 0 0 0
0 0 0 0 0 0 0 0 0 1 27 34 7 0 0 1 0 3 2 1 0 0 2 5 0 0 0 0 0 0 0 0 0 0 0 0 0 0 0 0 0 0 0 0 0
0 0 0 0 0 0 0 0 0 0 0 0 28 16 0 0 0 0 2 0 0 0 0 0 43 0 1 0 0 0 0 0 0 0 0 0 0 0 0 0 0 0 0 0 0
0 0 0 0 0 0 0 0 0 0 0 0 0 0 0 0 0 0 0 0 3 2 0 29 0 0 0 0 0 0 0 0 0 0 0 0 0 0 0 0 0 0 0 0 0
0 0 0 0 0 0 0 0 0 0 0 0 0 0 0 0 0 0 0 0 0 0 1 0 0 0 0 0 0 0 0 0 0 0 0 0 0 0 0 0 0 0 0 0 0
0 0 0 0 0 0 0 0 0 0 0 0 0 0 0 0 0 0 0 0 0 0 0 0 0 0 0 0 0 0 0 0 0 0 0 0 0 0 0 0 0 0 0 0 0
0 0 0 0 0 0 0 0 0 0 0 0 0 0 0 0 0 0 0 0 0 0 0 0 0 0 0 0 0 0 0 0 0 0 0 0 0 0 0 0 0 0 0 0 0

GFSSW_con_mucape_093.txt.gz
CAPE
10 16 15 27 20 14 23 17 26 30 24 16 19 18 23 25 7 15 40 102 64 101 131 28 0 18 106 124 99 141 116 114 38 57 47 14 5 0 0 0 0 10 111 480 765
3 18 17 24 21 16 36 24 24 14 14 25 21 25 7 14 21 17 75 148 229 152 66 43 0 67 138 92 168 160 120 12 2 39 43 42 6 4 0 0 0 0 523 644 1177
14 19 26 18 20 16 40 23 15 12 18 19 13 7 0 11 10 13 121 218 144 337 56 40 63 96 119 103 81 77 1 1 50 71 33 34 31 54 16 0 0 0 358 1058 1645
24 24 26 26 26 21 32 23 7 17 11 5 0 7 0 10 0 0 0 32 87 72 72 43 42 66 133 103 35 60 0 4 65 24 15 16 12 39 33 28 16 0 48 523 984
28 26 22 25 29 19 29 2 12 8 2 0 0 6 6 9 8 0 0 2 0 20 117 41 0 0 0 74 50 5 2 0 6 35 31 36 31 36 38 32 1 0 0 121 260
26 24 26 22 14 24 23 0 11 3 0 0 0 3 5 0 0 0 0 0 2 6 69 56 0 40 24 13 14 13 12 23 22 20 35 84 17 29 27 48 5 0 0 0 42
27 26 7 26 21 31 0 0 3 0 0 0 0 1 0 0 0 3 0 8 1 14 16 56 2 0 42 1 2 15 21 7 57 45 26 29 54 34 32 61 17 0 0 2 0
19 21 6 17 23 19 0 0 1 0 0 0 0 0 0 0 0 0 15 21 5 1 0 22 26 0 37 0 0 0 21 0 11 58 30 66 0 0 59 55 14 1 1 7 1
0 0 0 0 24 0 0 0 0 2 0 0 0 0 0 4 1 2 29 51 35 7 32 5 58 0 0 0 0 0 106 0 0 47 29 80 5 21 7 55 18 0 0 13 6
0 0 0 17 15 0 0 0 0 0 0 0 0 0 0 8 1 0 37 56 61 32 30 36 50 0 0 1 1 41 0 0 0 48 56 28 26 22 41 29 5 0 0 11 9
0 0 0 14 0 0 0 0 0 0 0 0 0 0 0 0 0 32 45 101 87 69 28 0 0 0 0 0 0 0 0 0 0 56 0 0 19 32 9 8 0 0 0 0 9
0 0 0 0 0 0 0 0 0 0 0 0 0 0 0 0 4 12 45 56 65 57 55 0 0 7 1 17 0 0 8 0 0 85 39 58 37 55 12 1 0 0 0 1 0
0 0 0 0 0 0 0 0 0 0 0 0 0 0 0 0 13 20 28 41 30 41 26 0 23 11 10 0 9 1 15 18 0 61 80 50 0 28 8 6 1 0 0 0 0
0 0 0 0 0 0 0 0 0 0 0 0 0 0 0 0 0 8 13 29 37 22 0 6 1 28 39 0 0 1 21 6 1 0 0 7 0 0 1 0 0 0 0 0 0
0 7 0 0 1 3 0 0 0 0 0 0 0 0 0 0 0 12 11 29 9 1 0 78 0 4 37 14 0 0 1 2 3 0 0 0 0 0 0 0 0 0 0 0 0
0 0 0 2 0 0 0 0 0 0 0 0 0 3 0 0 0 12 14 3 21 0 0 2 15 32 8 0 0 0 16 19 29 14 0 0 0 0 0 0 0 0 0 0 0
1 0 0 0 0 0 0 0 0 0 1 0 16 1 0 0 0 0 0 0 0 9 36 28 32 16 19 0 0 0 13 87 0 0 0 0 0 0 0 0 0 0 0 0 0
0 5 0 0 0 0 0 0 0 0 0 38 25 0 0 0 0 0 0 0 0 0 32 71 1 30 0 0 0 0 0 1 2 2 0 0 0 0 0 0 0 0 0 0 0
0 6 3 0 0 1 0 0 0 0 0 0 4 3 10 0 0 0 0 0 0 0 24 38 27 5 0 0 0 1 0 0 0 0 1 0 0 0 0 0 0 0 0 0 0
0 0 0 0 0 12 0 0 0 0 37 23 0 0 0 1 0 0 0 0 0 0 0 39 0 0 0 0 0 0 0 0 27 0 0 0 0 0 0 0 0 0 0 0 0
0 0 0 0 7 0 0 0 0 0 20 0 0 0 0 0 0 0 0 1 0 0 0 1 1 0 0 0 0 0 0 31 13 0 0 0 0 0 0 0 0 0 0 0 0
0 0 0 0 0 0 0 0 0 0 1 1 0 0 0 0 0 0 0 4 0 0 0 19 8 0 0 0 0 0 0 34 27 0 0 0 0 0 0 0 0 0 0 0 0
0 0 0 0 0 0 0 0 0 0 0 0 0 0 0 0 0 0 0 1 11 0 8 0 79 0 0 0 0 0 0 25 0 18 0 1 0 0 0 0 0 0 0 0 0
0 0 0 0 0 0 0 0 0 0 0 0 0 0 0 0 0 0 0 13 8 0 9 19 10 0 0 0 0 0 0 0 0 91 0 0 0 0 0 0 0 0 0 0 0
0 0 0 0 0 0 0 0 0 0 0 0 0 0 0 0 0 0 0 0 16 0 0 0 61 0 0 0 0 0 2 0 0 4 51 1 0 0 0 0 0 0 0 0 0
0 0 0 0 0 0 0 0 0 0 0 0 0 0 0 0 0 0 0 0 0 0 0 0 0 0 0 0 0 0 0 0 0 0 0 0 0 0 0 0 0 0 0 0 0
0 0 0 0 0 0 0 0 0 0 0 0 0 0 0 0 0 0 0 0 0 0 0 0 0 0 0 0 0 0 0 0 0 0 0 0 0 0 0 0 0 0 0 0 0

GFSSW_con_mucape_096.txt.gz
CAPE
7 16 16 18 28 22 20 50 32 27 6 12 18 26 25 26 32 5 6 47 109 197 192 56 13 4 46 67 69 175 116 0 0 27 2 35 12 0 2 0 3 275 458 1466 1605
7 21 27 27 20 26 23 40 30 12 6 12 18 11 14 3 13 21 59 109 136 180 48 29 34 3 43 67 88 141 69 9 0 5 11 62 32 0 1 0 0 481 498 1529 1444
14 33 29 26 16 22 29 39 22 4 15 13 7 0 0 0 11 29 36 100 186 84 157 17 40 32 44 61 110 53 0 0 19 83 54 99 32 17 0 0 0 369 703 1358 1657
21 28 29 22 23 34 24 30 5 5 10 7 0 0 0 4 0 0 0 0 33 7 63 27 27 43 57 53 29 42 0 0 48 58 21 16 8 3 6 0 1 403 837 1615 1631
19 32 25 23 23 25 29 21 1 12 1 0 0 2 8 11 3 0 0 0 0 0 97 64 56 0 20 25 46 4 0 0 35 29 1 12 3 0 24 60 32 285 583 886 1507
16 24 20 27 22 24 34 0 0 3 0 0 0 1 0 0 0 0 0 0 0 1 17 83 34 4 0 13 32 21 24 31 28 5 16 8 0 42 19 17 42 27 81 349 534
18 21 19 22 24 26 24 0 0 0 0 0 0 0 0 0 0 0 0 0 0 0 10 51 26 11 0 0 4 28 2 17 22 17 4 24 0 22 3 12 31 9 0 7 157
0 0 18 23 22 23 18 0 0 0 0 0 0 0 0 0 0 0 1 11 2 3 0 21 22 0 11 0 0 26 6 0 4 5 41 0 0 1 0 10 6 15 4 0 0
0 0 17 20 20 17 0 0 0 0 0 0 0 2 0 0 0 0 2 3 5 23 63 7 21 0 0 0 0 0 0 0 0 16 5 7 0 2 0 0 18 8 3 0 0
13 0 15 17 20 7 0 0 0 0 0 0 0 0 0 0 2 0 0 0 13 44 59 27 10 3 0 0 0 0 0 0 0 0 31 0 0 0 0 0 1 1 3 1 0
7 14 16 17 17 0 0 0 0 0 0 0 0 0 0 0 0 0 1 4 21 48 51 1 0 19 0 0 0 0 0 0 0 0 0 0 0 0 45 1 0 13 0 0 0
0 9 12 1 13 0 0 0 0 0 0 0 0 0 0 0 0 5 1 1 13 42 6 0 0 0 0 0 5 0 0 0 16 29 0 0 0 1 46 41 1 2 1 0 2
0 4 12 0 0 0 0 0 0 0 0 0 0 0 0 0 0 13 10 12 14 9 32 16 7 14 0 5 13 12 0 2 0 33 8 5 0 12 19 2 0 0 0 0 0
0 4 0 0 0 0 0 0 0 0 0 0 0 0 0 0 0 1 4 1 21 11 1 0 1 21 0 1 1 1 0 0 3 0 2 3 0 0 2 2 0 0 0 0 0
0 0 0 0 3 0 0 0 0 0 0 0 0 0 0 0 0 0 0 8 2 10 0 22 37 13 0 3 5 0 0 6 7 12 8 0 0 0 1 0 0 0 0 0 0
0 0 0 1 5 0 0 0 0 0 0 0 2 0 0 0 0 7 3 0 1 0 1 3 6 79 34 24 0 0 1 19 19 1 0 0 0 0 0 0 0 0 0 0 0
0 0 0 2 0 0 2 0 0 0 0 0 2 0 0 0 0 0 0 0 0 0 17 199 115 40 4 0 0 0 0 6 4 16 0 0 0 0 0 0 0 0 0 0 0
0 0 0 0 0 0 0 0 0 0 0 0 0 0 0 0 0 0 0 0 0 0 14 37 12 11 0 10 0 0 0 3 27 1 0 0 0 0 1 0 0 0 0 0 0
0 0 0 0 0 3 0 0 0 0 0 0 0 0 0 0 0 0 0 0 0 0 22 78 22 3 0 0 0 4 0 0 0 0 0 0 0 1 0 0 0 0 0 0 0
0 0 0 0 0 0 0 0 0 0 0 0 0 0 0 0 0 0 0 0 0 0 3 1 1 0 0 0 0 0 0 2 7 0 0 0 0 0 0 0 0 0 0 0 0
0 0 0 0 0 0 0 0 0 0 0 0 0 0 0 0 0 0 6 0 0 0 0 0 2 11 0 0 0 0 2 0 1 1 0 1 0 0 0 0 0 0 0 0 0
0 0 0 0 0 0 0 0 0 0 0 0 0 0 0 0 0 0 0 1 0 0 1 0 12 0 0 0 0 0 0 2 0 0 0 1 2 0 0 0 0 0 0 0 0
0 0 0 0 0 0 0 0 0 0 0 0 0 0 0 0 0 0 0 0 5 0 0 0 15 0 0 0 0 0 0 3 2 0 0 0 0 0 0 0 0 0 0 0 0
0 0 0 0 0 0 0 0 0 0 0 0 0 0 0 0 0 0 3 12 27 27 37 8 1 0 0 0 0 0 0 0 0 0 0 0 0 0 0 0 0 0 0 0 0
0 0 0 0 0 0 0 0 0 0 0 0 0 0 0 0 0 0 0 0 2 5 0 0 0 0 0 0 0 0 0 0 0 0 0 0 0 0 0 0 0 0 0 0 0
0 0 0 0 0 0 0 0 0 0 0 0 0 0 0 0 0 0 0 0 0 0 0 0 0 0 0 0 0 0 0 0 0 0 0 0 0 0 0 0 0 0 0 0 0
0 0 0 0 0 0 0 0 0 0 0 0 0 0 0 0 0 0 0 0 0 0 0 0 0 0 0 0 0 0 0 0 0 0 0 0 0 0 0 0 0 0 0 0 0

GFSSW_con_mucape_099.txt.gz
CAPE
16 20 17 20 17 13 27 26 44 27 13 13 16 27 14 20 24 1 0 2 42 116 143 56 108 46 18 61 45 106 51 16 0 0 0 32 2 0 0 4 573 903 1081 1284 1469
14 20 24 22 19 20 23 25 31 20 9 10 15 10 5 1 0 0 9 77 80 147 60 33 20 98 19 68 50 159 37 0 5 17 6 37 13 14 43 354 857 1345 1413 1628 1610
2 16 22 26 20 21 33 22 27 8 7 12 8 1 0 0 0 4 41 63 104 96 0 87 38 79 22 32 45 32 3 0 0 63 13 38 30 17 20 170 627 946 1416 1669 1765
0 17 25 16 23 20 28 20 17 6 12 3 0 0 0 0 0 0 0 1 15 42 18 122 70 36 9 58 6 9 0 13 15 17 36 38 25 22 0 31 763 1201 1615 1609 1907
2 16 18 9 21 21 30 25 11 9 5 0 0 0 0 0 0 0 0 0 0 0 88 57 74 0 0 36 16 22 3 0 27 1 23 16 23 0 0 40 403 1158 1516 1541 1645
0 15 14 16 14 17 25 23 5 5 2 5 0 0 0 0 0 0 0 0 0 0 19 27 37 27 1 13 21 25 11 4 7 25 0 6 21 15 4 12 213 936 1292 1457 1508
0 6 10 13 16 12 25 16 2 3 0 2 0 0 0 0 0 0 0 0 0 0 0 27 25 18 0 0 24 14 22 33 88 36 2 0 27 0 7 6 60 131 600 1091 1317
1 9 12 16 16 16 15 5 6 0 0 0 0 0 0 0 0 0 0 7 9 0 10 213 11 0 0 0 20 25 19 0 17 0 2 16 8 0 0 23 12 16 264 563 1005
8 4 10 16 11 18 5 0 0 0 0 0 0 0 0 0 0 0 0 0 3 57 64 135 0 0 0 0 0 0 0 0 10 0 35 0 0 0 7 0 0 2 12 337 372
4 13 11 12 14 15 0 0 0 0 0 0 0 0 0 0 0 0 0 0 0 17 118 32 2 0 0 0 0 0 0 0 0 14 41 0 0 0 0 8 1 9 0 47 11
6 2 10 15 9 3 0 0 0 0 0 0 0 0 0 0 0 0 0 0 0 18 16 0 0 0 0 0 0 0 0 0 0 34 2 0 0 0 0 0 2 0 6 1 0
8 0 0 9 7 0 0 0 0 0 0 0 0 0 0 0 0 1 0 0 2 6 7 0 0 0 0 0 0 0 0 0 0 40 14 0 0 0 0 0 1 0 17 17 14
0 0 0 4 0 0 0 0 0 0 0 0 0 0 0 0 0 4 8 0 1 2 2 0 0 0 0 0 1 0 0 0 0 26 34 0 0 0 0 9 11 21 30 1 2
0 0 5 0 0 0 0 0 0 0 0 0 0 0 0 0 0 0 7 0 13 5 0 0 1 0 2 0 5 0 0 0 26 0 0 41 0 0 0 0 1 36 7 0 0
0 0 0 0 0 0 0 0 0 0 0 0 0 0 0 0 0 0 0 1 0 0 2 4 0 19 47 1 8 0 0 0 0 1 0 9 0 0 0 0 0 0 0 0 0
0 0 0 0 0 0 0 0 0 0 0 0 0 0 0 0 0 3 0 0 0 0 0 12 10 29 25 6 0 0 1 1 1 14 0 0 0 0 0 0 0 0 0 0 0
0 0 0 0 0 0 0 0 0 0 0 0 0 0 0 0 0 0 0 0 0 9 0 13 37 57 8 14 0 8 1 15 4 0 0 0 4 0 0 0 0 0 0 0 0
0 0 0 0 0 0 0 0 0 0 0 0 0 0 0 0 0 0 0 0 0 0 1 0 4 29 9 0 0 6 0 0 7 0 0 2 4 0 0 0 0 0 0 0 0
0 0 0 0 0 0 0 0 0 0 0 0 0 0 0 0 0 0 0 0 0 6 25 11 0 30 0 0 0 12 3 0 0 0 0 0 0 0 0 0 0 0 0 0 0
0 0 0 0 0 0 0 0 0 0 0 0 0 0 0 0 0 0 0 0 0 7 13 3 3 0 0 0 0 7 2 3 1 0 0 0 0 0 0 0 0 0 0 0 0
0 0 0 0 0 0 0 0 0 0 0 0 0 0 0 0 0 0 0 0 0 0 0 0 1 0 0 0 0 0 0 0 0 3 6 0 0 0 0 0 0 0 0 0 0
0 0 0 0 0 0 0 0 0 0 0 0 0 0 0 0 0 0 3 3 0 0 0 0 0 0 0 0 0 0 0 0 0 0 3 0 0 0 0 0 0 0 0 1 7
0 0 0 0 0 0 0 0 0 0 0 0 0 0 0 0 0 0 0 0 0 0 0 0 15 0 5 0 0 0 0 0 0 0 0 2 0 0 0 0 0 0 0 0 0
0 0 0 0 0 0 0 0 0 0 0 0 0 0 0 0 0 0 0 0 14 0 9 0 0 0 0 0 0 0 0 0 0 0 14 8 0 0 0 0 0 0 0 0 0
0 0 0 0 0 0 0 0 0 0 0 0 0 0 0 0 0 0 0 0 0 1 0 0 0 0 0 0 0 0 0 0 0 0 0 0 0 0 0 0 0 0 0 0 0
0 0 0 0 0 0 0 0 0 0 0 0 0 0 0 0 0 0 0 0 0 0 0 0 0 0 0 0 0 0 0 0 0 0 0 0 0 0 0 0 0 0 0 0 0
0 0 0 0 0 0 0 0 0 0 0 0 0 0 0 0 0 0 0 0 0 0 0 0 0 0 0 0 0 0 0 0 0 0 0 0 0 0 0 0 0 0 0 0 0

GFSSW_con_mucape_102.txt.gz
CAPE
8 14 19 26 19 17 22 16 18 37 23 8 18 28 19 11 6 0 0 0 8 66 36 5 4 23 26 63 130 70 102 20 28 2 0 7 0 0 1 15 435 687 918 1252 1114
7 14 15 23 22 17 14 24 17 31 12 7 21 16 11 1 0 0 0 38 89 97 36 11 0 20 47 121 188 44 38 6 3 0 25 12 0 0 350 772 1141 1419 1347 1400 1219
0 13 15 26 23 22 12 23 21 12 17 18 8 5 1 0 0 0 6 34 49 74 12 1 10 20 45 77 105 31 0 0 34 0 13 15 0 25 389 574 975 1290 1446 1490 1391
6 4 18 19 18 21 18 24 21 8 5 4 2 0 0 0 0 0 0 0 5 9 8 7 48 52 18 9 16 15 39 0 6 0 34 4 5 14 23 29 691 1478 1493 1463 1351
14 1 16 19 21 22 17 22 17 9 7 9 0 0 0 0 0 0 0 0 0 0 0 51 43 56 1 42 28 6 0 12 16 2 22 28 0 0 0 27 433 953 1398 1295 1270
11 13 19 14 20 16 17 21 11 2 0 5 3 0 0 0 0 0 0 0 0 0 0 51 53 30 0 4 0 25 38 28 10 0 6 39 8 1 0 0 213 534 997 1209 1197
6 9 16 20 10 20 15 12 10 0 2 2 9 0 0 0 0 0 0 0 0 0 0 21 49 48 0 0 0 4 36 57 32 47 0 36 1 4 5 2 242 149 332 1005 1207
10 11 13 14 17 11 20 7 1 0 1 19 1 0 0 0 0 0 0 2 8 8 7 105 16 45 0 0 0 47 17 0 61 54 72 0 1 8 1 65 132 54 101 314 986
9 10 15 9 11 19 9 0 1 0 0 3 0 0 0 0 0 0 0 0 1 26 47 154 20 20 0 0 0 17 0 0 10 62 11 0 3 0 1 11 74 50 24 31 418
10 11 12 16 11 19 1 0 0 0 0 0 0 0 0 0 0 0 0 0 0 0 38 16 6 19 0 0 0 0 0 0 10 14 54 0 0 0 12 8 83 132 11 18 51
10 9 0 13 13 9 0 0 0 0 0 0 0 0 0 0 0 2 0 0 0 5 2 7 0 0 0 0 0 0 0 0 22 8 26 0 0 0 12 55 64 28 63 47 18
7 7 0 11 13 0 0 0 0 0 0 0 0 0 0 0 0 0 4 3 5 5 5 0 0 0 0 0 0 0 0 10 23 5 19 0 0 0 12 43 7 43 30 31 51
8 0 8 9 0 0 0 0 0 0 0 0 0 0 0 0 0 1 12 10 0 1 0 0 0 0 0 0 0 0 0 0 5 23 22 0 0 0 1 0 0 0 0 15 16
3 3 8 1 0 0 0 0 0 0 0 0 0 0 0 0 0 0 8 5 1 0 0 0 2 0 0 0 0 0 0 0 1 11 0 7 0 0 0 0 0 0 0 0 0
0 3 0 0 0 0 0 0 0 0 0 0 0 0 0 0 0 2 0 0 0 0 3 0 0 0 0 0 0 0 0 0 2 0 0 0 0 0 0 0 0 0 0 0 0
0 0 1 0 0 0 0 0 0 0 0 0 0 0 0 0 0 1 0 0 0 0 0 7 5 13 39 19 0 11 14 31 5 0 0 0 0 0 0 0 0 0 0 0 3
0 0 0 0 0 0 0 0 0 0 0 0 0 0 0 0 0 0 0 0 0 11 2 15 43 59 11 27 0 51 4 12 0 0 0 0 0 0 0 0 0 0 0 0 0
0 0 0 0 0 0 0 0 0 0 0 0 0 0 0 0 0 0 0 0 0 0 16 3 51 44 15 2 1 5 0 0 0 0 0 0 0 0 0 0 0 0 0 6 1
1 0 0 0 0 0 0 0 0 0 0 0 0 0 0 0 0 0 0 0 0 0 0 0 1 11 1 6 2 16 0 8 5 0 0 0 0 0 0 0 0 0 0 0 0
0 0 0 0 0 0 0 0 0 0 0 0 0 0 0 0 0 0 0 0 0 0 0 0 7 1 0 0 1 3 0 3 1 0 0 0 0 0 0 0 0 0 0 0 0
0 0 0 0 0 0 0 0 0 0 0 0 0 0 0 0 0 0 0 0 0 0 0 0 0 0 3 0 24 0 0 0 2 0 0 0 0 0 0 0 0 0 0 0 0
0 0 0 0 0 0 0 0 0 0 0 0 0 0 0 0 0 0 0 0 0 0 0 0 0 10 0 1 0 0 0 0 0 0 0 0 0 0 0 0 0 0 0 0 0
0 0 0 0 0 0 0 0 0 0 0 0 0 0 0 0 0 0 0 0 0 0 0 1 0 9 2 1 0 0 0 0 0 0 0 0 0 0 0 0 0 0 0 0 0
0 0 0 0 0 0 0 0 0 0 0 0 0 0 0 0 0 0 0 0 0 9 0 0 0 0 0 0 0 0 0 0 0 0 0 0 0 0 0 0 0 0 0 0 0
0 0 0 0 0 0 0 0 0 0 0 0 0 0 0 0 0 0 0 0 0 0 0 0 0 0 1 0 0 0 0 3 0 0 0 0 3 0 0 0 0 0 0 0 0
0 0 0 0 0 0 0 0 0 0 0 0 0 0 0 0 0 0 0 0 0 0 0 0 0 0 0 0 0 0 0 0 0 0 1 1 0 0 0 0 0 0 0 0 0
0 0 0 0 0 0 0 0 0 0 0 0 0 0 0 0 0 0 0 0 0 0 0 0 0 0 0 0 0 0 0 0 0 0 0 0 0 0 0 0 0 0 0 0 0

GFSSW_con_mucape_105.txt.gz
CAPE
12 11 14 22 35 22 16 21 24 19 27 11 10 23 17 19 9 0 0 0 0 60 34 0 0 0 0 0 26 72 62 8 0 3 0 1 0 0 0 17 179 714 666 1115 1661
10 10 15 19 32 29 21 13 27 28 11 16 12 10 13 8 0 0 0 23 120 102 0 0 0 0 0 12 27 34 40 16 0 0 2 3 0 0 0 385 904 1124 1173 1391 1550
9 15 18 23 23 24 29 32 36 20 4 11 11 13 5 3 0 0 11 41 33 8 1 0 0 0 0 33 20 15 34 2 5 0 51 28 0 1 126 114 661 965 1249 1401 1187
7 14 11 17 21 26 28 30 36 15 10 13 9 17 1 0 0 0 0 1 0 0 0 0 1 2 0 0 9 59 1 0 0 57 43 0 5 15 132 31 15 664 1287 1269 1319
7 8 16 14 23 24 21 35 31 12 2 10 17 0 0 0 0 0 0 0 0 0 0 5 20 23 0 0 0 5 0 0 0 16 54 14 0 18 14 1 33 828 1309 1233 1385
10 13 19 20 18 18 25 27 24 10 3 1 21 0 0 0 0 0 0 0 0 0 0 17 44 27 25 0 1 2 33 3 0 60 35 0 0 19 2 0 180 733 987 1143 1246
9 11 16 19 15 17 21 35 19 12 1 8 19 0 0 0 0 0 0 0 0 1 0 6 47 41 20 1 5 2 27 49 0 45 7 0 0 14 3 3 273 342 395 433 990
10 9 13 20 17 15 18 24 11 0 0 21 18 0 0 0 0 0 0 0 0 6 15 73 25 41 33 0 0 15 64 0 0 57 0 0 0 0 5 2 208 216 220 213 311
6 4 13 14 13 14 22 17 3 0 0 9 0 0 0 0 0 0 0 0 0 7 34 117 47 41 22 0 1 12 0 0 21 45 48 4 9 6 51 2 138 71 108 146 196
2 4 8 6 14 14 11 0 0 0 0 0 0 0 0 0 0 0 0 0 0 0 3 1 2 22 24 8 14 2 0 0 0 54 0 0 0 0 2 17 136 62 37 33 40
3 1 6 9 11 14 0 0 0 0 0 0 0 0 0 0 0 0 0 4 0 6 1 13 0 0 0 1 0 0 0 0 26 24 17 0 0 4 0 12 41 105 7 1 14
3 0 3 10 9 4 0 0 0 0 0 0 0 0 0 0 0 0 0 0 0 2 11 0 0 0 0 0 0 0 0 0 37 32 27 0 0 0 0 12 97 45 33 36 33
1 0 4 8 3 0 0 0 0 0 0 0 0 0 0 0 0 0 0 2 0 0 2 0 0 0 10 0 0 0 0 5 17 29 30 0 0 0 0 0 0 2 23 27 15
0 0 7 6 0 0 0 0 0 0 0 0 0 0 0 0 0 0 2 6 0 0 0 0 0 0 1 0 0 0 0 46 24 19 0 23 0 0 0 0 0 0 19 22 2
0 0 8 1 0 0 0 0 0 0 0 0 0 0 0 0 0 0 0 0 0 0 0 0 0 0 0 0 0 1 2 42 22 37 0 0 0 0 0 0 0 4 9 6 2
0 1 7 2 0 0 0 0 0 0 0 0 0 0 0 0 0 0 0 0 0 0 0 3 4 0 12 0 12 2 0 12 20 15 0 0 0 0 0 0 0 0 0 2 2
0 4 3 0 0 0 0 0 0 0 0 0 0 0 0 0 0 0 0 0 0 0 8 23 16 13 0 19 4 17 0 0 3 1 0 0 0 0 0 0 0 0 0 0 0
2 7 4 0 0 0 0 0 0 0 0 0 0 0 0 0 0 0 0 0 0 3 36 0 5 29 0 0 17 30 0 0 0 0 0 0 0 0 0 0 0 0 0 0 0
12 0 0 0 0 0 0 0 0 0 0 0 0 0 0 0 0 0 0 0 0 0 3 0 0 0 0 0 0 1 0 0 0 0 0 0 0 0 0 0 0 0 0 0 0
0 0 0 0 0 0 0 0 0 0 0 0 0 0 0 0 0 0 0 0 0 0 0 0 0 0 0 0 12 15 1 2 0 0 0 0 0 0 0 0 0 0 0 0 0
0 0 0 0 0 0 0 0 0 0 0 0 0 0 0 0 0 0 0 0 0 0 0 0 0 0 0 0 0 7 16 2 0 0 0 0 0 0 0 0 0 0 0 0 0
0 0 0 0 0 0 0 0 0 0 0 0 0 0 0 0 0 0 0 0 0 0 0 0 0 0 12 18 0 0 0 0 1 0 0 0 0 0 0 0 0 0 0 0 0
0 0 0 0 0 0 0 0 0 0 0 0 0 0 0 0 0 0 0 0 0 0 0 0 0 0 0 0 3 0 0 0 0 0 0 0 0 0 0 0 0 0 0 0 0
0 0 0 0 0 0 0 0 0 0 0 0 0 0 0 0 0 0 0 0 0 11 0 3 4 0 0 0 0 0 0 0 0 0 0 0 0 0 0 0 0 0 0 0 0
0 0 0 0 0 0 0 0 0 0 0 0 0 0 0 0 0 0 0 0 0 0 0 0 0 0 0 0 0 0 0 0 0 0 0 0 0 0 0 0 0 0 0 0 0
0 0 0 0 0 0 0 0 0 0 0 0 0 0 0 0 0 0 0 0 0 0 0 0 0 0 0 0 0 0 0 0 0 0 0 0 0 0 0 0 0 0 0 0 0
0 0 0 0 0 0 0 0 0 0 0 0 0 0 0 0 0 0 0 0 0 0 0 0 0 0 0 0 0 0 0 0 0 0 0 2 0 0 0 0 0 0 0 0 0

GFSSW_con_mucape_108.txt.gz
CAPE
12 12 13 17 29 33 34 27 16 25 34 11 14 11 19 24 6 0 0 0 0 17 58 10 0 0 0 0 21 46 61 20 5 0 0 13 2 11 0 0 5 909 718 964 1904
16 11 14 20 23 33 31 31 37 37 15 10 15 14 18 12 0 0 0 0 36 84 26 13 0 0 0 0 7 29 14 2 0 0 0 1 63 25 1 0 131 934 1210 1820 1945
15 13 13 13 19 19 28 30 38 41 13 6 15 14 11 6 0 0 8 8 45 16 8 0 0 0 0 0 3 14 0 0 0 0 6 5 88 57 21 19 5 790 1424 1858 1737
19 14 13 10 23 17 27 28 37 29 13 6 23 0 9 0 0 0 0 0 0 0 0 0 0 0 0 0 4 3 0 0 0 0 14 44 100 80 7 0 0 38 1434 1717 1928
12 13 13 16 14 19 13 28 31 18 11 0 25 1 0 0 0 0 0 0 0 0 0 4 0 0 0 0 0 3 0 0 0 0 11 56 58 54 32 3 0 2 924 1108 1478
9 14 12 13 12 17 17 25 36 19 9 3 15 3 0 0 0 0 0 0 0 0 0 3 15 33 12 16 16 9 0 0 0 0 13 57 21 25 0 5 5 400 960 1005 1195
13 6 15 16 14 11 21 18 28 13 8 11 14 0 0 0 0 0 0 0 0 1 0 0 19 36 33 18 1 0 0 0 4 0 1 71 12 0 0 0 12 98 699 916 1211
2 5 15 18 11 10 15 20 16 2 0 1 17 0 0 0 0 0 0 0 0 3 5 29 25 25 36 18 1 0 0 0 2 0 7 10 0 6 0 6 7 74 643 729 673
15 15 3 21 11 13 13 14 4 1 0 4 0 0 0 0 0 0 0 0 0 0 0 50 6 24 45 9 0 0 29 9 33 0 5 7 0 3 0 22 21 389 440 464 419
68 15 1 16 7 10 11 0 0 0 0 0 0 0 0 0 0 0 0 1 0 0 0 0 0 7 4 24 0 0 0 0 20 0 2 8 0 0 0 0 64 334 370 388 370
37 5 3 9 10 8 0 0 0 0 0 0 0 0 0 0 0 0 0 2 1 0 0 0 0 0 0 0 0 0 0 0 7 59 11 35 0 0 0 0 96 249 242 210 239
21 0 9 3 14 4 0 0 0 0 0 0 0 0 0 0 0 0 0 0 0 0 0 0 0 0 0 0 0 0 3 1 9 31 49 11 0 0 0 0 113 111 140 96 106
44 0 7 2 15 0 0 0 0 0 0 0 0 0 0 0 0 0 0 0 0 0 0 0 0 0 0 2 0 12 5 4 24 108 62 6 1 0 0 0 8 76 70 60 61
11 1 9 12 0 0 0 0 0 0 0 0 0 0 0 0 0 0 0 0 0 0 0 0 0 0 20 0 0 1 4 30 117 33 0 0 11 0 0 0 0 115 27 22 27
0 0 17 9 0 0 0 0 0 0 0 0 0 0 0 0 0 0 0 0 0 0 0 0 0 0 4 0 0 7 0 3 10 17 42 0 0 0 0 1 0 1 1 0 0
0 0 34 1 0 0 0 0 0 0 0 0 0 0 0 0 0 0 0 0 0 0 1 0 0 0 0 0 3 0 0 12 8 8 0 0 0 0 0 0 0 0 48 14 6
0 5 29 0 0 0 0 0 0 0 0 0 0 0 0 0 0 0 0 0 0 0 0 3 2 20 1 18 0 0 0 0 0 0 0 0 0 0 0 0 0 0 0 2 3
0 1 21 1 0 0 0 0 0 0 0 0 0 0 0 0 0 0 0 0 0 0 0 12 0 9 0 0 2 0 0 0 0 0 0 0 0 0 0 0 0 0 1 2 4
0 0 20 1 0 0 0 0 0 0 0 0 0 0 0 0 0 0 0 0 0 0 0 0 0 1 0 0 1 0 2 0 0 0 0 0 0 0 0 0 0 0 0 3 0
0 3 0 1 0 0 0 0 0 0 0 0 0 0 0 0 0 0 0 0 0 0 0 0 0 0 0 0 2 2 0 6 0 0 0 0 0 0 0 0 0 0 0 0 0
3 0 1 0 0 0 0 0 0 0 0 0 0 0 0 0 0 0 0 0 0 0 0 0 0 0 0 1 3 10 10 2 0 0 0 0 0 0 0 0 0 0 0 0 0
0 0 1 0 0 0 0 0 0 0 0 0 0 0 0 0 0 0 0 0 0 0 0 0 0 0 0 0 3 12 0 0 0 0 0 0 0 0 0 0 0 0 0 0 0
0 0 0 0 0 0 0 0 0 0 0 0 0 0 0 0 0 0 0 0 1 0 0 0 0 0 0 0 0 0 2 0 0 0 0 9 0 0 0 0 0 0 0 0 0
0 0 0 0 0 0 0 0 0 0 0 0 0 0 0 0 0 0 0 0 0 0 0 2 0 0 0 0 0 0 0 0 0 0 5 0 0 0 0 0 0 0 0 0 0
0 0 0 0 0 0 0 0 0 0 0 0 0 0 0 0 0 0 0 0 0 0 0 0 0 0 0 0 0 0 0 0 0 0 0 0 0 0 0 0 0 0 0 0 0
0 0 0 0 0 0 0 0 0 0 0 0 0 0 0 0 0 0 0 0 0 0 0 0 0 0 0 0 0 0 0 0 0 0 0 0 0 0 0 0 0 0 0 0 0
0 0 0 0 0 0 0 0 0 0 0 0 0 0 0 0 0 0 0 0 0 0 0 0 0 0 0 0 0 0 0 0 0 0 0 0 0 0 0 0 0 0 0 0 0

GFSSW_con_mucape_111.txt.gz
CAPE
6 0 8 17 30 29 46 28 22 19 21 10 16 18 18 22 5 0 0 0 0 13 12 11 0 0 0 0 23 39 0 0 0 3 0 0 0 2 11 13 0 9 459 693 1452
4 3 14 12 27 29 23 21 30 17 27 4 16 13 13 10 0 0 0 0 21 47 28 20 5 0 0 0 19 57 0 0 0 0 0 1 0 8 3 34 38 2 398 1196 1581
0 1 11 12 17 28 22 35 22 30 14 14 9 5 16 0 0 0 6 9 34 19 11 2 0 0 0 0 1 26 0 0 0 0 8 39 40 16 78 31 4 6 105 700 1720
36 1 2 9 18 15 21 18 18 26 5 5 15 3 0 0 0 0 0 0 0 0 0 0 0 0 0 0 0 0 0 0 0 0 14 32 48 81 105 7 1 0 14 63 1221
29 23 6 10 12 17 23 13 26 17 5 2 7 2 0 0 0 0 0 0 0 0 0 0 0 0 0 0 0 0 0 0 1 11 7 33 37 23 63 51 0 0 9 36 99
82 25 10 6 7 14 16 27 25 14 8 3 2 0 0 0 0 0 0 0 0 0 0 0 0 28 0 0 0 0 0 0 1 15 31 18 15 24 31 31 1 0 0 23 30
75 37 35 8 17 11 13 29 25 16 8 0 14 0 0 0 0 0 0 0 0 0 0 0 18 47 31 21 13 3 0 5 0 1 9 38 45 0 0 2 18 0 0 2 17
2 5 30 8 12 8 10 21 25 12 0 0 13 0 0 0 0 0 0 0 0 0 0 17 33 29 33 31 23 4 0 0 0 0 2 46 0 1 1 1 18 10 0 0 5
1 10 7 0 15 8 15 27 21 4 0 6 0 0 0 0 0 0 0 0 0 0 5 30 23 21 22 10 2 4 0 0 0 0 8 21 0 15 0 8 4 1 0 0 8
45 2 10 1 6 8 19 2 0 0 0 0 0 0 0 0 0 0 0 0 0 0 0 0 0 0 2 13 0 0 0 1 0 6 4 1 0 14 25 34 0 0 0 0 42
50 21 1 9 1 13 4 0 0 0 0 0 0 0 0 0 0 0 0 1 10 1 0 0 0 0 0 0 0 0 0 0 0 0 17 10 0 1 2 10 0 5 0 1 18
77 36 2 2 5 24 0 0 0 0 0 0 0 0 0 0 0 0 0 0 0 0 0 0 0 0 0 0 0 0 0 0 1 2 18 11 7 11 2 0 0 0 0 7 10
60 50 0 0 6 10 0 0 0 0 0 0 0 0 0 0 0 0 0 0 0 0 0 0 0 0 0 0 0 0 0 0 1 10 24 28 40 45 5 0 4 0 1 14 14
43 45 0 0 1 0 0 0 0 0 0 0 0 0 0 0 0 0 0 0 0 0 0 0 0 0 0 0 0 4 0 0 13 3 24 29 0 45 2 0 1 0 0 46 31
22 7 0 0 0 0 0 0 0 0 0 0 0 0 0 0 0 0 0 0 0 0 0 0 0 3 4 1 0 0 3 8 21 0 0 11 5 26 5 0 0 0 0 19 37
24 12 0 0 0 0 0 0 0 0 0 0 0 0 0 0 0 0 0 0 0 0 0 0 0 0 4 0 0 3 5 14 1 7 0 0 1 0 0 0 0 0 0 8 59
42 4 0 0 0 0 0 0 0 0 0 0 0 0 0 0 0 0 0 0 0 0 0 0 0 0 0 0 0 5 22 0 3 8 0 0 0 0 0 0 0 0 3 0 32
20 9 6 0 0 0 0 0 0 0 0 0 0 0 0 0 0 0 0 0 0 0 0 0 0 0 0 0 0 0 0 1 0 0 0 0 0 0 0 0 0 0 2 9 22
33 10 0 0 0 0 0 0 0 0 0 0 0 0 0 0 0 0 0 0 0 0 0 0 1 0 0 0 0 2 1 0 1 0 0 0 0 0 0 0 0 0 1 2 10
13 8 1 0 0 0 0 0 0 0 0 0 0 0 0 0 0 0 0 0 0 0 0 0 0 0 6 17 3 4 0 5 0 0 0 0 0 0 0 0 0 0 0 5 0
7 1 0 8 0 0 0 0 0 0 0 0 0 0 0 0 0 0 0 0 0 0 0 0 0 0 0 3 10 9 10 0 0 0 0 0 0 0 0 0 0 0 0 0 0
0 0 0 1 0 0 0 0 0 0 0 0 0 0 0 0 0 0 0 0 0 0 0 0 0 0 1 3 5 5 1 0 0 0 0 0 0 0 0 0 0 0 0 0 0
0 0 0 0 0 0 0 0 0 0 0 0 0 0 0 0 0 0 0 0 0 0 0 0 0 0 0 0 0 0 0 0 0 0 0 0 0 0 0 0 0 0 0 0 0
8 0 0 0 0 0 0 0 0 0 0 0 0 0 0 0 0 0 0 0 0 0 0 0 0 0 0 0 0 0 0 0 0 0 0 0 0 0 0 0 0 0 0 0 0
0 0 0 0 0 0 0 0 0 0 0 0 0 0 0 0 0 0 0 0 0 0 0 0 0 0 0 0 0 0 0 0 0 0 0 0 0 0 0 0 0 0 0 0 0
0 0 0 0 0 0 0 0 0 0 0 0 0 0 0 0 0 0 0 0 0 0 0 0 0 0 0 0 0 0 0 0 0 0 0 0 0 0 0 0 0 0 0 0 0
0 0 0 0 0 0 0 0 0 0 0 0 0 0 0 0 0 0 0 0 0 0 0 0 0 0 0 0 0 0 0 0 0 0 0 0 0 0 0 0 0 0 0 0 0

GFSSW_con_mucape_114.txt.gz
CAPE
14 17 0 0 11 5 22 20 18 21 22 16 1 11 10 7 1 0 0 0 0 8 0 12 0 0 0 1 11 11 0 0 0 0 0 17 23 2 0 42 124 122 179 35 23
18 25 17 0 2 5 16 17 18 27 30 10 0 8 16 4 0 0 0 0 1 45 53 21 7 1 0 0 17 3 0 0 0 0 1 31 67 73 59 6 35 114 32 41 47
117 63 12 0 0 8 9 16 28 23 15 5 5 8 4 0 0 0 9 30 46 42 22 1 1 0 0 0 10 3 0 0 0 0 6 17 29 53 62 15 74 21 55 120 86
157 96 51 22 1 6 10 17 20 17 6 0 7 1 0 0 0 0 1 0 0 0 0 0 0 0 0 0 0 0 0 4 0 1 1 3 18 49 102 78 56 8 51 69 92
136 157 38 41 4 6 3 12 24 31 2 3 0 2 0 0 0 0 0 0 0 0 0 0 0 0 0 0 0 0 0 0 0 8 6 11 2 26 42 12 14 18 13 27 0
252 121 113 16 4 0 4 14 31 41 4 3 0 2 0 0 0 0 0 0 0 0 0 0 0 0 0 0 0 11 2 11 27 13 12 32 17 31 3 21 115 81 1 5 7
198 195 110 8 2 0 0 7 30 19 11 2 16 0 0 0 0 0 0 0 0 0 0 0 9 20 11 0 12 25 31 26 7 0 9 26 47 25 0 0 16 17 10 0 0
43 102 46 13 2 0 8 4 32 13 4 0 36 0 0 0 0 0 0 0 0 0 6 28 56 35 39 36 31 4 0 8 0 10 1 59 9 2 1 0 0 10 28 0 30
52 71 38 1 4 0 6 4 22 11 7 23 0 0 0 0 0 0 0 0 0 0 18 33 49 39 44 0 0 0 0 29 20 20 35 51 22 28 17 8 0 3 12 0 8
90 82 48 30 9 0 0 0 3 5 7 1 0 0 0 0 0 0 0 0 1 7 19 14 28 53 60 21 0 0 0 55 45 49 74 38 26 45 121 157 63 29 13 0 2
83 94 59 36 14 0 0 0 0 0 0 0 0 0 0 0 0 0 0 0 11 4 0 0 49 38 31 43 52 18 0 19 7 10 0 32 76 47 164 121 73 19 0 0 1
70 90 69 44 4 4 0 0 0 0 0 0 0 0 0 0 0 0 0 0 0 0 12 33 0 3 1 0 0 2 0 1 0 5 24 21 81 23 52 76 22 5 0 2 0
220 87 79 4 9 3 0 0 0 0 0 0 0 0 0 0 0 0 0 0 0 0 0 0 0 0 0 0 0 0 0 0 0 3 16 87 28 26 25 4 0 1 2 0 0
54 36 14 0 0 0 0 0 0 0 0 0 0 0 0 0 0 0 0 0 0 0 0 0 0 0 0 0 0 0 0 0 20 0 97 29 2 0 2 0 0 8 0 6 0
58 38 14 0 0 0 0 0 0 0 0 0 0 0 0 0 0 0 0 0 0 0 0 0 0 0 0 0 1 0 0 0 0 0 18 8 33 0 3 0 0 0 1 0 0
33 12 2 0 6 0 0 0 0 0 0 0 0 0 0 0 0 0 0 0 0 0 0 0 0 0 0 0 0 3 0 1 0 0 84 20 11 0 6 0 0 0 0 0 0
26 29 14 0 1 0 0 0 0 0 0 0 0 0 0 0 0 0 0 0 0 0 0 0 0 0 0 0 19 9 0 0 0 0 0 8 0 7 0 0 0 0 0 0 1
79 44 9 2 1 0 0 0 0 0 0 0 0 0 0 0 0 0 0 0 0 0 0 0 0 0 0 0 0 17 0 7 0 0 0 0 0 0 0 0 0 0 0 0 10
13 2 1 0 0 0 0 0 0 0 0 0 0 0 0 0 0 0 0 0 0 0 0 0 1 0 0 0 0 0 0 0 0 0 0 0 0 0 0 0 0 0 0 0 14
4 4 12 3 0 0 0 0 0 0 0 0 0 0 0 0 0 0 0 0 0 0 0 0 5 0 0 0 0 2 0 25 11 0 0 0 0 0 0 0 0 0 1 0 0
10 4 0 0 0 0 0 0 0 0 0 0 0 0 0 0 0 0 0 0 0 0 0 0 0 8 3 0 0 0 0 0 0 0 0 0 0 0 0 0 0 0 0 4 28
0 0 1 0 0 0 0 0 0 0 0 0 0 0 0 0 0 0 0 0 0 0 0 0 3 14 10 8 0 0 0 0 11 0 0 0 0 0 0 0 0 0 0 0 0
0 0 0 0 0 0 0 0 0 0 0 0 0 0 0 0 0 0 0 0 0 9 6 4 0 1 14 15 1 1 0 0 0 0 0 0 0 0 0 0 0 0 0 0 0
0 0 0 0 0 0 0 0 0 0 0 0 0 0 0 0 0 0 0 0 0 0 0 0 0 0 0 0 2 0 0 0 0 9 0 0 0 0 0 0 0 0 0 0 0
0 0 0 0 0 0 0 0 0 0 0 0 0 0 0 0 0 0 0 0 0 0 0 0 0 0 0 0 0 0 0 0 0 0 0 0 0 0 0 0 0 0 0 0 0
0 0 0 0 0 0 0 0 0 0 0 0 0 0 0 0 0 0 0 0 0 0 0 0 0 0 0 0 0 0 0 1 0 0 0 0 0 0 0 0 0 0 0 0 0
1 0 0 0 0 0 0 0 0 0 0 0 0 0 0 0 0 0 0 0 0 0 0 0 0 0 0 0 0 0 0 0 0 0 0 0 0 0 0 0 0 0 0 0 0

GFSSW_con_mucape_117.txt.gz
CAPE
11 19 8 13 6 0 11 14 28 12 22 29 0 0 0 7 3 3 0 0 0 0 0 7 1 1 0 0 1 6 0 0 0 0 0 0 0 0 0 0 0 5 19 61 129
8 23 47 35 58 0 0 22 19 35 18 9 0 0 0 0 0 0 0 0 0 47 14 12 26 0 0 2 0 0 0 0 0 0 0 0 0 0 6 16 3 1 5 69 73
67 16 92 94 48 24 9 14 18 34 14 0 0 1 0 0 0 0 26 52 66 50 40 30 2 0 0 0 0 0 0 0 0 4 5 0 0 3 10 2 19 38 0 37 81
49 166 69 155 96 30 9 14 17 22 3 0 0 0 0 1 0 1 0 0 2 1 3 13 15 0 0 0 9 0 0 0 5 7 13 23 22 5 4 3 0 27 31 29 80
23 25 177 129 81 33 0 0 26 33 11 0 0 2 0 0 0 0 0 0 0 0 0 0 0 0 0 0 0 0 0 5 3 0 0 5 9 0 3 2 14 31 29 59 69
14 54 152 68 130 62 27 0 6 38 6 0 0 0 0 0 0 0 0 0 0 0 0 0 0 0 0 0 0 10 12 0 0 5 18 22 16 17 10 0 0 10 29 8 28
11 35 114 210 301 42 13 2 4 13 27 19 6 2 0 0 0 0 0 0 0 0 0 0 0 0 0 0 5 8 0 8 3 3 2 14 37 7 0 4 2 11 15 4 56
22 87 72 46 103 17 3 0 3 0 6 7 7 0 0 0 0 0 0 0 0 0 0 8 16 16 19 28 27 3 20 0 0 7 0 28 0 0 0 10 4 0 52 47 14
37 40 67 56 29 46 12 0 0 15 9 35 4 0 0 0 0 0 0 0 0 1 0 14 34 12 30 64 0 15 0 0 1 1 20 64 104 17 0 20 0 0 0 8 11
50 89 81 84 26 45 13 0 0 0 3 12 0 0 0 0 0 0 0 0 3 6 6 14 35 6 40 88 0 0 0 17 0 27 73 80 45 48 51 54 4 0 1 7 15
47 96 94 125 61 57 20 6 0 0 0 0 0 0 0 0 0 0 0 3 8 0 0 30 23 0 0 38 41 0 0 0 9 11 19 4 1 46 83 138 88 57 135 53 79
58 296 215 83 70 22 24 7 3 0 0 0 0 0 0 0 0 0 0 0 0 0 0 0 0 0 0 0 0 0 0 0 0 11 11 11 11 37 61 155 168 134 89 79 28
11 325 55 44 35 1 24 3 0 0 0 0 0 0 0 0 5 2 0 0 0 0 0 0 0 0 0 0 0 0 0 0 0 0 17 14 54 7 30 90 108 94 56 44 13
12 66 23 3 0 0 0 0 0 0 0 0 0 0 0 0 0 0 0 0 0 0 0 0 0 0 0 0 0 0 0 0 0 0 1 19 83 24 28 14 75 61 18 28 5
53 7 9 29 0 0 0 0 0 0 0 0 0 0 0 0 0 0 0 0 0 0 0 0 0 0 0 0 0 0 0 0 0 0 0 0 0 37 17 10 2 24 54 57 77
66 78 7 8 0 1 0 0 0 0 0 0 0 0 0 0 0 0 0 0 0 0 0 0 0 0 0 0 0 0 0 0 0 0 0 1 1 0 6 14 22 44 80 45 18
73 83 1 4 0 0 0 0 0 0 0 0 0 0 0 0 0 0 0 0 0 0 13 0 0 0 0 0 0 0 0 16 27 0 0 0 1 11 4 22 18 20 21 14 0
99 84 3 7 0 0 0 0 0 0 0 0 0 0 0 0 0 0 0 0 0 0 0 0 17 0 0 0 0 0 0 4 8 80 27 10 7 4 6 9 11 0 4 4 6
17 25 15 7 1 0 0 0 0 0 0 0 0 0 0 0 0 0 0 0 0 0 0 0 0 2 0 0 0 0 0 0 0 0 0 1 20 6 3 11 0 0 5 3 0
0 8 0 0 0 0 0 0 0 0 0 0 0 0 0 0 0 0 0 0 0 0 0 0 0 0 0 0 0 0 0 0 16 0 0 1 0 0 0 0 0 0 0 0 17
0 0 3 3 0 0 0 0 0 0 0 0 0 0 0 0 0 0 0 0 0 0 0 0 0 3 0 0 0 0 1 0 0 0 8 0 0 0 0 0 0 0 0 1 41
0 0 1 0 0 0 0 0 0 0 0 0 0 0 0 0 0 0 0 0 0 0 0 0 0 2 12 0 0 0 0 0 60 0 0 0 0 0 0 0 0 0 0 0 21
0 0 0 0 0 0 0 0 0 0 0 0 0 0 0 0 0 0 0 0 0 0 29 4 0 22 58 7 0 0 0 0 0 6 0 0 0 0 0 0 0 0 0 0 0
0 0 0 0 0 0 0 0 0 0 0 0 0 0 0 0 0 0 0 0 0 0 0 0 0 0 0 10 3 0 0 0 0 1 0 0 0 0 0 0 0 0 0 0 0
0 0 0 0 0 0 0 0 0 0 0 0 0 0 0 0 0 0 0 0 0 0 0 0 0 0 1 0 1 5 0 0 0 0 0 0 0 0 0 0 0 0 0 0 0
0 0 0 0 0 0 0 0 0 0 0 0 0 0 0 0 0 0 0 0 0 0 0 0 0 0 0 0 4 0 0 0 3 0 0 0 0 0 0 0 0 0 0 0 0
0 0 0 0 0 0 0 0 0 0 0 0 0 0 0 0 0 0 0 0 0 0 0 0 3 4 0 0 0 0 0 2 1 1 10 0 0 0 0 0 0 0 0 0 0